     2              OBSERVATION DATA    GPS                 RINEX VERSION / TYPE
ASRINEXO V2.4.4 UX USGS 24-FEB-96 16:20                     PGM / RUN BY / DATE
                                                            COMMENT
Contact: kwendt@isdmnl.wr.usgs.gov (Ph: 415-329-4866)       COMMENT
Contact: kwendt@isdmnl.wr.usgs.gov (Ph: 415-329-4866)       COMMENT
Contact: kwendt@isdmnl.wr.usgs.gov (Ph: 415-329-4866)       COMMENT
Contact: kwendt@isdmnl.wr.usgs.gov (Ph: 415-329-4866)       COMMENT
Contact: kwendt@isdmnl.wr.usgs.gov (Ph: 415-329-4866)       COMMENT
Contact: kwendt@isdmnl.wr.usgs.gov (Ph: 415-329-4866)       COMMENT
Original Marker Name: cerr Cerro_Gordo_1934_USC&GS          COMMENT
Campaign Name: USGS Yucca Profile                           COMMENT
4-Character Station Name: CERR                              COMMENT
6-Character Antenna Code: ASHL12                            COMMENT
Vertical Measurement Point: BBE                             COMMENT
Vertical Offset to Rinex Ref. Point: 0.0595                 COMMENT
Radial Measurement Point: EGP                               COMMENT
Radial Offset to Rinex Ref. Point: 0.1424                   COMMENT
Antenna Height from Field Measurement: 0.5450 m             COMMENT
Additional Antenna Identification Info.:                    COMMENT
Original Ashtech L1/L2 (700228ABC)                          COMMENT
Original XYZ: -2392298.4500 -4540781.1700 3777811.5100      COMMENT
New XYZ position is based on association with SCEC monument COMMENT
E1G0A3W0+0011. Position of that monument is believed to be  COMMENT
valid to within 1 m horizontally; vertical accuracy         COMMENT
should be no worse than 3-times this value.                 COMMENT
                                                            COMMENT
Revised Rinex header created by UCSD GPS archive for        COMMENT
GSAC on 08-Aug-2000 (2000:221) 00:15:30 GMT                 COMMENT
For assistance contact dagnew@ucsd.edu                      COMMENT
or anderson@python.ucsd.edu                                 COMMENT
                                                            COMMENT
CERRO GORDO 1934                                            MARKER NAME
GDH US GEOLOGICAL SURVEY                                    OBSERVER / AGENCY
O4597 ASHTECH Z-XII3 1F00                                   REC # / TYPE / VERS
0598 ASHTECH GEODETIC L                                     ANT # / TYPE
 -2392880.7334 -4541046.3407  3777947.0290                  APPROX POSITION XYZ
        0.4666        0.0000        0.0000                  ANTENNA: DELTA H/E/N
     1     1     0                                          WAVELENGTH FACT L1/2
     5    C1    L1    L2    P1    P2                        # / TYPES OF OBSERV
    30                                                      INTERVAL
  1996     2    19    16    53   30.000000                  TIME OF FIRST OBS
  1996     2    19    23    33   60.000000                  TIME OF LAST OBS
                                                            END OF HEADER
 96  2 19 16 53 30.0000000  0  5 19 29 18 22 14
  22435963.490     -102975.95619
  19364436.939      -51935.40419    -29719.05859                  19364439.9114
  20831667.061      -94534.60919    -56306.16459                  20831670.6984
  19987280.831       -4678.87819     -2813.57359                  19987282.2924
  19247641.786       15890.84419      9154.32759                  19247645.1524
 96  2 19 16 54  0.0000000  0  5 19 29 18 22 14
  22413412.358     -221461.579 9
  19353575.914     -109008.98459    -74191.97449  19353574.2364   19353579.0454
  20811209.244     -202045.27759   -140080.69549  20811205.5134   20811211.8744
  19986170.296      -10511.26459     -7358.27949  19986167.2374   19986172.3814
  19250077.304       28685.25259     19123.98449  19250073.6984   19250079.7054
 96  2 19 16 54 30.0000000  0  5 19 29 18 22 14
  23889643.265     -340927.098 9
  20841493.381     -167055.95749   -119423.38549  20841490.4604   20841495.3074
  22289512.193     -310601.14849   -224669.68049  22289510.6184   22289516.5324
  21483908.374      -16944.57149    -12371.25249  21483904.9994   21483910.1114
  20751346.249       40817.26949     28577.49349  20751344.4884   20751350.3964
 96  2 19 16 55  0.0000000  0  5 19 29 18 22 14
  23866725.232     -461350.284 9
  20830272.063     -226025.33759   -165373.54859  20830269.2114   20830274.4134
  22268666.589     -420160.04559   -310040.25159  22268662.2714   22268668.8284
  21482586.526      -23890.71759    -17783.82159  21482583.3374   21482588.9854
  20753542.130       52349.12959     37563.34659  20753539.3384   20753545.8354
 96  2 19 16 55 30.0000000  0  5 19 29 18 22 14
  23843639.290     -582672.066 9   -151861.19459                  23843646.1284
  20818887.634     -285845.27549   -211986.49449  20818885.8954   20818891.2374
  22247636.374     -530667.43349   -396149.89749  22247633.6984   22247639.7894
  21481177.378      -31295.03049    -23553.42349  21481174.3254   21481179.7524
  20755626.112       63306.12749     46101.24549  20755624.2984   20755630.7754
 96  2 19 16 56  0.0000000  0  5 19 29 18 22 14
  23820384.864     -704888.44359   -247094.73949  23820382.0174   23820389.3834
  20807346.935     -346494.59249   -259245.70949  20807344.9634   20807350.0234
  22226428.258     -642116.00649   -482992.93049  22226425.8244   22226432.0304
  21479685.744      -39132.21049    -29660.33949  21479682.5114   21479688.4944
  20757608.205       73719.89849     54215.83949  20757606.0174   20757612.4574
 96  2 19 16 56 30.0000000  0  5 19 29 18 22 14
  23796980.312     -827869.73449   -342924.31549  23796979.5254   23796986.9364
  20795672.674     -407842.75349   -307049.47849  20795670.9474   20795675.9034
  22205065.351     -754378.19549   -570469.95649  22205062.5664   22205069.3184
  21478135.522      -47274.09149    -36004.66149  21478133.4424   21478139.2384
  20759514.158       83733.00849     62018.24749  20759511.3274   20759517.8674
 96  2 19 16 57  0.0000000  0  5 19 29 18 22 14
  23773447.890     -951534.00249   -439286.09049  23773447.0594   23773454.2854
  20783880.781     -469807.76249   -355333.90749  20783879.0584   20783884.5184
  22183559.889     -867391.82249   -658532.51349  22183556.9334   22183563.2084
  21476538.457      -55676.19049    -42551.74649  21476534.4224   21476540.5004
  20761355.701       93412.22649     69560.48249  20761353.1774   20761359.9184
 96  2 19 16 57 30.0000000  0  6 19  4 29 18 22 14
  23749802.140    -1075796.94049   -536114.35149  23749800.5874   23749808.5864
  24642480.674     -180290.18419    -68624.28659                  24642487.4854
  20771988.339     -532302.54949   -404031.14849  20771986.6194   20771992.4854
  22161924.629     -981084.24449   -747124.00549  22161921.7034   22161928.6074
  21474899.599      -64281.91449    -49257.48749  21474897.0284   21474903.1054
  20763148.224      102833.25549     76901.53549  20763145.9174   20763153.0484
 96  2 19 16 58  0.0000000  0  6 19  4 29 18 22 14
  23726040.749    -1200655.90649   -633407.03749  23726039.8154   23726049.2024
  24636109.378     -213768.19459    -94711.09649  24636110.0064   24636116.3774
  20759993.695     -595335.01949   -453147.36149  20759992.0024   20759997.7744
  22140163.764    -1095437.27649   -836230.25749  22140161.4364   22140168.0204
  21473223.075      -73091.64349    -56122.21749  21473220.5334   21473226.8074
  20764894.302      112012.07749     84053.84749  20764892.7624   20764900.0894
 96  2 19 16 58 30.0000000  0  6 19  4 29 18 22 14
  23702186.071    -1326019.95049   -731093.30249  23702184.6134   23702192.7494
  24629707.259     -247424.09849   -120936.52259  24629703.7914   24629711.3534
  20747915.501     -658805.18149   -502604.63549  20747913.9134   20747919.2704
  22118299.208    -1210337.68349   -925763.03149  22118296.5644   22118302.9814
  21471525.931      -82011.07349    -63072.41849  21471523.6124   21471529.0314
  20766614.098      121043.96349     91091.66549  20766611.3934   20766618.3334
 96  2 19 16 59  0.0000000  0  6 19  4 29 18 22 14
  23678225.690    -1451935.79949   -829209.54949  23678223.7764   23678230.7304
  24623260.127     -281300.18059   -147333.52249  24623258.5204   24623264.4184
  20735746.763     -722753.83949   -552434.76249  20735744.9094   20735750.0764
  22096323.556    -1325821.37549  -1015750.32349  22096320.4694   22096326.8474
  21469802.463      -91068.19749    -70129.92049  21469799.8914   21469805.4244
  20768297.631      129897.20849     97990.28449  20768296.2744   20768302.6804
 96  2 19 16 59 30.0000000  0  6 19  4 29 18 22 14
  23654165.516    -1578371.20049   -927730.62749  23654164.5354   23654171.4474
  24616780.159     -315346.63349   -173863.28349  24616779.4584   24616787.5324
  20723491.981     -787151.87749   -602615.05149  20723490.7344   20723496.1754
  22074247.014    -1441833.14749  -1106149.08949  22074244.6694   22074251.2324
  21468066.161     -100194.67149    -77241.46249  21468062.9544   21468069.2904
  20769956.266      138608.95349    104778.62449  20769953.7674   20769960.8724
 96  2 19 17  0  0.0000000  0  6 19  4 29 18 22 14
  23630000.975    -1705355.04049  -1026679.04649  23629999.3584   23630007.5254
  24610266.117     -349586.71249   -200543.92249  24610265.5214   24610270.6384
  20711146.977     -852027.46149   -653167.45349  20711145.7074   20711150.5394
  22052065.152    -1558400.79849  -1196981.02149  22052062.5414   22052068.3884
  21466311.967     -109411.21749    -84423.18649  21466309.2864   21466315.2594
  20771581.457      147152.92149    111436.24249  20771579.9394   20771586.4034
 96  2 19 17  0 30.0000000  0  6 19  4 29 18 22 14
  23605745.384    -1832820.28449  -1126002.62049  23605744.5624   23605751.0364
  24603719.689     -383989.72649   -227351.48149  24603716.7304   24603723.0584
  20698724.999     -917307.14149   -704034.74149  20698723.2164   20698727.6614
  22029785.216    -1675478.88749  -1288210.70349  22029783.5984   22029789.0024
  21464549.010     -118675.49549    -91642.11749  21464546.4464   21464551.8404
  20773185.858      155579.70949    118002.55749  20773183.8024   20773189.9634
 96  2 19 17  1  0.0000000  0  6 19  4 29 18 22 14
  23581423.634    -1960631.79849  -1225595.98549  23581421.8024   23581429.9804
  24597163.179     -418444.21949   -254199.18549  24597161.7854   24597168.1424
  20686250.746     -982858.92649   -755114.06849  20686249.2534   20686253.7324
  22007431.084    -1792953.50449  -1379749.35349  22007428.6624   22007434.6244
  21462797.305     -127881.11449    -98815.32749  21462794.6644   21462800.5394
  20774788.994      164003.95249    124566.87249  20774786.9834   20774793.0424
 96  2 19 17  1 30.0000000  0  6 19  4 29 18 22 14
  23557021.032    -2088871.13749  -1325522.71949  23557019.3134   23557024.8844
  24590577.353     -453047.23049   -281162.58449  24590575.6634   24590581.3514
  20673710.310    -1048758.31749   -806464.24049  20673709.2554   20673713.2714
  21984985.577    -1910907.93049  -1471661.88049  21984982.7794   21984987.7844
  21461036.761     -137131.79049   -106023.63449  21461034.9004   21461039.2884
  20776371.924      172323.60649    131049.70149  20776370.5414   20776375.6144
 96  2 19 17  2  0.0000000  0  6 19  4 29 18 22 14
  23532539.502    -2217519.10749  -1425767.88049  23532537.9174   23532545.3304
  24583968.341     -487782.82759   -308229.30159  24583965.9944   24583970.8174
  20661110.641    -1114973.10049   -858060.17749  20661108.7484   20661112.9614
  21962449.828    -2029330.03149  -1563938.81849  21962447.6094   21962453.4564
  21459268.255     -146424.41249   -113264.64349  21459266.0194   21459271.2364
  20777940.775      180568.15249    137474.01049  20777939.3994   20777944.8484
 96  2 19 17  2 30.0000000  0  6 19  4 29 18 22 14
  23507978.525    -2346584.40549  -1526338.19149  23507978.4634   23507984.2644
  24577330.517     -522664.25159   -335409.81259  24577330.0324   24577335.5864
  20648447.593    -1181514.74749   -909910.80949  20648446.0914   20648450.3214
  21939824.205    -2148229.70049  -1656587.92049  21939821.7444   21939827.1574
  21457491.219     -155763.68849   -120542.00849  21457488.8084   21457493.5394
  20779492.933      188722.17649    143827.77749  20779490.9054   20779496.1734
 96  2 19 17  3  0.0000000  0  6 19  4 29 18 22 14
  23483336.687    -2476081.51249  -1627244.97849  23483335.8074   23483341.3724
  24570668.286     -557677.77949   -362693.00849  24570666.3614   24570672.7054
  20635719.796    -1248399.27049   -962028.62749  20635718.3054   20635722.5474
  21917105.867    -2267613.22849  -1749614.04249  21917103.8384   21917108.9584
  21455705.937     -165149.64849   -127855.73549  21455703.0884   21455707.6884
  20781026.680      196779.75549    150106.40149  20781024.4824   20781029.6374
 96  2 19 17  3 30.0000000  0  6 19  4 29 18 22 14
  23458617.740    -2605983.69149  -1728467.40749  23458616.3084   23458622.4904
  24563982.758     -592809.81049   -390068.67649  24563981.6414   24563986.9414
  20622926.489    -1315626.43149  -1014413.42949  20622925.3214   20622929.6724
  21894299.392    -2387463.48349  -1843003.84049  21894297.2324   21894302.3904
  21453916.616     -174553.80649   -135183.66049  21453913.3554   21453918.2004
  20782544.387      204759.47949    156324.35349  20782542.8684   20782548.0994
 96  2 19 17  4  0.0000000  0  6 19  4 29 18 22 14
  23433829.065    -2736247.55249  -1829971.66749  23433827.5104   23433833.5754
  24557281.833     -628025.46149   -417509.50749  24557280.3734   24557285.9704
  20610070.938    -1383183.60949  -1067055.38849  20610069.6074   20610074.1174
  21871409.957    -2507746.54349  -1936730.88749  21871407.8014   21871413.3804
  21452129.500     -183941.90449   -142499.06949  21452126.9674   21452131.6584
  20784053.832      212693.01649    162506.31749  20784052.4584   20784057.7184
 96  2 19 17  4 30.0000000  0  6 19  4 29 18 22 14
  23408978.095    -2866843.76949  -1931734.90149  23408976.2584   23408982.9194
  24550567.451     -663308.16849   -445002.56449  24550566.5884   24550571.6654
  20597156.101    -1451052.53649  -1119940.26949  20597154.7384   20597159.0774
  21848446.360      -92840.19619    -44812.85959                  21848449.5204
  21450350.102     -193293.02449   -149785.67249  21450347.4804   21450352.3874
  20785558.755      220601.03349    168668.38649  20785557.1794   20785562.5484
 96  2 19 17  5  0.0000000  0  6 19  4 29 18 22 14
  23384069.845    -2997733.79149  -2033727.07249  23384067.7454   23384074.1774
  24543844.955     -698636.60749   -472531.26849  24543843.2634   24543848.9944
  20584186.958    -1519205.33549  -1173046.35249  20584185.7274   20584190.1664
  21825417.969     -213855.90259   -139110.80449  21825415.8084   21825420.9384
  21448581.234     -202586.26649   -157027.17449  21448579.1354   21448583.9344
  20787064.184      228511.29249    174832.20649  20787062.9004   20787068.0624
 96  2 19 17  5 30.0000000  0  6 19  4 29 18 22 14
  23359110.984    -3128898.68649  -2135933.43949  23359108.4664   23359114.2294
  24537118.018     -733990.03249   -500079.45349  24537116.2584   24537122.4054
  20571168.577    -1587616.49649  -1226353.75549  20571167.5764   20571171.7874
  21802328.804     -335187.20549   -233654.67049  21802327.1274   21802332.5644
  21446829.894     -211792.48749   -164200.86749  21446827.2154   21446831.9784
  20788571.028      236427.50349    181000.67149  20788569.0184   20788574.3164
 96  2 19 17  5 59.9990000  0  6 19  4 29 18 22 14
  23334100.371    -3260323.97449  -2238342.71249  23334098.3294   23334104.5024
  24530389.835     -769343.81549   -527627.90949  24530388.2414   24530394.3274
  20558110.416    -1656238.72049  -1279825.61949  20558109.2204   20558113.5564
  21779188.573     -456802.08959   -328419.50959  21779184.5114   21779189.9384
  21445097.831     -220890.60049   -171290.32349  21445095.8454   21445100.8704
  20790083.670      244381.38249    187198.47649  20790082.8554   20790088.2274
 96  2 19 17  6 29.9990000  0  6 19  4 29 18 22 14
  23309041.903    -3392004.97749  -2340951.24949  23309040.5854   23309046.8564
  24523664.591     -804683.65549   -555165.49149  24523663.7964   24523669.5324
  20545018.329    -1725037.33649  -1333434.93149  20545017.0474   20545021.5674
  21755991.719     -578693.67149   -423399.95449  21755989.3224   21755994.3404
  21443391.631     -229858.28949   -178278.14949  21443389.2324   21443394.4844
  20791611.126      252407.14649    193452.29849  20791610.0354   20791615.3674
 96  2 19 17  6 59.9990000  0  6 19  4 29 18 22 14
  23283939.657    -3523916.35649  -2443739.30049  23283938.6944   23283944.6414
  24516947.816     -839983.07949   -582671.58349  24516946.6524   24516952.4604
  20531899.419    -1793978.74549  -1387155.50849  20531898.0654   20531902.5274
  21732744.468     -700857.67249   -518592.67449  21732742.2444   21732747.6314
  21441713.347     -238678.87049   -185151.33949  21441710.7844   21441715.5244
  20793154.281      260516.71049    199771.42349  20793153.2464   20793158.5194
 96  2 19 17  7 29.9990000  0  6 19  4 29 18 22 14
  23258794.213    -3656058.29249  -2546707.00549  23258793.1134   23258798.2844
  24510240.251     -875228.65749   -610135.69349  24510239.8434   24510245.5494
  20518757.103    -1863043.88849  -1440972.50649  20518755.4444   20518760.0234
  21709444.408     -823300.13049   -614002.37549  21709442.3594   21709447.3154
  21440063.362     -247347.97849   -191906.50549  21440061.0154   21440066.1114
  20794717.731      268729.07149    206170.64349  20794716.0864   20794721.3274
 96  2 19 17  7 59.9990000  0  6 19  4 29 18 22 14
  23233608.274    -3788410.67249  -2649838.70549  23233607.0814   23233613.3914
  24503548.902     -910398.77049   -637541.03149  24503547.5144   24503552.7224
  20505593.251    -1932216.98749  -1494873.62649  20505592.2544   20505596.8034
  21686093.419     -946009.34049   -709619.93649  21686091.6434   21686097.0884
  21438442.945     -255862.45049   -198541.17249  21438440.9414   21438445.8624
  20796305.710      277079.17749    212677.19849  20796304.7834   20796310.2744
 96  2 19 17  8 29.9990000  0  6 19  4 29 18 22 14
  23208386.649    -3920951.62749  -2753117.33949  23208385.6924   23208391.2804
  24496875.341     -945462.57349   -664863.50549  24496873.8964   24496879.7034
  20492413.962    -2001474.85449  -1548840.79749  20492412.8804   20492417.3824
  21662696.719    -1068958.52049   -805424.47649  21662694.9864   21662700.1874
  21436856.012     -264203.92849   -205041.03549  21436853.7384   21436858.5204
  20797923.328      285575.28349    219297.52249  20797921.6614   20797927.4344
 96  2 19 17  8 59.9990000  0  6 19  4 29 18 22 14
  23183129.339    -4053682.03949  -2856543.62049  23183127.9104   23183134.1994
  24490226.596     -980402.96849   -692089.83649  24490225.7634   24490230.3784
  20479219.703    -2070811.66649  -1602869.48749  20479218.8574   20479222.9694
  21639257.519    -1192135.10449   -901406.21749  21639255.5294   21639260.4794
  21435303.959     -272361.48449   -211397.58449  21435301.3514   21435306.5714
  20799564.862      294205.13249    226022.05949  20799563.6784   20799569.5764
 96  2 19 17  9 29.9990000  0  6 19  4 29 18 22 14
  23157838.397    -4186587.71649  -2960106.45649  23157837.1644   23157842.8444
  24483605.012    -1015202.55149   -719206.47849  24483604.0164   24483609.6584
  20466010.688    -2140226.59649  -1656959.04949  20466009.5564   20466013.8824
  21615778.948    -1315514.51749   -997546.00849  21615777.1994   21615782.3604
  21433790.644     -280308.39749   -217589.98949  21433788.9774   21433794.3214
  20801234.609      302977.27449    232857.48349  20801233.1824   20801238.9064
 96  2 19 17  9 59.9990000  0  6 19  4 29 18 22 14
  23132514.817    -4319665.12649  -3063803.12449  23132512.9694   23132518.4854
  24477009.203    -1049859.66749   -746212.01249  24477008.5424   24477013.8814
  20452788.136    -2209709.70849  -1711101.72849  20452787.1594   20452791.5774
  21592266.342    -1439074.41849  -1093826.45149  21592264.3404   21592269.7244
  21432322.396     -288023.77349   -223601.97649  21432320.9364   21432326.0964
  20802931.018      311891.12549    239803.32049  20802929.1044   20802935.0404
 96  2 19 17 10 29.9990000  0  6 19  4 29 18 22 14
  23107158.200    -4452911.03349  -3167631.09249  23107157.1834   23107162.6304
  24470438.958    -1084385.89749   -773115.62949  24470437.9964   24470444.9844
  20439554.407    -2279254.07149  -1765292.14749  20439553.2244   20439557.6724
  21568723.078    -1562795.23249  -1190232.28049  21568721.0994   21568726.4674
  21430898.290     -295507.38349   -229433.36749  21430896.9964   21430902.2854
  20804650.862      320926.17849    246843.60149  20804648.6624   20804654.4904
 96  2 19 17 10 59.9990000  0  6 19  4 29 18 22 14
  23081773.172    -4586315.21149  -3271582.37949  23081771.7764   23081777.0214
  24463892.492    -1118790.08649   -799924.12849  24463892.2274   24463897.3774
  20426306.439    -2348872.27749  -1819540.10449  20426305.4574   20426309.8824
  21545150.134    -1686672.22349  -1286759.79649  21545148.2744   21545153.4854
  21429519.232     -302756.68249   -235082.18249  21429517.2154   21429522.5564
  20806394.130      330092.70349    253986.32449  20806392.9994   20806399.0604
 96  2 19 17 11 29.9990000  0  6 19  4 29 18 22 14
  23056359.027    -4719862.71749  -3375645.34649  23056357.6834   23056363.7774
  24457365.450    -1153087.09549   -826649.11549  24457364.3794   24457370.3624
  20413045.382    -2418560.73849  -1873842.80649  20413044.2394   20413048.4354
  21521548.897    -1810695.14749  -1383401.02949  21521547.4544   21521553.0204
  21428183.533     -309774.70949   -240550.77849  21428181.9884   21428187.0274
  20808167.426      339406.94349    261244.15749  20808165.5964   20808171.2174
 96  2 19 17 11 59.9990000  0  6 19  4 29 18 22 14
  23030921.565    -4853535.42749  -3479805.88549  23030920.7244   23030926.4544
  24450859.409    -1187278.31549   -853291.66649  24450858.6034   24450864.3244
  20399775.302    -2488295.05249  -1928181.23749  20399774.3764   20399778.4854
  21497924.276    -1934844.48549  -1480140.76949  21497922.6714   21497927.9924
  21426892.269     -316561.41349   -245839.12249  21426890.3764   21426895.5634
  20809972.906      348899.69449    268641.08549  20809972.2604   20809977.5144
 96  2 19 17 12 29.9990000  0  6 19  4 29 18 22 14
  23005466.561    -4987302.97749  -3584040.30049  23005465.2234   23005471.2264
  24444376.589    -1221349.80949   -879840.89949  24444375.4434   24444381.0464
  20386497.862    -2558068.89949  -1982550.47149  20386496.6634   20386500.9784
  21474278.063    -2059105.47849  -1576967.51549  21474276.1424   21474281.7854
  21425646.049     -323112.87849   -250944.16349  21425643.4214   21425648.6704
  20811816.678      358588.46249    276190.75149  20811815.7484   20811821.3844
 96  2 19 17 12 59.9990000  0  6 19  4 29 18 22 14
  22979994.881    -5121157.06049  -3688342.15849  22979994.4804   22980000.1554
  24437915.671    -1255298.72149   -906294.63849  24437914.4004   24437921.0484
  20373213.484    -2627880.25149  -2036948.93349  20373212.2474   20373216.3544
  21450609.145    -2183487.19649  -1673888.32749  21450607.2344   21450612.9694
  21424447.660     -329409.82949   -255850.88549  21424445.3354   21424450.6884
  20813703.003      368496.55449    283911.32049  20813701.1214   20813706.7944
 96  2 19 17 13 29.9990000  0  6 19  4 29 18 22 14
  22954510.114    -5255081.19649  -3792698.61449  22954509.6164   22954514.7994
  24431481.245    -1289114.51649   -932644.66649  24431480.3214   24431485.4334
  20359928.169    -2697692.91749  -2091348.42049  20359927.2714   20359931.5044
  21426918.965    -2307981.01749  -1770896.50049  21426916.8944   21426922.3364
  21423300.509     -335439.77549   -260549.55149  21423298.0624   21423303.3504
  20815633.318      378643.35649    291817.89549  20815632.0204   20815637.4534
 96  2 19 17 13 59.9990000  0  6 19  4 29 18 22 14
  22929015.907    -5389056.64049  -3897095.04149  22929014.6694   22929020.4184
  24425077.302    -1322768.52649   -958868.59349  24425076.1794   24425081.6874
  20346646.123    -2767489.56649  -2145735.42249  20346645.6494   20346649.6304
  21403208.774    -2432577.00549  -1867984.28149  21403207.5474   21403212.4734
  21422204.574     -341193.99849   -265033.36849  21422203.1024   21422208.0754
  20817611.522      389036.77849    299916.64549  20817609.9594   20817615.2344
 96  2 19 17 14 29.9990000  0  6 19  4 29 18 22 14
  22903511.309    -5523080.72149  -4001529.36249  22903510.6284   22903516.2824
  24418708.851    -1356234.71849   -984946.19949  24418707.3144   24418713.5234
  20333367.057    -2837274.47249  -2200113.28149  20333366.0014   20333369.8784
  21379477.382    -2557285.94049  -1965160.07549  21379475.8064   21379480.9064
  21421162.945     -346670.77249   -269300.99349  21421161.0484   21421165.9584
  20819633.363      399662.76649    308196.61549  20819632.1694   20819637.6014
 96  2 19 17 14 59.9990000  0  6 19  4 29 18 22 14
  22877995.538    -5657165.09849  -4106010.66349  22877994.8484   22878000.5744
  24412377.044    -1389509.68149  -1010874.76749  24412376.0004   24412380.9754
  20320089.667    -2907045.96449  -2254480.68749  20320088.8894   20320093.0044
  21355723.133    -2682118.08549  -2062431.87349  21355721.1644   21355725.9914
  21420172.315     -351875.66849   -273356.76549  21420170.2054   21420175.4584
  20821697.460      410508.23649    316647.61149  20821695.7694   20821701.5094
 96  2 19 17 15 29.9990000  0  6 19  4 29 18 22 14
  22852472.063    -5791298.50149  -4210530.16849  22852471.2344   22852476.7734
  24406083.438    -1422574.89049  -1036639.90249  24406082.7824   24406088.8474
  20306817.375    -2976791.82049  -2308828.11849  20306816.8034   20306820.6734
  21331949.206    -2807051.16649  -2159782.32049  21331947.4064   21331952.2014
  21419232.656     -356813.49549   -277204.43849  21419230.6934   21419235.8664
  20823801.660      421570.18149    325267.28449  20823800.6564   20823806.4944
 96  2 19 17 15 59.9990000  0  6 19  4 29 18 22 14
  22826937.138    -5925480.76549  -4315087.74749  22826936.9334   22826942.7294
  24399834.942    -1455415.35349  -1062229.93049  24399834.4244   24399840.0904
  20293547.691    -3046524.92249  -2363165.61349  20293546.8044   20293550.8284
  21308158.837    -2932068.75349  -2257198.61249  21308156.9754   21308162.4394
  21418344.512     -361478.50249   -280839.52449  21418342.9014   21418348.2294
  20825943.341      432823.81049    334036.32649  20825942.2614   20825947.8224
 96  2 19 17 16 29.9990000  0  6 19  4 29 18 22 14
  22801389.649    -6059732.39549  -4419699.37749  22801389.2234   22801394.3984
  24393627.155    -1488040.76149  -1087652.36849  24393625.7924   24393632.0084
  20280280.141    -3116246.90249  -2417494.43649  20280279.2544   20280283.3164
  21284353.723    -3057165.26149  -2354676.39749  21284352.1204   21284356.9914
  21417508.284     -365871.76349   -284262.85649  21417506.8924   21417512.5224
  20828119.246      444258.33549    342946.32749  20828118.1534   20828123.9424
 96  2 19 17 16 59.9990000  0  6 19  4 29 18 22 14
  22775828.610    -6194061.98849  -4524371.74649  22775827.1944   22775832.1664
  24387453.385    -1520480.37749  -1112930.04649  24387452.7874   24387458.1884
  20267017.251    -3185944.93849  -2471804.60149  20267016.4044   20267020.5054
  21260536.713    -3182325.62449  -2452203.95049  21260534.9624   21260539.9874
  21416723.992     -369995.62149   -287476.26949  21416722.3724   21416727.5154
  20830329.447      455873.27749    351996.90949  20830328.4414   20830334.3464
 96  2 19 17 17 29.9990000  0  6 19  4 29 18 22 14
  22750254.562    -6328451.70249  -4629090.98649  22750254.0124   22750258.8364
  24381316.904    -1552731.87049  -1138061.13549  24381316.4644   24381320.7634
  20253763.430    -3255594.30349  -2526076.84549  20253762.4864   20253766.6584
  21236710.673    -3307531.07149  -2549766.62849  21236709.1144   21236714.0504
  21415992.060     -373843.52449   -290474.65049  21415990.3984   21415995.1874
  20832578.317      467692.04149    361206.31149  20832577.3384   20832583.2254
 96  2 19 17 17 59.9990000  0  6 19  4 29 18 22 14
  22724668.638    -6462907.65649  -4733861.83049  22724667.4394   22724672.9294
  24375214.650    -1584800.89949  -1163050.02349  24375213.7114   24375218.4734
  20240519.962    -3325186.29349  -2580304.37649  20240519.4574   20240523.6594
  21212876.784    -3432777.56449  -2647361.28849  21212875.4484   21212880.4564
  21415312.921     -377413.17749   -293256.21349  21415311.1584   21415315.9934
  20834866.952      479717.52149    370576.79149  20834865.7434   20834871.6324
 96  2 19 17 18 29.9990000  0  6 19  4 29 18 22 14
  22699070.066    -6597416.05649  -4838673.55749  22699071.3664   22699077.0014
  24369144.800    -1616695.77749  -1187903.22549  24369144.6944   24369149.0544
  20227292.503    -3394696.82249  -2634468.43249  20227292.1094   20227296.1064
  21189037.377    -3558057.70149  -2744982.16649  21189035.3304   21189040.2604
  21414688.523     -380697.76849   -295815.64649  21414685.8624   21414691.0734
  20837201.724      491985.99749    380136.62349  20837200.3944   20837206.2904
 96  2 19 17 18 59.9990000  0  6 19  4 29 18 22 14
  22673468.490    -6731960.82449  -4943513.62049  22673467.9984   22673473.6404
  24363106.746    -1648427.03649  -1212628.91449  24363106.3774   24363111.4174
  20214078.975    -3464136.50249  -2688577.28049  20214077.9834   20214082.4044
  21165189.554    -3683376.36749  -2842633.06949  21165187.9544   21165192.7964
  21414115.915     -383700.86549   -298155.73249  21414114.8024   21414119.7194
  20839582.669      504499.11349    389887.08549  20839581.9464   20839587.3704
 96  2 19 17 19 29.9990000  0  6 19  4 29 18 22 14
  22647857.903    -6866553.11049  -5048390.70549  22647856.6404   22647861.3434
  24357099.127    -1680000.75749  -1237231.84249  24357097.9674   24357101.7524
  20200872.501    -3533536.78949  -2742655.42849  20200871.7394   20200875.7374
  21141331.805    -3808748.89749  -2940325.94449  21141330.2454   21141335.4224
  21413596.005     -386433.25449   -300284.87749  21413594.5904   21413599.8804
  20842006.578      517236.52549    399812.31849  20842005.5584   20842011.4394
 96  2 19 17 19 59.9980000  0  6 19  4 29 18 22 14
  22622234.851    -7001198.41349  -5153309.11349  22622234.4434   22622239.1694
  24351118.618    -1711425.03749  -1261718.32349  24351118.0664   24351123.1304
  20187669.665    -3602917.50849  -2796718.33449  20187669.1364   20187673.1684
  21117462.237    -3934183.62649  -3038067.28249  21117460.6654   21117465.8844
  21413127.585     -388896.17149   -302204.05149  21413125.8194   21413130.9594
  20844469.788      530176.46349    409895.36549  20844468.0884   20844473.6974
 96  2 19 17 20 29.9980000  0  6 19  4 29 18 22 14
  22596603.889    -7135892.42349  -5258265.46949  22596602.9664   22596607.4364
  24345170.361    -1742683.98749  -1286075.98549  24345169.7184   24345174.0274
  20174471.730    -3672275.35149  -2850763.41149  20174470.6114   20174474.9524
  21093579.852    -4059687.50449  -3135862.50349  21093578.2124   21093583.2104
  21412712.350     -391078.56949   -303904.63449  21412710.5024   21412715.7024
  20846973.554      543335.09849    420148.82349  20846972.2554   20846977.5824
 96  2 19 17 20 59.9980000  0  6 19  4 29 18 22 14
  22570962.096    -7270636.26149  -5363260.65249  22570962.3824   22570967.1854
  24339256.964    -1773758.35849  -1310289.82649  24339256.4784   24339260.6024
  20161278.258    -3741605.65349  -2904787.03149  20161277.3074   20161281.7254
  21069685.373    -4185254.57249  -3233706.96049  21069683.5414   21069688.8444
  21412351.269     -392978.57949   -305385.17549  21412349.1194   21412354.1034
  20849517.908      556707.12549    430568.56149  20849516.7114   20849522.2354
 96  2 19 17 21 29.9980000  0  6 19  4 29 18 22 14
  22545310.396    -7405441.47849  -5468303.67249  22545309.4854   22545314.9314
  24333380.074    -1804645.60849  -1334357.84049  24333379.3914   24333382.8134
  20148094.632    -3810886.54249  -2958772.14649  20148093.6634   20148097.9264
  21045777.806    -4310890.04249  -3331604.72249  21045776.3104   21045781.1814
  21412041.838     -394601.95749   -306650.16149  21412039.9164   21412045.4064
  20852102.659      570289.69549    441152.35649  20852101.5424   20852106.9194
 96  2 19 17 21 59.9980000  0  6 19  4 29 18 22 14
  22519648.368    -7540292.03949  -5573382.03149  22519648.4694   22519653.8244
  24327542.717    -1835321.89349  -1358261.47849  24327541.3064   24327546.1114
  20134927.349    -3880082.75449  -3012691.27949  20134926.0904   20134930.1864
  21021860.148    -4436576.97749  -3429542.58349  21021858.8304   21021863.8904
  21411787.137     -395938.47049   -307691.60649  21411785.8644   21411791.0234
  20854730.288      584101.23049    451914.56949  20854729.4504   20854735.4454
 96  2 19 17 22 29.9980000  0  6 19  4 29 18 22 14
  22493979.574    -7675182.48649  -5678491.46949  22493979.2364   22493984.2944
  24321749.003    -1865770.55149  -1381987.75849  24321748.1834   24321751.2214
  20121777.413    -3949184.55849  -3066536.84849  20121776.6614   20121780.7284
  20997936.025    -4562300.31449  -3527508.81249  20997934.2924   20997939.4964
  21411587.978     -396987.94449   -308509.38649  21411585.8544   21411591.3324
  20857401.588      598142.29449    462855.63949  20857401.5674   20857407.0244
 96  2 19 17 22 59.9980000  0  6 19  4 29 18 22 14
  22468307.599    -7810093.29849  -5783616.78049  22468306.3604   22468311.9894
  24315996.041    -1896002.52449  -1405545.16049  24315995.5454   24315999.4724
  20108645.828    -4018188.76649  -3120306.36549  20108645.4184   20108649.7834
  20974008.063    -4688042.94649  -3625490.07849  20974006.4784   20974011.7144
  21411441.347     -397755.95049   -309107.84149  21411439.7764   21411445.2084
  20860117.630      612406.51249    473970.58949  20860116.0074   20860121.9794
 96  2 19 17 23 29.9980000  0  6 19  4 29 18 22 14
  22442634.007    -7945001.23649  -5888739.85449  22442634.3384   22442640.2994
  24310279.921    -1926029.21449  -1428942.64049  24310280.3844   24310285.2604
  20095534.380    -4087090.99949  -3173996.42249  20095533.9844   20095537.9544
  20950077.451    -4813798.88849  -3723481.71649  20950076.1404   20950080.8134
  21411350.271     -398231.89249   -309478.71349  21411349.4004   21411354.9304
  20862872.967      626891.62149    485257.66449  20862872.3914   20862878.0334
 96  2 19 17 23 59.9980000  0  6 19  4 29 18 22 14
  22416963.507    -8079903.28249  -5993858.32749  22416963.2954   22416969.3244
  24304601.813    -1955869.29549  -1452194.68249  24304601.9944   24304607.2164
  20082437.080    -4155918.60149  -3227628.32249  20082436.6374   20082440.6114
  20926144.091    -4939569.14949  -3821484.51349  20926142.7704   20926147.3214
  21411315.399     -398422.15349   -309626.98149  21411313.0014   21411318.8094
  20865668.805      641586.94949    496708.54149  20865669.1984   20865674.5044
 96  2 19 17 24 29.9980000  0  6 19  4 29 18 22 14
  22391293.465    -8214800.93749  -6098973.37049  22391293.0814   22391298.9704
  24298954.103    -1985551.79249  -1475323.93249  24298952.2754   24298958.9064
  20069353.303    -4224673.44549  -3281203.52149  20069352.7984   20069357.0404
  20902205.634    -5065368.64949  -3919510.08649  20902203.8954   20902208.8044
  21411331.059     -398337.60149   -309561.10049  21411329.2074   21411334.5404
  20868506.473      656490.37849    508321.58249  20868505.0174   20868510.9204
 96  2 19 17 24 59.9980000  0  6 19  4 29 18 22 14
  22365622.068    -8349703.61749  -6204092.32349  22365621.2724   22365627.7004
  24293329.210    -2015103.71249  -1498351.47449  24293328.6424   24293335.3964
  20056284.275    -4293352.79349  -3334719.90049  20056283.8714   20056287.9354
  20878259.184    -5191207.44049  -4017566.28149  20878257.7454   20878262.6014
  21411397.689     -397989.85849   -309290.14149  21411395.4764   21411400.6154
  20871379.709      671596.94049    520092.90549  20871379.5434   20871385.2134
 96  2 19 17 25 29.9980000  0  6 19  4 29 18 22 14
  22339947.382    -8484620.68149  -6309222.48649  22339947.3654   22339954.3124
  24287733.460    -2044511.62049  -1521266.78349  24287733.1984   24287739.6234
  20043230.223    -4361952.75849  -3388174.41649  20043229.3744   20043233.7814
  20854305.218    -5317085.43649  -4115653.02549  20854303.7214   20854309.0034
  21411512.997     -397381.27449   -308815.92549  21411511.5104   21411516.8714
  20874293.139      686901.60249    532018.58849  20874291.9704   20874297.8464
 96  2 19 17 25 59.9980000  0  6 19  4 29 18 22 14
  22314270.618    -8619559.16649  -6414369.33749  22314269.7694   22314275.6324
  24282165.911    -2073764.45949  -1544061.28149  24282167.0184   24282172.6384
  20030192.561    -4430464.40249  -3441560.11249  20030192.2554   20030196.5254
  20830345.456    -5442995.28149  -4213764.59149  20830344.0854   20830348.9054
  21411673.114     -396540.96749   -308161.14349  21411671.2164   21411676.6104
  20877242.260      702401.19549    544096.16949  20877241.1044   20877247.1394
 96  2 19 17 26 29.9980000  0  6 19  4 29 18 22 14
  22288589.134    -8754512.57549  -6519527.79949  22288589.0104   22288595.1984
  24276638.148    -2102819.31749  -1566701.46249  24276638.4564   24276643.7904
  20017177.126    -4498862.40649  -3494857.25349  20017176.5264   20017180.5234
  20806385.176    -5568904.87149  -4311875.95749  20806384.2324   20806389.0504
  21411877.236     -395466.02849   -307323.52549  21411875.4314   21411880.9764
  20880230.683      718108.10849    556335.29749  20880230.3554   20880236.1754
 96  2 19 17 26 59.9980000  0  6 19  4 29 18 22 14
  22262909.859    -8889461.25249  -6624682.59849  22262909.6304   22262914.9544
  24271150.909    -2131658.84549  -1589173.87949  24271150.5824   24271156.5494
  20004182.893    -4567146.61849  -3548065.73249  20004182.4774   20004186.5224
  20782432.315    -5694778.81749  -4409959.54449  20782431.2024   20782436.3044
  21412129.277     -394139.36449   -306289.76149  21412128.1074   21412133.6734
  20883260.707      734025.42349    568738.37649  20883259.2374   20883265.1594
 96  2 19 17 27 29.9980000  0  6 19  4 29 18 22 14
  22237232.500    -9024394.41549  -6729825.27449  22237232.9874   22237238.2684
  24265705.008    -2160275.25549  -1611472.42149  24265705.1624   24265710.8314
  19991210.736    -4635317.74749  -3601186.09049  19991209.6634   19991214.0444
  20758487.534    -5820609.26349  -4508009.23549  20758486.4494   20758491.2594
  21412431.804     -392552.79149   -305053.46549  21412430.2644   21412435.4074
  20886330.294      750161.93249    581312.24849  20886329.6694   20886335.3804
 96  2 19 17 27 59.9980000  0  6 19  4 29 18 22 14
  22211553.859    -9159338.77349  -6834976.69649  22211553.0004   22211559.2964
  24260298.744    -2188689.55849  -1633613.48949  24260298.2204   24260304.4724
  19978256.785    -4703391.86049  -3654230.85749  19978255.7994   19978260.0394
  20734549.218    -5946409.12049  -4606035.09249  20734547.4344   20734552.6374
  21412785.173     -390701.41149   -303610.83349  21412782.5044   21412787.9504
  20889441.968      766507.53049    594049.05149  20889440.7034   20889446.5594
 96  2 19 17 28 29.9980000  0  6 19  4 29 18 22 14
  22185870.128    -9294307.35049  -6940146.98549  22185869.8494   22185875.1724
  24254926.738    -2216923.88549  -1655614.29449  24254925.7474   24254930.9694
  19965318.279    -4771382.85149  -3707210.85349  19965317.7364   19965321.7294
  20710614.327    -6072185.68249  -4704042.79849  20710612.9164   20710617.8304
  21413192.277     -388559.60049   -301941.88649  21413189.8634   21413195.5304
  20892590.715      783059.53549    606946.69349  20892590.1874   20892596.1734
 96  2 19 17 28 59.9980000  0  6 19  4 29 18 22 14
  22160181.871    -9429300.08449  -7045336.10149  22160181.5054   22160187.0494
  24249581.044    -2245009.33949  -1677499.09949  24249581.7404   24249586.6694
  19952393.554    -4839299.63549  -3760133.02649  19952393.3774   19952397.3874
  20686679.313    -6197964.48849  -4802052.24749  20686678.1294   20686683.2524
  21413657.147     -386115.49149   -300037.39349  21413655.0804   21413660.5294
  20895780.832      799823.62249    620009.60049  20895780.3514   20895786.1574
 96  2 19 17 29 29.9980000  0  6 19  4 29 18 22 14
  22134486.417    -9564332.94849  -7150556.48749  22134485.7684   22134491.2954
  24244268.732    -2272935.82349  -1699260.03449  24244267.6924   24244271.9874
  19939484.095    -4907141.80849  -3812997.05849  19939483.5544   19939487.5104
  20662739.726    -6323767.91949  -4900080.89549  20662738.3154   20662743.2284
  21414175.581     -383387.32449   -297911.55549  21414174.4404   21414179.3684
  20899010.337      816794.53049    633233.65449  20899009.9874   20899015.4254
 96  2 19 17 29 59.9980000  0  5 19 29 18 22 14
  22108783.886    -9699404.03249  -7255806.67349  22108782.9804   22108788.0374
  19926590.021    -4974899.83249  -3865795.52449  19926589.8604   19926593.8474
  20638796.509    -6449591.83649  -4998125.50049  20638795.2144   20638799.9444
  21414749.648     -380377.94449   -295566.59749  21414747.0174   21414752.4894
  20902281.457      833981.81049    646626.31049  20902280.7824   20902286.4814
 96  2 19 17 30 29.9980000  0  5 19 29 18 22 14
  22083080.286    -9834475.18949  -7361056.89449  22083079.3594   22083084.7214
  19913714.865    -5042562.25749  -3918519.49749  19913714.0274   19913718.0564
  20614851.846    -6575420.15449  -5096173.53449  20614850.6424   20614855.2764
  21415373.083     -377100.53549   -293012.77549  21415370.7154   21415375.8174
  20905594.808      851392.49849    660193.05549  20905593.7834   20905599.7304
 96  2 19 17 30 59.9980000  0  6 28 19 29 18 22 14
  24173310.658    -9463148.90119  -7357370.50919  24173309.447    24173315.212
  22057380.072    -9969528.91849  -7466293.52749  22057379.2714   22057384.7284
  19900858.984    -5110118.51949  -3971160.74549  19900858.3064   19900862.4284
  20590908.708    -6701242.20049  -5194216.68049  20590907.5644   20590912.4394
  21416045.337     -373564.26949   -290257.25649  21416043.7414   21416048.9084
  20908949.094      869021.27049    673929.72849  20908948.5744   20908954.3024
 96  2 19 17 31 29.9980000  0  6 28 19 29 18 22 14
  24147092.405    -9600919.635 9  -7464724.312 9  24147092.325    24147098.467
  22031685.453   -10104561.12049  -7571513.41549  22031683.9794   22031688.6134
  19888026.366    -5177554.12349  -4023707.97349  19888025.7884   19888029.9314
  20566971.709    -6827032.81949  -5292235.33249  20566970.1684   20566975.0184
  21416766.991     -369771.48849   -287301.85549  21416765.2784   21416770.4844
  20912344.801      886859.36149    687829.51749  20912343.1204   20912348.6614
 96  2 19 17 31 59.9980000  0  6 28 19 29 18 22 14
  24120861.000    -9738770.982 9  -7572140.928 9  24120860.299    24120866.258
  22005992.407   -10239572.59649  -7676717.14149  22005992.1464   22005997.3334
  19875216.876    -5244866.59249  -4076159.25249  19875216.7804   19875220.8614
  20543045.086    -6952767.62249  -5390210.49449  20543043.7364   20543048.6424
  21417539.152     -365713.12649   -284139.51749  21417537.6614   21417542.7774
  20915778.424      904905.29249    701891.25249  20915777.8084   20915783.0584
 96  2 19 17 32 29.9970000  0  6 28 19 29 18 22 14
  24094611.395    -9876702.349 9  -7679619.850 9  24094612.244    24094618.835
  21980303.014   -10374574.09549  -7781913.08449  21980302.0784   21980307.3944
  19862429.942    -5312065.56949  -4128522.10049  19862429.1304   19862433.3584
  20519129.659    -7078445.07749  -5488140.96949  20519128.3834   20519133.0044
  21418359.990     -361394.93549   -280774.70449  21418359.1234   21418364.9434
  20919246.064      923132.35349    716094.12349  20919245.7294   20919251.6784
 96  2 19 17 32 59.9970000  0  6 28 19 29 18 22 14
  24068348.687   -10014717.991 9  -7787164.435 9  24068348.593    24068355.334
  21954608.138   -10509597.64549  -7887126.20249  21954608.1934   21954612.7914
  19849662.627    -5379155.95849  -4180800.32849  19849662.1624   19849666.3984
  20495221.372    -7204084.14449  -5586041.53749  20495219.9984   20495224.5944
  21419233.075     -356815.23549   -277206.12149  21419230.8894   21419236.2254
  20922749.239      941544.48649    730441.20849  20922749.1874   20922755.4234
 96  2 19 17 33 29.9970000  0  6 28 19 29 18 22 14
  24042072.720   -10152800.496 9  -7894761.134 9  24042072.218    24042079.098
  21928910.209   -10644644.52049  -7992357.50549  21928909.5074   21928914.6874
  19836919.041    -5446123.67349  -4232982.97049  19836918.5254   19836922.8054
  20471321.312    -7329677.01349  -5683906.09649  20471320.2044   20471324.9954
  21420153.301     -351981.67649   -273439.73349  21420150.7994   21420156.2614
  20926291.189      960154.59749    744942.56849  20926290.8744   20926296.9954
 96  2 19 17 33 59.9970000  0  6 28 19 29 18 22 14
  24015785.085   -10290949.818 9  -8002409.894 9  24015783.524    24015790.089
  21903206.972   -10779711.98649  -8097604.84649  21903207.0034   21903212.2394
  19824200.606    -5512959.96149  -4285063.20249  19824200.1354   19824204.4664
  20447428.317    -7455237.81949  -5781745.67549  20447426.9324   20447431.6934
  21421118.632     -346903.03549   -269482.36849  21421117.5624   21421122.5104
  20929869.977      978957.56749    759594.20149  20929868.9524   20929874.9624
 96  2 19 17 34 29.9970000  0  6 28 19 29 18 22 14
  23989484.399   -10429152.792 9  -8110100.474 9  23989484.931    23989490.949
  21877505.746   -10914772.85849  -8202847.07149  21877505.3734   21877510.3774
  19811510.886    -5579646.07349  -4337026.41549  19811510.3244   19811514.6304
  20423540.596    -7580767.72549  -5879561.16649  20423539.4674   20423544.2154
  21422132.759     -341571.98149   -265328.32949  21422131.6364   21422137.1604
  20933484.862      997955.36149    774397.64949  20933484.1484   20933490.0704
 96  2 19 17 34 59.9970000  0  6 28 19 29 18 22 14
  23963176.630   -10567410.707 9  -8217833.856 9  23963174.493    23963181.234
  21851808.149   -11049815.96949  -8308075.42249  21851808.1484   21851812.9724
  19798850.358    -5646174.67149  -4388866.88549  19798850.1304   19798854.4244
  20399658.106    -7706270.24649  -5977355.32949  20399656.9864   20399661.7534
  21423192.864     -336008.51249   -260993.16649  21423190.4224   21423195.6634
  20937136.052     1017145.64749    789351.08549  20937136.0834   20937141.8564
 96  2 19 17 35 29.9970000  0  6 28 19 29 18 22 14
  23936856.906   -10705715.730 9  -8325603.977 9  23936856.168    23936862.171
  21826116.326   -11184826.88449  -8413278.71149  21826115.5524   21826121.2724
  19786224.282    -5712527.38349  -4440570.30549  19786223.9414   19786228.2294
  20375784.345    -7831727.98949  -6075114.59549  20375783.2754   20375788.0824
  21424294.657     -330211.22649   -256475.82349  21424293.8534   21424299.1154
  20940825.607     1036528.65049    804454.69449  20940824.6564   20940830.5924
 96  2 19 17 35 59.9970000  0  6 28 19 29 18 22 14
  23910531.985   -10844064.177 9  -8433407.954 9  23910529.238    23910536.019
  21800433.192   -11319794.86349  -8518448.52849  21800432.9044   21800437.2364
  19773628.175    -5778720.48949  -4492149.35949  19773627.7134   19773632.0304
  20351919.078    -7957141.72049  -6172839.57749  20351917.8354   20351922.7214
  21425443.366     -324175.57949   -251772.73449  21425442.8614   21425447.5984
  20944548.480     1056096.40149    819702.26249  20944548.0144   20944554.0654
 96  2 19 17 36 29.9970000  0  6 28 19 29 18 22 14
  23884198.173   -10982447.505 9  -8541239.101 9  23884195.470    23884202.032
  21774759.124   -11454712.26049  -8623578.93049  21774758.4194   21774763.5434
  19761059.458    -5844767.85949  -4543614.84449  19761059.2094   19761063.4264
  20328064.874    -8082496.51749  -6270518.63049  20328063.4064   20328068.6024
  21426638.124     -317898.55749   -246881.55249  21426636.7044   21426642.1744
  20948309.961     1075860.69049    835102.98049  20948309.2104   20948314.9154
 96  2 19 17 36 59.9970000  0  6 28 19 29 18 22 14
  23857857.192   -11120868.270 9  -8649099.442 9  23857855.195    23857861.488
  21749091.372   -11589596.94049  -8728683.86349  21749090.9114   21749095.7624
  19748517.640    -5910679.70049  -4594974.73049  19748516.6924   19748520.9684
  20304221.441    -8207793.48349  -6368152.62549  20304220.2774   20304225.4514
  21427877.538     -311385.69249   -241806.61449  21427876.1284   21427881.4474
  20952110.175     1095831.20949    850664.39249  20952109.5654   20952115.3684
 96  2 19 17 37 29.9970000  0  6 28 19 29 18 22 14
  23831508.757   -11259324.383 9  -8756987.326 9  23831508.062    23831514.264
  21723428.301   -11724456.97549  -8833769.58349  21723427.9444   21723432.2584
  19735998.459    -5976465.89949  -4646236.70749  19735998.0314   19736002.2534
  20280388.829    -8333034.63149  -6465743.12249  20280387.5394   20280392.5244
  21429165.561     -304618.68649   -236533.64049  21429163.8384   21429169.5564
  20955949.352     1116008.27249    866386.74649  20955949.0694   20955954.8554
 96  2 19 17 37 59.9970000  0  6 28 19 29 18 22 14
  23805157.683   -11397807.643 9  -8864896.355 9  23805155.340    23805161.748
  21697770.072   -11859289.30349  -8938833.71749  21697769.5544   21697774.2654
  19723503.632    -6042125.62449  -4697400.13649  19723503.4504   19723507.6494
  20256566.386    -8458222.33349  -6563291.97349  20256565.3954   20256570.3494
  21430505.467     -297579.45749   -231048.54249  21430503.6874   21430508.8964
  20959829.098     1136391.04049    882269.39749  20959827.7644   20959834.0664
 96  2 19 17 38 29.9970000  0  6 28 19 29 18 22 14
  23778800.899   -11536308.286 9  -8972818.910 9  23778799.728    23778805.871
  21672117.529   -11994096.64049  -9043878.37949  21672116.9804   21672122.1634
  19711039.479    -6107624.26349  -4748438.03749  19711039.2714   19711043.7014
  20232757.259    -8583338.55549  -6660785.12349  20232756.3674   20232761.4904
  21431897.815     -290254.60649   -225340.88149  21431897.6024   21431902.3344
  20963748.221     1156992.43349    898322.40049  20963748.0424   20963754.2674
 96  2 19 17 38 59.9970000  0  6 28 19 29 18 22 14
  23752442.251   -11674822.099 9  -9080751.707 9  23752441.096    23752447.570
  21646467.747   -12128883.84849  -9148907.35049  21646467.9624   21646473.1394
  19698607.180    -6172957.34549  -4799346.93449  19698606.8384   19698611.0944
  20208963.247    -8708378.98049  -6758219.21149  20208962.0204   20208966.9244
  21433347.665     -282645.79649   -219411.95449  21433345.9164   21433350.6324
  20967710.992     1177810.27949    914544.07449  20967709.6494   20967715.2274
 96  2 19 17 39 29.9970000  0  6 28 19 29 18 22 14
  23726081.883   -11813346.735 9  -9188692.921 9  23726080.680    23726087.420
  21620822.125   -12263651.44749  -9253921.05649  21620822.3514   21620827.4954
  19686205.309    -6238130.70349  -4850131.37249  19686204.9544   19686208.9474
  20185183.441    -8833343.44149  -6855594.11249  20185182.0274   20185187.2134
  21434847.862     -274756.64949   -213264.58749  21434847.1414   21434852.0914
  20971709.599     1198825.28249    930919.36849  20971708.8814   20971714.7114
 96  2 19 17 39 59.9970000  0  6 28 19 29 18 22 14
  23699720.413   -11951874.672 9  -9296636.678 9  23699719.615    23699726.404
  21595180.072   -12398401.91749  -9358921.40549  21595179.9484   21595185.3304
  19673834.110    -6303141.77149  -4900789.34349  19673833.7494   19673837.9374
  20161420.767    -8958216.84549  -6952898.05449  20161419.4244   20161424.6484
  21436400.639     -266599.53749   -206908.40549  21436399.4924   21436404.3324
  20975746.311     1220042.91749    947452.56649  20975746.2514   20975752.3014
 96  2 19 17 40 29.9970000  0  6 28 19 29 18 22 14
  23673360.127   -12090403.539 9  -9404581.144 9  23673358.312    23673364.903
  21569541.989   -12533132.74749  -9463906.43349  21569541.3084   21569547.0364
  19661490.995    -6368006.32349  -4951333.14549  19661490.6204   19661494.6134
  20137677.784    -9082985.42349  -7050120.30749  20137676.6364   20137681.7794
  21437999.623     -258196.27249   -200360.42249  21437998.3524   21438003.5604
  20979820.854     1241452.90049    964135.64249  20979820.3144   20979826.3924
 96  2 19 17 40 59.9970000  0  6 28 19 29 18 22 14
  23646999.435   -12228923.936 9  -9512519.012 9  23646998.972    23647005.472
  21543910.389   -12667822.91449  -9568859.79049  21543910.3554   21543916.1434
  19649174.292    -6432732.15249  -5001768.85949  19649173.4764   19649177.6964
  20113954.545    -9207651.29649  -7147262.54349  20113953.5654   20113958.6264
  21439644.941     -249548.17249   -193621.66749  21439644.1984   21439648.9634
  20983929.310     1263041.62949    980957.99249  20983928.9334   20983934.5824
 96  2 19 17 41 29.9970000  0  6 28 19 29 18 22 14
  23620643.069   -12367425.847 9  -9620442.453 9  23620642.814    23620649.237
  21518290.048   -12802460.61349  -9673772.25749  21518290.3324   21518295.4004
  19636888.681    -6497286.40249  -5052070.86649  19636889.2004   19636893.3684
  20090252.405    -9332211.12849  -7244322.14549  20090250.6774   20090255.7444
  21441339.054     -240651.28449   -186689.04549  21441336.8544   21441341.9254
  20988070.134     1284801.74149    997913.89649  20988069.8114   20988075.4044
 96  2 19 17 41 59.9970000  0  6 28 19 29 18 22 14
  23594292.786   -12505912.137 9  -9728353.715 9  23594289.538    23594296.251
  21492678.984   -12937048.98649  -9778646.28449  21492678.9714   21492683.7254
  19624640.199    -6561658.92149  -5102231.26449  19624639.5114   19624643.5634
  20066567.353    -9456671.97949  -7341304.61149  20066566.3544   20066571.6834
  21443074.962     -231523.23249   -179576.29449  21443074.1484   21443078.7404
  20992242.505     1306722.52849   1014995.00249  20992241.5404   20992246.8924
 96  2 19 17 42 29.9970000  0  6 28 19 29 18 22 14
  23567944.269   -12644372.670 9  -9836244.930 9  23567941.580    23567948.191
  21467081.106   -13071565.35249  -9883464.19649  21467080.5724   21467086.7624
  19612429.079    -6625826.84349  -5152232.24449  19612428.7184   19612432.9114
  20042901.402    -9581036.61349  -7438212.11149  20042900.6894   20042905.8084
  21444856.426     -222165.04149   -172284.22049  21444855.2424   21444859.5824
  20996442.392     1328796.09649   1032195.15049  20996441.6484   20996447.3214
 96  2 19 17 42 59.9970000  0  6 28 19 29 18 22 14
  23541597.976   -12782807.014 9  -9944115.752 9  23541598.535    23541604.293
  21441497.237   -13206014.92449  -9988230.05649  21441495.9904   21441502.1264
  19600260.504    -6689770.86849  -5202058.75949  19600260.5804   19600264.8444
  20019251.688    -9705319.78849  -7535056.13449  20019250.5844   20019255.4254
  21446679.970     -212580.33149   -164815.63349  21446679.2864   21446683.8894
  21000673.445     1351031.43549   1049521.35549  21000673.1214   21000678.8634
 96  2 19 17 43 29.9970000  0  6 28 19 29 18 22 14
  23515261.241   -12921213.678 9 -10051965.015 9  23515260.474    23515267.013
  21415922.028   -13340407.88349 -10092951.81149  21415922.0514   21415927.4074
  19588134.476    -6753495.92849  -5251714.65149  19588134.2244   19588138.4114
  19995616.838    -9829520.45449  -7631835.86549  19995615.7164   19995620.9714
  21448544.659     -202780.25849   -157179.23949  21448543.7954   21448548.9114
  21004939.354     1373449.96449   1066990.30849  21004939.2274   21004944.7374
 96  2 19 17 43 59.9960000  0  6 28 19 29 18 22 14
  23488931.241   -13059576.405 9 -10159780.058 9  23488930.897    23488937.375
  21390361.843   -13474730.56649 -10197618.79649  21390360.8484   21390366.4834
  19576045.396    -6817023.23149  -5301216.44749  19576045.3454   19576049.5054
  19972001.045    -9953623.52549  -7728539.55249  19971999.7154   19972004.8194
  21450453.260     -192753.25849   -149365.99749  21450451.7104   21450456.6784
  21009245.322     1396076.80649   1084621.58349  21009244.5234   21009250.8624
 96  2 19 17 44 29.9960000  0  6 28 19 29 18 22 14
  23462609.114   -13197905.092 9 -10267568.598 9  23462607.904    23462614.236
  21364811.623   -13608994.04149 -10302239.65649  21364811.6824   21364816.5954
  19563990.238    -6880374.63649  -5350581.18249  19563989.9134   19563994.0694
  19948401.319   -10077638.95149  -7825174.94349  19948400.5664   19948405.5244
  21452407.313     -182489.26849   -141368.11249  21452405.4594   21452410.1004
  21013593.266     1418923.07349   1102423.83349  21013592.5104   21013598.5584
 96  2 19 17 44 59.9960000  0  6 28 19 29 18 22 14
  23436293.583   -13336197.271 9 -10375328.694 9  23436291.787    23436298.276
  21339271.622   -13743208.22549 -10406822.11449  21339271.8454   21339276.9844
  19551963.490    -6943575.12149  -5399828.32149  19551963.4724   19551967.4134
  19924819.909   -10201561.16749  -7921737.70149  19924818.7484   19924824.0724
  21454406.395     -171978.76849   -133178.14849  21454404.9654   21454410.0664
  21017983.055     1441993.87849   1120401.05049  21017982.5714   21017988.7654
 96  2 19 17 45 29.9960000  0  6 28 19 29 18 22 14
  23409984.764   -13474442.807 9 -10483052.467 9  23409984.800    23409990.571
  21313741.514   -13877365.74849 -10511360.41849  21313742.0254   21313747.9164
  19539965.585    -7006626.30449  -5448959.12549  19539965.2584   19539968.8334
  19901257.796   -10325380.48949  -8018220.28349  19901256.8354   19901261.9244
  21456456.168     -161207.07849   -124784.64849  21456454.7324   21456460.1304
  21022413.232     1465272.32949   1138540.06249  21022412.9754   21022418.3264
 96  2 19 17 45 59.9960000  0  6 28 19 29 18 22 14
  23383686.107   -13612641.287 9 -10590739.523 9  23383686.317    23383692.360
  21288223.128   -14011473.47149 -10615859.89849  21288222.8454   21288227.1204
  19527997.633    -7069518.72849  -5497966.20649  19527997.2404   19528001.1194
  19877717.004   -10449087.01949  -8114614.97449  19877716.1314   19877721.2624
  21458557.024     -150171.31449   -116185.37149  21458555.6674   21458559.8854
  21026876.052     1488726.67649   1156816.14949  21026875.8944   21026881.2344
 96  2 19 17 46 29.9960000  0  6 28 19 29 18 22 14
  23357399.086   -13750782.927 9 -10698382.306 9  23357398.561    23357405.176
  21262714.069   -14145523.21849 -10720314.20849  21262713.7614   21262718.9474
  19516065.049    -7132224.14349  -5546827.57749  19516064.7784   19516068.7104
  19854201.543   -10572663.10349  -8210908.02649  19854200.3394   19854205.5464
  21460705.285     -138875.29649   -107383.28649  21460704.5224   21460709.4654
  21031368.841     1512337.71749   1175214.33349  21031368.9004   21031374.5084
 96  2 19 17 46 59.9960000  0  6 28 19 29 18 22 14
  23331123.526   -13888866.175 9 -10805979.567 9  23331122.006    23331128.862
  21237216.188   -14279514.24349 -10824722.77249  21237216.5414   21237221.2824
  19504171.015    -7194726.68249  -5595530.86149  19504171.0064   19504174.8794
  19830713.298   -10696092.27949  -8307086.59849  19830712.5134   19830717.8874
  21462901.803     -127337.99349    -98393.20249  21462899.5144   21462904.7694
  21035887.218     1536079.65749   1193714.51249  21035886.8424   21035892.5674
 96  2 19 17 47 29.9960000  0  6 28 19 29 18 22 14
  23304859.132   -14026885.133 9 -10913526.729 9  23304857.656    23304864.848
  21211730.196   -14413443.02949 -10929082.83149  21211730.2334   21211734.8614
  19492320.415    -7257002.46849  -5644057.45349  19492320.2174   19492324.0914
  19807255.572   -10819364.58049  -8403142.93649  19807254.5854   19807259.7484
  21465137.377     -115578.73349    -89230.16949  21465137.9914   21465142.7764
  21040428.786     1559945.63949   1212311.34649  21040428.3634   21040434.1824
 96  2 19 17 47 59.9960000  0  6 28 19 29 18 22 14
  23278605.681   -14164845.954 9 -11021028.581 9  23278604.796    23278611.331
  21186254.114   -14547322.06749 -11033404.12749  21186254.3834   21186259.0284
  19480511.902    -7319056.11249  -5692410.94649  19480511.9854   19480515.8434
  19783829.327   -10942471.34849  -8499070.28749  19783828.2784   19783833.4454
  21467413.931     -103623.14149    -79914.15249  21467412.6754   21467417.7954
  21044994.706     1583942.23049   1231009.95449  21044994.5534   21045000.5424
 96  2 19 17 48 29.9960000  0  6 28 19 29 18 22 14
  23252366.859   -14302734.848 9 -11128474.390 9  23252365.144    23252371.644
  21160789.264   -14681137.32549 -11137675.72149  21160789.6234   21160794.9584
  19468747.502    -7380881.03849  -5740586.21649  19468747.0834   19468751.0904
  19760434.151   -11065412.08349  -8594868.26049  19760433.4614   19760438.4824
  21469726.195      -91470.61549    -70444.68149  21469724.9844   21469730.0274
  21049591.658     1608096.91049   1249831.74549  21049591.1514   21049596.9374
 96  2 19 17 48 59.9960000  0  6 28 19 29 18 22 14
  23226140.611   -14440546.326 9 -11235859.875 9  23226140.423    23226147.521
  21135336.921   -14814890.46949 -11241898.92349  21135336.7894   21135341.9434
  19457023.737    -7442488.76149  -5788592.24049  19457023.4654   19457027.5284
  19737067.966   -11188204.42049  -8690550.60249  19737067.0054   19737071.9084
  21472076.690      -79125.08449    -60824.81549  21472074.8054   21472079.9994
  21054221.587     1632428.74649   1268791.58349  21054221.3194   21054227.4344
 96  2 19 17 49 29.9960000  0  6 28 19 29 18 22 14
  23199930.094   -14578280.533 9 -11343185.150 9  23199930.663    23199937.159
  21109893.643   -14948595.78649 -11346084.85149  21109893.8734   21109898.9774
  19445338.063    -7503896.41949  -5836442.36749  19445338.0304   19445342.0534
  19713725.749   -11310867.55449  -8786132.26249  19713724.9694   19713729.8394
  21474463.977      -66582.26249    -51051.21149  21474462.0094   21474466.3874
  21058888.815     1656954.26549   1287902.33949  21058888.3584   21058894.5894
 96  2 19 17 49 59.9960000  0  6 28 19 29 18 22 14
  23173735.986   -14715936.282 9 -11450449.285 9  23173735.332    23173742.398
  21084460.179   -15082249.30749 -11450230.41349  21084460.7554   21084465.3014
  19433687.417    -7565119.17449  -5884148.41349  19433687.6464   19433691.6854
  19690406.394   -11433412.37149  -8881621.72649  19690405.2814   19690410.1754
  21476890.910      -53819.39849    -41106.15049  21476890.1944   21476895.5684
  21063593.253     1681677.15249   1307166.89249  21063593.7184   21063599.4984
 96  2 19 17 50 29.9960000  0  6 28 19 29 18 22 14
  23147559.013   -14853503.209 9 -11557644.224 9  23147557.155    23147563.909
  21059039.998   -15215834.32749 -11554322.62349  21059039.8474   21059045.3934
  19422072.677    -7626156.49949  -5931709.97149  19422072.6184   19422076.6104
  19667107.908   -11555844.38049  -8977023.28749  19667107.0504   19667112.4214
  21479366.146      -40813.62949    -30971.80849  21479365.6104   21479370.5154
  21068337.133     1706602.82049   1326589.45149  21068336.4354   21068342.3244
 96  2 19 17 50 59.9960000  0  6 28 19 29 18 22 14
  23121396.925   -14990980.446 9 -11664769.283 9  23121396.243    23121403.262
  21033631.804   -15349350.52249 -11658361.19149  21033632.0254   21033638.2684
  19410493.165    -7687007.89949  -5979126.65249  19410492.8984   19410496.8594
  19643834.372   -11678150.17849  -9072326.50049  19643833.1914   19643838.2934
  21481890.189      -27556.74549    -20641.79349  21481888.0274   21481893.7214
  21073116.555     1731721.72449   1346162.58249  21073116.2084   21073122.3664
 96  2 19 17 51 29.9960000  0  6 28 19 29 18 22 14
  23095254.198   -15128366.958 9 -11771823.650 9  23095252.373    23095258.915
  21008238.333   -15482798.12949 -11762346.31949  21008237.8004   21008244.1434
  19398950.783    -7747661.84449  -6026389.47149  19398950.8964   19398954.8714
  19620587.284   -11800312.23049  -9167517.70549  19620586.4374   19620591.5724
  21484462.138      -14037.91849    -10107.67049  21484460.3834   21484465.7584
  21077929.477     1757012.58049   1365869.70549  21077928.7764   21077935.0394
 96  2 19 17 51 59.9960000  0  6 28 19 29 18 22 14
  23069128.786   -15265653.535 9 -11878800.154 9  23069127.247    23069134.279
  20982859.319   -15616167.42649 -11866270.42349  20982858.9234   20982863.8164
  19387448.756    -7808103.73349  -6073487.04949  19387449.1654   19387453.2634
  19597369.845   -11922320.94849  -9262589.42949  19597368.9184   19597374.0794
  21487082.042        -262.83449       626.13449  21487081.4294   21487086.8534
  21082773.931     1782467.67949   1385704.80549  21082773.3814   21082779.0984
 96  2 19 17 52 29.9960000  0  6 28 19 29 18 22 14
  23043024.914   -15402830.779 9 -11985691.471 9  23043023.658    23043030.088
  20957494.185   -15749460.80049 -11970135.35949  20957493.7634   20957499.1874
  19375992.528    -7868309.51549  -6120400.65649  19375992.1824   19375996.3564
  19574185.373   -12044157.55349  -9357527.04449  19574184.1944   19574189.2884
  21489747.059       13740.71549     11537.96149  21489746.5804   21489751.7694
  21087646.469     1808076.87949   1405659.98349  21087646.4264   21087652.5724
 96  2 19 17 52 59.9960000  0  6 28 19 29 18 22 14
  23016940.275   -15539902.165 9 -12092500.308 9  23016940.083    23016946.059
  20932139.908   -15882696.58049 -12073955.41949  20932139.9124   20932145.7324
  19364582.631    -7928271.47849  -6167124.27149  19364582.1884   19364585.9354
  19551031.592   -12165831.69649  -9452338.06149  19551030.4584   19551035.4744
  21492448.794       27941.42349     22603.42649  21492448.6184   21492454.0124
  21092543.567     1833811.34449   1425712.76849  21092543.9404   21092549.6194
 96  2 19 17 53 29.9960000  0  6 28 19 29 18 22 14
  22990878.882   -15676860.570 9 -12199221.110 9  22990877.373    22990883.866
  20906799.194   -16015867.29049 -12177724.78249  20906798.0234   20906804.2514
  19353218.952    -7987985.21949  -6213654.46549  19353219.0904   19353222.7724
  19527907.699   -12287347.98149  -9547026.07349  19527906.6834   19527911.5334
  21495189.065       42333.70149     33818.15649  21495187.1394   21495192.5694
  21097466.140     1859674.55349   1445865.87349  21097465.1814   21097471.0764
 96  2 19 17 53 59.9960000  0  6 28 19 29 18 22 14
  22964838.273   -15813706.218 9 -12305854.052 9  22964836.545    22964842.711
  20881469.424   -16148972.49649 -12281443.09149  20881469.4124   20881475.0924
  19341903.980    -8047449.49949  -6259990.27249  19341903.6034   19341907.3024
  19504816.487   -12408694.06949  -9641581.46449  19504815.3044   19504820.1764
  21497959.308       56899.09949     45167.78749  21497958.6304   21497964.9584
  21102414.589     1885674.84349   1466125.79649  21102412.7764   21102419.3594
 96  2 19 17 54 29.9960000  0  6 28 19 29 18 22 14
  22938818.844   -15950435.216 9 -12412396.103 9  22938817.775    22938824.355
  20856154.022   -16282004.64349 -12385104.47149  20856154.1004   20856159.6284
  19330636.406    -8106655.83849  -6306125.08949  19330636.6274   19330640.5034
  19481758.711   -12529861.48049  -9735997.63049  19481757.9534   19481762.9194
  21500765.106       71636.96349     56651.80949  21500763.1194   21500768.8814
  21107387.340     1911811.90249   1486492.28549  21107386.5154   21107392.3214
 96  2 19 17 54 59.9960000  0  7 28 19 29 18 22 14 27
  22912822.884   -16087043.375 9 -12518844.000 9  22912822.194    22912828.296
  20830853.881   -16414958.34949 -12488704.73349  20830853.6174   20830859.5614
  19319417.761    -8165613.75549  -6352066.32749  19319417.6474   19319421.0784
  19458734.799   -12650854.67649  -9830278.04149  19458733.7004   19458738.7634
  21503606.085       86570.59649     68288.37849  21503605.3314   21503611.4974
  21112389.022     1938100.96449   1506977.22349  21112389.2454   21112395.0164
  23753375.954    -4363225.50659  -3368805.89159  23753375.3764   23753382.2244
 96  2 19 17 55 29.9950000  0  7 28 19 29 18 22 14 27
  22886850.296   -16223520.778 9 -12625190.013 9  22886851.052    22886857.574
  20805571.161   -16547819.48449 -12592232.86349  20805570.7594   20805577.1834
  19308243.872    -8224333.91449  -6397822.30449  19308243.3614   19308247.2544
  19435746.764   -12771657.05749  -9924409.76449  19435745.7094   19435751.0164
  21506486.876      101709.81949     80085.15149  21506485.6684   21506492.0464
  21117424.163     1964555.96149   1527591.46349  21117423.7604   21117429.5784
  23723874.028    -4518247.89449  -3489602.52149  23723876.3454   23723882.4524
 96  2 19 17 55 59.9950000  0  8 28 19 29 18 22 14 27 31
  22860905.881   -16359867.497 9 -12731434.200 9  22860905.047    22860911.645
  20780304.557   -16680597.60949 -12695696.31449  20780304.3534   20780310.1304
  19297114.317    -8282816.69249  -6443393.30449  19297114.6174   19297118.1714
  19412792.733   -12892282.36349 -10018403.50949  19412791.8924   19412796.7994
  21509405.958      117051.01049     92039.29649  21509405.0434   21509410.9764
  21122489.230     1991172.17949   1548331.32649  21122488.7564   21122494.3874
  23694359.649    -4673356.92949  -3610466.70649  23694359.7304   23694366.1634
  23275181.804    -9185102.63859  -6397476.63459  23275179.8774   23275188.9954
 96  2 19 17 56 29.9950000  0  8 28 19 29 18 22 14 27 31
  22834986.100   -16496076.187 9 -12837570.842 9  22834985.388    22834991.982
  20755052.825   -16813291.60449 -12799094.20349  20755053.1514   20755059.1694
  19286029.759    -8341068.52049  -6488784.34549  19286029.6914   19286033.2414
  19389867.156   -13012755.30849 -10112278.53149  19389866.2854   19389871.2074
  21512368.159      132607.19849    104160.98249  21512366.0434   21512371.6444
  21127581.253     2017937.79949   1569187.60749  21127581.8024   21127588.0164
  23664830.580    -4828538.96749  -3731387.74549  23664829.1714   23664835.8784
  23244329.571    -9347229.24149  -6523808.97649  23244329.3254   23244337.8154
 96  2 19 17 56 59.9950000  0  8 28 19 29 18 22 14 27 31
  22809093.618   -16632141.964 9 -12943596.115 9  22809092.931    22809099.613
  20729817.129   -16945908.77649 -12902432.22849  20729816.7004   20729823.0264
  19274985.456    -8399106.60649  -6534008.83349  19274985.2444   19274988.8864
  19366971.732   -13133071.69249 -10206031.55549  19366970.9404   19366975.8334
  21515366.580      148376.80449    116448.95049  21515366.2384   21515372.2554
  21132703.418     2044849.63449   1590157.82949  21132702.7224   21132709.0674
  23635288.381    -4983778.49449  -3852353.57249  23635289.3684   23635295.3744
  23213450.591    -9509500.68349  -6650254.19349  23213449.0354   23213456.8214
 96  2 19 17 57 29.9950000  0  8 28 19 29 18 22 14 27 31
  22783227.989   -16768061.418 9 -13049507.377 9  22783228.473    22783234.872
  20704595.290   -17078447.43349 -13005709.07749  20704595.9604   20704601.5794
  19263983.255    -8456922.87949  -6579060.48049  19263983.2924   19263986.9134
  19344109.382   -13253215.18849 -10299649.86049  19344108.4004   19344113.3794
  21518405.490      164344.10049    128890.97049  21518404.9184   21518410.9284
  21137850.243     2071893.77649   1611231.14349  21137849.7134   21137855.4974
  23605742.442    -5139056.21449  -3973349.16849  23605741.9204   23605746.3254
  23182544.058    -9671911.80449  -6776808.26449  23182544.4004   23182551.3764
 96  2 19 17 57 59.9950000  0  8 28 19 29 18 22 14 27 31
  22757393.202   -16903831.851 9 -13155302.527 9  22757392.297    22757398.803
  20679388.118   -17210916.72449 -13108931.88849  20679388.1624   20679393.1604
  19253026.579    -8514501.99649  -6623927.33249  19253026.2774   19253030.0834
  19321280.996   -13373178.51449 -10393127.77749  19321280.2254   19321285.1994
  21521483.824      180514.81249    141491.49249  21521481.8794   21521488.0944
  21143022.081     2099073.36549   1632409.99949  21143021.6494   21143027.6634
  23576187.342    -5294359.15349  -4094364.38149  23576185.8704   23576192.5544
  23151615.674    -9834453.17149  -6903463.82549  23151613.3294   23151620.0394
 96  2 19 17 58 29.9950000  0  8 28 19 29 18 22 14 27 31
  22731586.855   -17039451.505 9 -13260980.190 9  22731584.794    22731591.402
  20654192.804   -17343317.86349 -13212101.58549  20654192.7884   20654198.2484
  19242113.736    -8571847.30349  -6668611.99349  19242113.7884   19242117.7034
  19298492.964   -13492930.31049 -10486440.86349  19298492.1204   19298496.9484
  21524598.816      196889.68249    154251.10149  21524598.9034   21524603.8024
  21148221.252     2126391.90749   1653697.13049  21148219.6904   21148226.0104
  23546629.704    -5449687.29949  -4215399.25149  23546629.3154   23546634.1984
  23120658.590    -9997121.41049  -7030218.23049  23120659.0174   23120665.0914
 96  2 19 17 58 59.9950000  0  8 28 19 29 18 22 14 27 31
  22705808.395   -17174909.568 9 -13366531.922 9  22705808.028    22705814.439
  20629012.859   -17475638.75349 -13315208.74549  20629012.7444   20629018.4494
  19231247.125    -8628953.21349  -6713110.11149  19231246.9884   19231250.6964
  19275750.611   -13612442.17849 -10579566.99349  19275749.7424   19275754.6844
  21527751.890      213460.54349    167163.42449  21527751.5054   21527757.6594
  21153446.880     2153862.90449   1675103.05249  21153448.0144   21153453.5274
  23517068.339    -5605034.57049  -4336449.02449  23517068.1424   23517072.9324
  23089682.126   -10159906.27349  -7157063.52749  23089681.4524   23089689.2874
 96  2 19 17 59 29.9950000  0  8 28 19 29 18 22 14 27 31
  22680063.753   -17310203.273 9 -13471955.576 9  22680062.468    22680068.911
  20603850.844   -17607866.89449 -13418243.63649  20603850.4114   20603855.9974
  19220428.638    -8685806.73249  -6757411.56449  19220428.2334   19220431.8004
  19253052.937   -13731718.85349 -10672509.85549  19253052.2614   19253057.2914
  21530945.170      230238.41149    180237.06249  21530944.4004   21530950.2004
  21158703.303     2181478.27949   1696621.48649  21158703.1744   21158708.2294
  23487503.952    -5760404.27649  -4457516.26749  23487502.0374   23487508.1804
  23058680.358   -10322817.73849  -7284007.47149  23058681.4674   23058688.2294
 96  2 19 17 59 59.9950000  0  8 28 19 29 18 22 14 27 31
  22654350.829   -17445322.929 9 -13577243.603 9  22654349.869    22654356.633
  20578706.954   -17739998.42449 -13521203.25049  20578707.0494   20578712.2014
  19209655.475    -8742416.85649  -6801523.35349  19209655.5444   19209659.3604
  19230398.490   -13850770.82149 -10765277.62549  19230397.4544   19230402.1634
  21534181.176      247236.48149    193482.27749  21534178.3824   21534185.3364
  21163984.846     2209235.86149   1718250.72149  21163984.9734   21163990.5884
  23457928.078    -5915810.79049  -4578612.18849  23457928.9404   23457934.4184
  23027657.507   -10485847.67849  -7411043.73149  23027657.7704   23027664.8284
 96  2 19 18  0 29.9950000  0  8 28 19 29 18 22 14 27 31
  22628670.934   -17580269.975 9 -13682397.126 9  22628670.614    22628676.699
  20553582.874   -17872024.21049 -13624080.46349  20553583.5794   20553588.9534
  19198926.314    -8798798.36649  -6845457.00249  19198926.4404   19198930.3974
  19207782.396   -13969617.13349 -10857885.14249  19207781.6134   19207786.5374
  21537452.199      264435.50749    206884.08449  21537451.7754   21537458.5124
  21169289.146     2237113.21849   1739973.29649  21169289.2034   21169295.4914
  23428345.293    -6071268.04249  -4699747.67649  23428345.7354   23428351.5334
  22996610.397   -10649007.43049  -7538181.16249  22996608.8164   22996616.9674
 96  2 19 18  0 59.9950000  0  8 28 19 29 18 22 14 27 31
  22603027.357   -17715037.588 9 -13787410.823 9  22603025.018    22603031.786
  20528481.351   -18003934.68349 -13726867.82549  20528481.5584   20528487.2054
  19188244.050    -8854935.57249  -6889200.28549  19188243.8894   19188247.9584
  19185202.797   -14088272.51949 -10950343.88249  19185202.2154   19185207.1784
  21540765.888      281842.70749    220448.10449  21540764.4294   21540770.1344
  21174618.297     2265111.01749   1761789.71549  21174617.8634   21174623.6214
  23398756.730    -6226770.30049  -4820918.21349  23398754.9624   23398760.7544
  22965539.507   -10812288.75649  -7665413.31749  22965537.9924   22965545.1784
 96  2 19 18  1 29.9950000  0  8 28 19 29 18 22 14 27 31
  22577414.528   -17849628.870 9 -13892287.113 9  22577413.037    22577419.733
  20503398.249   -18135749.10649 -13829580.34649  20503397.9734   20503403.7334
  19177609.548    -8910819.08149  -6932745.87849  19177609.5874   19177613.5414
  19162658.752   -14206745.34949 -11042660.36849  19162657.6104   19162662.5234
  21544116.165      299453.24749    234170.57349  21544115.7954   21544121.7314
  21179965.609     2293209.58949   1783684.67149  21179964.7464   21179970.3854
  23369151.941    -6382333.79349  -4942136.47449  23369151.1804   23369156.7924
  22934446.214   -10975676.67049  -7792728.53649  22934445.6974   22934452.7484
 96  2 19 18  1 59.9950000  0  8 28 19 29 18 22 14 27 31
  22551836.483   -17984038.168 9 -13997021.599 9  22551836.090    22551842.440
  20478331.680   -18267473.75649 -13932222.92149  20478331.7754   20478337.5814
  19167024.321    -8966444.75949  -6976090.56849  19167024.2464   19167028.4984
  19140151.604   -14325018.55549 -11134821.30549  19140150.8884   19140155.6944
  21547504.430      317253.09849    248040.55949  21547503.3994   21547509.2044
  21185332.358     2321418.87749   1805665.89249  21185332.8274   21185338.8564
  23339537.997    -6537958.83949  -5063402.70449  23339537.1864   23339543.2314
  22903338.576   -11139145.93549  -7920107.14049  22903338.7314   22903345.9984
 96  2 19 18  2 29.9950000  0  8 28 19 29 18 22 14 27 31
  22526293.314   -18118263.745 9 -14101612.913 9  22526293.470    22526300.118
  20453283.541   -18399102.18649 -14034790.51949  20453283.7734   20453288.9044
  19156492.530    -9021788.97949  -7019215.94549  19156492.6554   19156496.5914
  19117687.913   -14443067.32049 -11226807.35449  19117686.9634   19117691.6244
  21550923.803      335223.52249    262043.45149  21550922.2624   21550928.6124
  21190723.982     2349749.82549   1827741.91749  21190723.5954   21190729.4054
  23309915.552    -6693624.87049  -5184700.87649  23309915.6824   23309921.7134
  22872216.296   -11302693.53849  -8047546.80649  22872216.1704   22872223.4594
 96  2 19 18  2 59.9950000  0  8 28 19 29 18 22 14 27 31
  22500789.681   -18252297.973 9 -14206055.133 9  22500787.539    22500794.161
  20428252.080   -18530644.22049 -14137290.79749  20428252.4844   20428257.8244
  19146016.166    -9076844.39249  -7062116.27749  19146016.0584   19146020.1564
  19095269.325   -14560878.77949 -11318608.48849  19095268.4334   19095273.2654
  21554375.550      353364.13249    276178.95849  21554374.5164   21554380.3674
  21196139.089     2378203.98049   1849913.94649  21196138.2324   21196144.5454
  23280287.300    -6849326.39149  -5306026.68149  23280286.4784   23280291.4114
  22841083.602   -11466301.92549  -8175033.84849  22841083.4454   22841089.8024
 96  2 19 18  3 29.9950000  0  8 28 19 29 18 22 14 27 31
  22475319.724   -18386143.946 9 -14310350.662 9  22475317.747    22475323.904
  20403234.788   -18662111.06349 -14239732.48449  20403234.7204   20403240.2994
  19135591.950    -9131624.26149  -7104801.90549  19135591.7664   19135595.5924
  19072894.695   -14678457.16849 -11410228.01149  19072893.8644   19072898.8554
  21557855.138      371653.07349    290430.04849  21557855.6204   21557860.8154
  21201575.130     2406772.35549   1872174.97849  21201574.7184   21201581.5614
  23250651.158    -7005072.47849  -5427387.25149  23250650.1264   23250654.2374
  22809936.743   -11629983.20249  -8302577.67849  22809935.3424   22809942.3964
 96  2 19 18  3 59.9950000  0  8 28 19 29 18 22 14 27 31
  22449885.334   -18519794.695 9 -14414494.061 9  22449884.560    22449891.485
  20378235.094   -18793482.19349 -14342099.58449  20378235.5744   20378241.1304
  19125218.879    -9186133.46449  -7147276.61749  19125218.9184   19125223.0204
  19050563.384   -14795808.06049 -11501670.26049  19050562.6954   19050567.5784
  21561361.525      390075.80149    304785.38349  21561360.3334   21561366.2104
  21207033.709     2435466.60749   1894534.10049  21207035.4144   21207041.3184
  23221007.058    -7160840.07849  -5548764.55649  23221006.9864   23221012.5494
  22778771.446   -11793752.39949  -8430190.02149  22778771.1904   22778779.2204
 96  2 19 18  4 29.9950000  0  8 28 19 29 18 22 14 27 31
  22424487.776   -18653249.269 9 -14518484.613 9  22424489.262    22424495.719
  20353255.316   -18924756.69949 -14444391.38749  20353254.8314   20353260.0914
  19114896.578    -9240379.95349  -7189546.62449  19114896.1994   19114900.3304
  19028272.230   -14912947.51049 -11592947.75149  19028271.5444   19028276.4424
  21564891.644      408624.24249    319238.68549  21564891.0864   21564895.9304
  21212516.187     2464272.19049   1916979.97449  21212516.6854   21212522.5704
  23191358.822    -7316639.80849  -5670166.90249  23191358.7854   23191364.3384
  22747588.172   -11957622.59849  -8557881.06349  22747587.5904   22747595.8244
 96  2 19 18  4 59.9950000  0  8 28 19 29 18 22 14 27 31
  22399132.973   -18786500.930 9 -14622317.046 9  22399132.103    22399138.732
  20328293.059   -19055933.48449 -14546607.05349  20328292.7624   20328298.2834
  19104622.869    -9294366.98349  -7231614.45249  19104622.6694   19104627.0214
  19006018.432   -15029892.51249 -11684073.72749  19006017.6674   19006022.5414
  21568449.036      427323.22649    333809.28949  21568448.3634   21568454.3174
  21218018.421     2493184.80249   1939509.24749  21218018.4264   21218024.6974
  23161702.001    -7472490.73049  -5791609.15249  23161702.4984   23161707.2074
  22716386.826   -12121589.05449  -8685647.12549  22716385.9194   22716393.6594
 96  2 19 18  5 29.9950000  0  8 28 19 29 18 22 14 27 31
  22373817.050   -18919542.774 9 -14725985.988 9  22373815.081    22373821.702
  20303351.469   -19187002.45849 -14648738.71149  20303351.7504   20303356.4044
  19094400.919    -9348080.83949  -7273469.41849  19094401.5264   19094405.5514
  18983804.170   -15146630.17349 -11775038.13949  18983803.4694   18983808.4124
  21572040.682      446190.04449    348510.67749  21572038.7814   21572044.5074
  21223541.622     2522214.32549   1962129.62149  21223542.5144   21223548.9174
  23132036.810    -7628382.69049  -5913083.35049  23132036.7404   23132043.4674
  22685166.700   -12285651.79449  -8813488.21849  22685165.7514   22685173.6714
 96  2 19 18  5 59.9940000  0  8 28 19 29 18 22 14 27 31
  22348540.296   -19052366.597 9 -14829485.042 9  22348539.473    22348545.835
  20278432.904   -19317951.14549 -14750776.64049  20278432.7204   20278437.6774
  19084231.747    -9401523.22149  -7315112.84849  19084231.6354   19084235.6814
  18961632.708   -15263142.62549 -11865827.06549  18961631.8024   18961636.7304
  21575665.222      465244.11449    363357.97649  21575665.1894   21575670.6514
  21229088.178     2551351.39849   1984833.79549  21229087.3984   21229093.6364
  23102366.219    -7784304.31749  -6034580.67149  23102365.7674   23102371.7214
  22653931.414   -12449790.74549  -8941388.70749  22653930.9664   22653938.1054
 96  2 19 18  6 29.9940000  0  8 28 19 29 18 22 14 27 31
  22323304.539   -19184978.343 9 -14932818.839 9  22323304.229    22323310.599
  20253533.864   -19448793.08449 -14852731.37849  20253534.3564   20253539.4634
  19074112.968    -9454697.28449  -7356547.19449  19074113.0614   19074117.1144
  18939504.422   -15379427.43849 -11956438.60349  18939503.7104   18939508.5544
  21579332.983      484515.72949    378374.78449  21579331.4164   21579338.0954
  21234652.273     2580594.84949   2007620.86249  21234652.2944   21234658.6444
  23072686.017    -7940275.23449  -6156116.37849  23072685.1574   23072691.5454
  22622683.685   -12614000.58049  -9069344.43649  22622682.0664   22622690.5674
 96  2 19 18  6 59.9940000  0  8 28 19 29 18 22 14 27 31
  22298113.921   -19317365.089 9 -15035977.312 9  22298111.992    22298117.909
  20228657.303   -19579521.75949 -14954597.86549  20228657.4074   20228662.8204
  19064048.762    -9507586.45149  -7397759.54849  19064048.7774   19064052.6834
  18917422.793   -15495468.80149 -12046860.44249  18917421.9704   18917426.7104
  21583043.344      504015.23449    393569.18349  21583042.9644   21583048.2274
  21240241.331     2609964.32449   2030506.13149  21240241.0854   21240247.7834
  23043004.058    -8096252.27149  -6277656.87849  23043004.9294   23043010.3284
  22591427.114   -12778256.44549  -9197336.04749  22591426.8064   22591434.6314
 96  2 19 18  7 29.9940000  0  8 28 19 29 18 22 14 27 31
  22272963.240   -19449527.775 9 -15138961.188 9  22272962.082    22272968.495
  20203799.841   -19710148.89249 -15056385.23149  20203799.9854   20203805.0644
  19054035.813    -9560206.37049  -7438762.09049  19054035.4714   19054039.3524
  18895389.392   -15611251.84249 -12137080.98949  18895388.8314   18895393.6974
  21586791.136      523705.47049    408912.18849  21586789.5694   21586795.2904
  21245853.108     2639457.17149   2053487.53649  21245853.4094   21245859.9214
  23013323.706    -8252224.71749  -6399193.78749  23013323.3354   23013328.3084
  22560162.326   -12942554.58249  -9325360.58349  22560162.1054   22560168.6364
 96  2 19 18  7 59.9940000  0  8 28 19 29 18 22 14 27 31
  22247854.947   -19581463.093 9 -15241767.895 9  22247855.556    22247861.754
  20178962.004   -19840670.41049 -15158090.29949  20178962.3274   20178967.2384
  19044072.689    -9612561.12449  -7479558.00949  19044073.0334   19044076.7124
  18873406.556   -15726774.47749 -12227098.62649  18873405.6904   18873410.6184
  21590571.196      543569.23149    424390.41349  21590569.5914   21590576.0144
  21251489.108     2669068.09249   2076560.94949  21251488.2924   21251494.9994
  22983640.722    -8408203.30249  -6520735.49249  22983640.9624   22983646.2674
  22528890.531   -13106882.95749  -9453408.68949  22528890.5664   22528897.5374
 96  2 19 18  8 29.9940000  0  8 28 19 29 18 22 14 27 31
  22222793.369   -19713165.448 9 -15344393.070 9  22222793.410    22222799.439
  20154142.367   -19971100.70849 -15259724.29149  20154142.2054   20154147.5304
  19034162.508    -9664638.58249  -7520137.85749  19034162.8334   19034166.6664
  18851473.511   -15842033.41349 -12316910.78349  18851472.7234   18851477.4984
  21594379.485      563583.64449    439986.03049  21594378.9344   21594384.6324
  21257146.213     2698804.88249   2099732.42849  21257146.1624   21257153.5374
  22953956.628    -8564194.07549  -6642286.68349  22953956.7274   22953963.6094
  22497614.055   -13271248.26449  -9581485.55649  22497613.1384   22497620.6244
 96  2 19 18  8 59.9940000  0  8 28 19 29 18 22 14 27 31
  22197778.338   -19844628.589 9 -15446831.842 9  22197776.834    22197783.430
  20129339.021   -20101441.58849 -15361288.60449  20129339.5384   20129344.5034
  19024306.731    -9716432.91749  -7560497.09649  19024306.7624   19024310.2854
  18829593.197   -15957015.06049 -12406506.87049  18829592.4304   18829597.0814
  21598211.594      583721.02449    455677.46349  21598210.8564   21598216.5984
  21262828.849     2728657.17049   2122993.91349  21262827.6494   21262833.9284
  22924270.858    -8720195.88049  -6763846.48449  22924271.6864   22924276.7984
  22466328.894   -13435651.77649  -9709592.19649  22466327.9794   22466335.6824
 96  2 19 18  9 29.9940000  0  8 28 19 29 18 22 14 27 31
  22172805.622   -19975854.061 9 -15549085.412 9  22172805.273    22172811.803
  20104552.662   -20231695.05449 -15462784.80449  20104552.8144   20104558.0614
  19014502.595    -9767954.58249  -7600643.86049  19014502.5184   19014506.2324
  18807765.594   -16071720.36849 -12495887.62849  18807764.8284   18807769.3984
  21602068.433      603986.76149    471468.90349  21602067.6634   21602072.9874
  21268525.042     2758597.46849   2146323.97549  21268525.3274   21268531.7404
  22894577.170    -8876241.59549  -6885440.49649  22894575.5564   22894581.2694
  22435032.876   -13600103.45149  -9837736.32449  22435033.8904   22435041.0034
 96  2 19 18  9 59.9940000  0  8 28 19 29 18 22 14 27 31
  22147881.258   -20106838.827 9 -15651151.425 9  22147879.857    22147886.377
  20079786.287   -20361845.76549 -15564200.92849  20079786.1404   20079791.4874
  19004752.480    -9819192.91749  -7640569.85049  19004752.1914   19004755.8954
  18785988.247   -16186162.05249 -12585062.97049  18785987.2024   18785991.8804
  21605952.517      624401.10049    487376.13849  21605951.5704   21605957.5904
  21274236.943     2788609.80949   2169710.17249  21274235.8214   21274242.4884
  22864875.297    -9032330.65049  -7007068.28849  22864874.7884   22864879.6214
  22403731.517   -13764595.66249  -9965912.03249  22403730.3544   22403739.5354
 96  2 19 18 10 29.9940000  0  8 28 19 29 18 22 14 27 31
  22123001.831   -20237576.362 9 -15753024.786 9  22123001.130    22123007.713
  20055040.083   -20491885.26549 -15665530.38549  20055040.3984   20055045.5234
  18995055.886    -9870146.72149  -7680274.12249  18995056.2404   18995059.9694
  18764259.674   -16300345.57249 -12674037.14249  18764258.9644   18764263.4994
  21609868.192      644975.23649    503407.89649  21609866.8474   21609872.8754
  21279961.280     2818693.77749   2193152.18049  21279961.7334   21279967.2214
  22835165.509    -9188451.41249  -7128720.78649  22835165.0044   22835170.9714
  22372424.801   -13929120.03649 -10094112.78249  22372424.5154   22372431.1614
 96  2 19 18 10 59.9940000  0  8 28 19 29 18 22 14 27 31
  22098171.362   -20368065.093 9 -15854704.275 9  22098169.952    22098176.725
  20030319.241   -20621796.49849 -15766759.89449  20030319.0574   20030324.3284
  18985411.964    -9920825.85949  -7719764.37249  18985412.1874   18985415.9904
  18742578.366   -16414281.30549 -12762818.23449  18742577.7074   18742582.3754
  21613816.285      665726.06349    519577.34049  21613815.9904   21613822.3774
  21285699.376     2848844.81849   2216646.44949  21285699.0664   21285705.3484
  22805451.686    -9344602.70049  -7250397.08249  22805450.3704   22805455.6344
  22341113.222   -14093658.25549 -10222324.30749  22341113.2984   22341120.4634
 96  2 19 18 11 29.9940000  0  8 28 19 29 18 22 14 27 31
  22073386.094   -20498304.507 9 -15956189.481 9  22073386.119    22073393.346
  20005622.798   -20751577.24949 -15867887.72749  20005622.7364   20005627.9064
  18975819.631    -9971230.12149  -7759040.42849  18975820.5144   18975824.4004
  18720943.750   -16527971.55749 -12851408.03949  18720943.2124   18720947.6624
  21617800.753      686663.22349    535891.97549  21617799.7534   21617805.4824
  21291450.666     2879066.71049   2240195.93349  21291450.2094   21291456.2574
  22775728.610    -9500790.42449  -7372101.78149  22775728.8274   22775734.2434
  22309800.267   -14258206.67349 -10350543.77049  22309800.6344   22309809.1464
 96  2 19 18 11 59.9940000  0  8 28 19 29 18 22 14 27 31
  22048649.542   -20628297.836 9 -16057482.934 9  22048649.483    22048656.047
  19980949.124   -20881237.73849 -15968921.85149  19980948.9354   19980954.4324
  18966280.881   -10021361.63449  -7798103.95349  18966280.5754   18966284.4094
  18699355.399   -16641420.07349 -12939809.48049  18699354.6344   18699359.3664
  21621814.583      707759.70749    552330.75649  21621814.5714   21621820.7014
  21297216.555     2909363.23749   2263803.57049  21297214.8324   21297221.3384
  22746000.587    -9657013.14349  -7493833.74049  22746000.5824   22746005.2314
  22278486.562   -14422768.23149 -10478773.46249  22278486.0804   22278493.5974
 96  2 19 18 12 29.9940000  0  8 28 19 29 18 22 14 27 31
  22023961.536   -20758039.828 9 -16158580.541 9  22023960.210    22023966.844
  19956297.117   -21010783.96849 -16069866.94549  19956296.8124   19956301.9264
  18956792.515   -10071222.97949  -7836956.95949  18956792.5214   18956796.3214
  18677814.557   -16754617.38249 -13028015.17549  18677813.9174   18677818.4554
  21625859.316      729006.84649    568886.93949  21625857.6534   21625864.1984
  21302998.787     2939751.21549   2287482.45649  21302998.0594   21303004.3194
  22716268.545    -9813262.35849  -7615586.33449  22716267.2254   22716272.9574
  22247166.755   -14587352.12049 -10607020.56749  22247167.8134   22247173.6694
 96  2 19 18 12 59.9940000  0  8 28 19 29 18 22 14 27 31
  21999321.023   -20887522.155 9 -16259475.810 9  21999320.611    21999327.259
  19931665.578   -21140224.28849 -16170729.51249  19931665.4234   19931670.5564
  18947358.921   -10120798.00649  -7875586.85949  18947358.5584   18947362.5884
  18656323.399   -16867553.81649 -13116017.59849  18656322.8844   18656327.6874
  21629928.716      750393.15349    585551.55249  21629927.5904   21629934.3134
  21308798.656     2970238.94449   2311239.07949  21308799.8474   21308805.9194
  22686531.716    -9969520.08049  -7737345.57749  22686531.6494   22686537.9914
  22215842.920   -14751959.84349 -10735286.22749  22215842.6364   22215850.6424
 96  2 19 18 13 29.9940000  0  8 28 19 29 18 22 14 27 31
  21974730.976   -21016740.804 9 -16360165.610 9  21974731.151    21974737.959
  19907052.703   -21269565.10449 -16271514.54149  19907053.1614   19907057.6804
  18937981.382   -10170073.98149  -7913983.73349  18937981.7994   18937985.5064
  18634883.977   -16980220.81049 -13203810.06849  18634883.0934   18634887.9504
  21634019.526      771890.74849    602302.88749  21634018.2814   21634024.9124
  21314620.256     3000824.81449   2335072.17549  21314619.8154   21314626.2874
  22656797.354   -10125780.50949  -7859106.93849  22656796.5434   22656801.8244
  22184514.131   -14916594.23849 -10863572.69249  22184513.8984   22184521.5564
 96  2 19 18 13 59.9940000  0  8 28 19 29 18 22 14 27 31
  21950194.121   -21145690.704 9 -16460645.999 9  21950192.690    21950199.553
  19882458.877   -21398804.99649 -16372220.92649  19882459.2544   19882463.7254
  18928661.457   -10219053.26249  -7952149.41349  18928661.3084   18928665.1244
  18613493.626   -17092626.39549 -13291398.84349  18613492.9614   18613497.5944
  21638130.624      793493.07049    619135.82649  21638129.5624   21638135.0474
  21320459.340     3031506.82749   2358980.17649  21320458.2304   21320465.1544
  22627063.109   -10282028.71549  -7980858.77549  22627063.4964   22627070.3434
  22153182.241   -15081242.93049 -10991870.29349  22153180.8664   22153189.3294
 96  2 19 18 14 29.9940000  0  8 28 19 29 18 22 14 27 31
  21925705.798   -21274378.594 9 -16560922.218 9  21925704.259    21925710.687
  19857884.594   -21527943.15549 -16472848.04449  19857884.8944   19857890.3354
  18919397.717   -10267734.34649  -7990082.73449  18919397.7404   18919401.3274
  18592151.796   -17204780.21849 -13378791.43849  18592150.8844   18592155.6674
  21642258.013      815186.54649    636039.80749  21642257.2034   21642263.4594
  21326312.424     3062268.74249   2382950.44349  21326312.4794   21326318.1984
  22597331.374   -10438275.50549  -8102609.47949  22597330.6564   22597336.6994
  22121847.382   -15245905.12949 -11120178.40649  22121847.9184   22121856.2274
 96  2 19 18 14 59.9940000  0  8 28 19 29 18 22 14 27 31
  21901267.289   -21402795.605 9 -16660987.368 9  21901267.254    21901273.449
  19833330.133   -21656980.27149 -16573396.42449  19833330.0314   19833334.8254
  18910193.415   -10316101.51049  -8027771.44049  18910193.7034   18910197.0764
  18570858.592   -17316675.64549 -13465982.68349  18570857.9324   18570862.3514
  21646404.649      836977.50549    653019.73549  21646404.3514   21646410.4314
  21332179.728     3093101.16349   2406975.66149  21332179.5904   21332185.9144
  22567595.462   -10594539.35249  -8224373.51249  22567595.2744   22567599.5044
  22090513.824   -15410564.22649 -11248484.13349  22090512.7254   22090522.0574
 96  2 19 18 15 29.9940000  0  8 28 19 29 18 22 14 27 31
  21876881.424   -21530945.495 9 -16760844.379 9  21876881.251    21876887.414
  19808795.760   -21785909.85449 -16673861.02849  19808795.3024   19808800.7584
  18901047.242   -10364168.13449  -8065225.95749  18901047.1054   18901050.6644
  18549615.362   -17428311.35149 -13552971.55149  18549614.4914   18549619.2104
  21650572.810      858880.06149    670086.61049  21650572.0424   21650578.1904
  21338057.134     3123982.60549   2431039.06149  21338056.5714   21338062.3464
  22537851.273   -10750849.19249  -8346173.37749  22537851.3424   22537855.7874
  22059181.266   -15575218.70549 -11376786.26549  22059180.7604   22059189.5074
 96  2 19 18 15 59.9940000  0  8 28 19 29 18 22 14 27 31
  21852547.872   -21658828.409 9 -16860493.367 9  21852545.621    21852552.082
  19784280.935   -21914734.06049 -16774243.50849  19784280.9174   19784286.1684
  18891955.602   -10411939.77149  -8102450.61349  18891956.5944   18891960.0854
  18528420.675   -17539686.64849 -13639757.49749  18528420.2184   18528425.1114
  21654765.549      880908.19449    687251.37549  21654764.2604   21654770.4044
  21343939.502     3154894.70549   2455126.35249  21343939.0334   21343943.7824
  22508096.785   -10907213.13449  -8468015.39449  22508096.6554   22508100.3684
  22027848.718   -15739873.58149 -11505088.71649  22027848.3444   22027855.8594
 96  2 19 18 16 29.9930000  0  8 28 19 29 18 22 14 27 31
  21828262.639   -21786439.865 9 -16959930.835 9  21828261.835    21828267.809
  19759786.951   -22043451.93149 -16874543.13349  19759786.6674   19759792.1344
  18882922.067   -10459417.04449  -8139445.89749  18882921.8784   18882925.3924
  18507278.932   -17650789.92949 -13726331.48949  18507277.9734   18507282.7254
  21658982.621      903069.27949    704519.73049  21658981.2664   21658987.1454
  21349827.237     3185835.55449   2479236.05249  21349826.9574   21349832.0204
  22478328.397   -11063639.69949  -8589906.20549  22478328.4744   22478333.2564
  21996515.099   -15904531.32349 -11633393.42249  21996513.7394   21996521.3074
 96  2 19 18 16 59.9930000  0  8 28 19 29 18 22 14 27 31
  21804028.702   -21913786.165 9 -17059161.698 9  21804028.873    21804034.960
  19735308.912   -22172085.89849 -16974777.37749  19735308.5394   19735313.9324
  18873939.715   -10506618.75949  -8176226.46349  18873939.3474   18873943.1144
  18486189.265   -17761616.34149 -13812689.73449  18486188.3164   18486193.0974
  21663226.526      925371.05949    721897.69849  21663225.2654   21663231.4674
  21355722.243     3216809.73149   2503371.71449  21355721.9524   21355726.0674
  22448548.150   -11220130.75649  -8711847.27149  22448549.2814   22448553.8644
  21965180.150   -16069197.81149 -11761704.95549  21965179.1484   21965186.4074
 96  2 19 18 17 29.9930000  0  8 28 19 29 18 22 14 27 31
  21779846.888   -22040864.577 9 -17158183.813 9  21779846.371    21779852.704
  19710848.018   -22300627.00349 -17074939.27349  19710847.8784   19710853.1864
  18865005.927   -10553560.95149  -8212804.80349  18865006.4934   18865010.5364
  18465153.292   -17872160.01249 -13898827.66349  18465152.4834   18465157.4824
  21667494.526      947803.31649    739377.37049  21667492.7824   21667499.9014
  21361621.792     3247813.65749   2527530.55349  21361621.3034   21361627.3354
  22418763.204   -11376658.29949  -8833816.74749  22418763.1884   22418768.5044
  21933843.965   -16233871.19349 -11890021.84049  21933843.2444   21933850.9374
 96  2 19 18 17 59.9930000  0  8 28 19 29 18 22 14 27 31
  21755716.941   -22167674.347 9 -17256996.611 9  21755715.303    21755721.725
  19686403.094   -22429085.29849 -17175036.63349  19686403.2994   19686408.7194
  18856123.324   -10600244.12949  -8249181.31049  18856123.0884   18856126.7984
  18444170.676   -17982422.74049 -13984746.67449  18444170.1944   18444175.1274
  21671783.986      970342.81949    756940.61849  21671782.6744   21671788.9344
  21367531.009     3278866.30549   2551727.36149  21367530.0164   21367535.9934
  22388972.450   -11533210.98549  -8955805.80749  22388971.8084   22388976.1744
  21902506.898   -16398549.66049 -12018342.66249  21902506.4094   21902513.3044
 96  2 19 18 18 29.9930000  0  8 28 19 29 18 22 14 27 31
  21731639.377   -22294202.628 9 -17355590.067 9  21731637.937    21731644.055
  19661975.688   -22557453.57949 -17275063.85449  19661975.3994   19661980.7914
  18847289.751   -10646665.54249  -8285353.85149  18847289.4204   18847293.0384
  18423243.718   -18092396.40549 -14070440.44049  18423242.8944   18423248.0004
  21676091.569      992983.99549    774583.06549  21676091.0344   21676097.6704
  21373452.031     3309987.97549   2575977.95049  21373452.6234   21373458.5614
  22359179.511   -11689769.62249  -9077799.49849  22359180.1074   22359184.7724
  21871173.255   -16563213.15149 -12146651.83249  21871172.1294   21871179.7804
 96  2 19 18 18 59.9930000  0  8 28 19 29 18 22 14 27 31
  21707615.941   -22420442.495 9 -17453958.791 9  21707615.357    21707621.707
  19637565.406   -22685728.60449 -17375018.40749  19637565.4834   19637570.6474
  18838507.875   -10692813.10049  -8321312.99749  18838507.8844   18838511.5774
  18402372.355   -18202074.85249 -14155904.16249  18402371.7824   18402376.8484
  21680415.890     1015703.96449    792286.90849  21680415.4454   21680421.1254
  21379387.609     3341172.20049   2600277.28849  21379386.4784   21379392.6124
  22329389.300   -11846320.90849  -9199787.45949  22329389.3314   22329394.7534
  21839843.731   -16727847.85649 -12274938.55849  21839842.3064   21839850.0154
 96  2 19 18 19 29.9930000  0  8 28 19 29 18 22 14 27 31
  21683648.504   -22546392.289 9 -17552101.477 9  21683647.921    21683654.353
  19613173.918   -22813906.15049 -17474896.99249  19613174.2414   19613179.2134
  18829779.903   -10738675.73249  -8357050.12449  18829780.3944   18829784.2524
  18381554.755   -18311471.42749 -14241148.24449  18381554.1154   18381559.1044
  21684753.119     1038496.60049    810047.37549  21684752.1744   21684758.3164
  21385329.770     3372409.04949   2624617.62849  21385331.0754   21385336.5184
  22299598.664   -12002871.09249  -9321774.55049  22299598.0814   22299603.5004
  21808517.684   -16892464.53849 -12403211.22149  21808518.1664   21808525.9214
 96  2 19 18 19 59.9930000  0  8 28 19 29 18 22 14 27 31
  21659736.749   -22672050.729 9 -17650017.135 9  21659735.917    21659742.573
  19588800.091   -22941992.59349 -17574704.59349  19588800.2404   19588805.0114
  18821109.838   -10784238.13249  -8392553.30549  18821110.2684   18821113.8644
  18360791.140   -18420586.38049 -14326172.88349  18360790.4984   18360795.3694
  21689101.727     1061348.98449    827854.42149  21689100.8884   21689107.3274
  21391283.235     3403692.89149   2648994.58349  21391285.0944   21391289.7624
  22269806.082   -12159431.91849  -9443769.94249  22269806.4464   22269810.4974
  21777198.370   -17057050.71549 -12531460.13549  21777197.5474   21777204.5284
 96  2 19 18 20 29.9930000  0  8 28 19 29 18 22 14 27 31
  21635879.910   -22797416.302 9 -17747704.580 9  21635879.674    21635886.120
  19564444.491   -23069981.48449 -17674436.16749  19564444.5194   19564449.8004
  18812497.571   -10829496.21649  -8427819.35749  18812497.8144   18812501.8034
  18340080.975   -18529420.00049 -14410978.29749  18340080.1994   18340085.1984
  21693462.715     1084265.09349    845711.09549  21693461.7314   21693468.6404
  21397241.181     3434995.49049   2673386.16149  21397241.0864   21397246.7044
  22240010.911   -12316008.63649  -9565777.71849  22240009.9954   22240015.4644
  21745884.976   -17221600.12449 -12659680.36049  21745884.1674   21745893.3874
 96  2 19 18 20 59.9930000  0  8 28 19 29 18 22 14 27 31
  21612080.653   -22922485.769 9 -17845161.297 9  21612079.784    21612086.510
  19540108.581   -23197867.85449 -17774087.86549  19540109.2104   19540113.7194
  18803944.175   -10874446.54749  -8462845.60749  18803944.1874   18803948.0454
  18319426.240   -18637961.59349 -14495556.16149  18319425.4964   18319430.6494
  21697839.622     1107265.05949    863633.12249  21697838.5764   21697844.3704
  21403198.634     3466307.50349   2697785.06349  21403199.7904   21403205.3034
  22210209.157   -12472610.71849  -9687805.24349  22210210.2284   22210214.9694
  21714579.134   -17386112.16049 -12787871.48749  21714578.7684   21714586.4494
 96  2 19 18 21 29.9930000  0  8 28 19 29 18 22 14 27 31
  21588337.532   -23047255.368 9 -17942384.343 9  21588336.601    21588343.517
  19515793.854   -23325642.24649 -17873652.29949  19515794.2984   19515799.4194
  18795448.047   -10919096.88049  -8497638.09649  18795447.6634   18795451.2434
  18298826.506   -18746213.18049 -14579908.04649  18298825.8014   18298830.7294
  21702236.526     1130372.59349    881638.96849  21702235.4734   21702242.0524
  21409162.960     3497635.45049   2722196.38949  21409161.4454   21409166.6084
  22180403.790   -12629241.28249  -9809854.99249  22180403.3954   22180408.9694
  21683281.847   -17550586.50249 -12916033.24349  21683279.5374   21683287.1334
 96  2 19 18 21 59.9930000  0  8 28 19 29 18 22 14 27 31
  21564651.043   -23171724.345 9 -18039373.141 9  21564650.803    21564657.483
  19491501.072   -23453300.98949 -17973126.62249  19491501.6194   19491506.5644
  18787005.036   -10963461.42149  -8532207.88649  18787005.2494   18787009.0644
  18278283.609   -18854166.78349 -14664027.73749  18278282.9404   18278287.9154
  21706653.711     1153585.69649    899727.08149  21706652.1594   21706659.5124
  21415127.337     3528984.04049   2746623.79749  21415126.6084   21415131.8654
  22150592.280   -12785904.99649  -9931930.56749  22150592.0574   22150597.2514
  21651993.824   -17715009.02449 -13044154.61449  21651992.3164   21651999.6674
 96  2 19 18 22 29.9930000  0  8 28 19 29 18 22 14 27 31
  21541023.293   -23295891.822 9 -18136126.995 9  21541022.653    21541029.690
  19467230.914   -23580840.94449 -18072508.37849  19467231.3334   19467236.4324
  18778613.769   -11007555.66449  -8566567.05549  18778614.2404   18778618.1424
  18257796.212   -18961828.43349 -14747919.93049  18257795.6584   18257800.6064
  21711093.907     1176915.18449    917905.85649  21711092.5754   21711099.0234
  21421095.414     3560351.49249   2771065.89749  21421096.1534   21421101.7554
  22120771.921   -12942608.63049 -10054037.24849  22120771.7704   22120777.1334
  21620714.210   -17879384.61549 -13172239.42449  21620713.1624   21620719.6914
 96  2 19 18 22 59.9930000  0  8 28 19 29 18 22 14 27 31
  21517454.166   -23419751.914 9 -18232641.326 9  21517452.969    21517459.460
  19442983.557   -23708262.94949 -18171798.23649  19442983.4184   19442988.8424
  18770274.670   -11051379.49849  -8600715.51449  18770274.6774   18770278.9034
  18237365.287   -19069195.08849 -14831582.25949  18237364.5604   18237369.6754
  21715556.272     1200362.60049    936176.53749  21715555.0354   21715560.7124
  21427071.325     3591747.81149   2795530.49249  21427070.1614   21427075.4334
  22090943.446   -13099355.52549 -10176177.63649  22090943.9984   22090948.7044
  21589442.777   -18043710.80549 -13300285.73249  21589442.2694   21589450.2544
 96  2 19 18 23 29.9930000  0  8 28 19 29 18 22 14 27 31
  21493942.354   -23543308.645 9 -18328919.267 9  21493941.120    21493947.711
  19418756.356   -23835578.34049 -18271005.01449  19418756.3734   19418761.4944
  18761987.495   -11094930.81149  -8634651.61749  18761987.4224   18761991.5504
  18216987.703   -19176280.00749 -14915025.05249  18216986.7694   18216991.6864
  21720033.977     1223896.20149    954514.37049  21720032.9444   21720038.3634
  21433048.745     3623168.58849   2820014.15449  21433049.4714   21433054.4114
  22061108.292   -13256147.60049 -10298353.28049  22061107.7474   22061112.5444
  21558180.474   -18207994.99849 -13428299.34949  21558179.5984   21558186.8184
 96  2 19 18 23 59.9930000  0  8 28 19 29 18 22 14 27 31
  21470489.385   -23666553.609 9 -18424954.274 9  21470488.464    21470494.729
  19394548.983   -23962786.99049 -18370128.62049  19394549.0824   19394554.4514
  18753754.097   -11138196.25349  -8668364.96449  18753754.4064   18753758.4264
  18196667.364   -19283063.92749 -14998233.30549  18196666.6104   18196671.3804
  21724527.055     1247510.25249    972914.88849  21724526.2654   21724532.3374
  21439032.185     3654609.52249   2844513.50749  21439032.9264   21439037.9244
  22031262.252   -13412982.19749 -10420562.03349  22031262.8004   22031267.3234
  21526930.076   -18372222.88849 -13556269.07949  21526928.4874   21526935.3294
 96  2 19 18 24 29.9930000  0  8 28 19 29 18 22 14 27 31
  21447095.326   -23789484.385 9 -18520744.463 9  21447095.359    21447101.850
  19370360.666   -24089897.37049 -18469175.65549  19370360.9954   19370366.3714
  18745577.577   -11181163.82649  -8701846.20449  18745577.7614   18745581.6384
  18176403.582   -19389550.58749 -15081209.92449  18176402.9474   18176407.8314
  21729036.102     1271204.65749    991378.02449  21729035.7144   21729041.5674
  21445014.668     3686053.91449   2869015.56449  21445016.5294   21445021.7594
  22001411.436   -13569853.36449 -10542799.28349  22001411.2604   22001415.9654
  21495686.265   -18536401.26249 -13684200.22449  21495686.3314   21495693.0454
 96  2 19 18 24 59.9930000  0  8 28 19 29 18 22 14 27 31
  21423763.690   -23912095.244 9 -18616285.369 9  21423763.393    21423769.679
  19346190.840   -24216911.13949 -18568147.42049  19346190.9014   19346196.0714
  18737459.036   -11223827.73249  -8735090.82649  18737459.1504   18737463.1774
  18156200.251   -19495719.71949 -15163939.12249  18156199.5004   18156204.4254
  21733560.932     1294980.56349   1009904.66449  21733560.2054   21733565.7314
  21451000.696     3717495.45049   2893515.38749  21451000.3374   21451004.3204
  21971556.026   -13726738.92349 -10665047.72849  21971556.5984   21971561.5364
  21464454.022   -18700535.41649 -13812096.91149  21464452.2514   21464460.3534
 96  2 19 18 25 29.9930000  0  8 28 19 29 18 22 14 27 31
  21400493.663   -24034383.617 9 -18711574.986 9  21400492.490    21400498.671
  19322038.281   -24343832.64649 -18667047.28249  19322038.4394   19322044.1194
  18729396.077   -11266198.48149  -8768107.00849  18729396.4814   18729400.3484
  18136059.052   -19601560.78349 -15246412.67749  18136058.4594   18136063.5864
  21738100.821     1318835.71449   1028493.06049  21738099.6124   21738105.7094
  21456983.652     3748934.60049   2918013.35049  21456982.6474   21456987.4324
  21941703.294   -13883627.25349 -10787298.35649  21941702.4184   21941707.7284
  21433227.850   -18864625.08249 -13939958.95749  21433226.2724   21433234.7364
 96  2 19 18 25 59.9930000  0  8 28 19 29 18 22 14 27 31
  21377286.145   -24156337.206 9 -18806603.735 9  21377285.545    21377291.818
  19297906.487   -24470645.32849 -18765862.35949  19297906.7414   19297912.3074
  18721389.422   -11308274.22649  -8800893.32149  18721389.8804   18721393.4124
  18115982.637   -19707063.51649 -15328622.59949  18115982.0734   18115987.1434
  21742659.429     1342791.03949   1047159.51949  21742658.8144   21742664.1214
  21462963.756     3780369.11349   2942507.70649  21462964.0044   21462969.7444
  21911848.521   -14040509.17349 -10909543.98549  21911849.2774   21911853.2634
  21402015.052   -19028651.82349 -14067771.97149  21402015.4234   21402020.5584
 96  2 19 18 26 29.9920000  0  8 28 19 29 18 22 14 27 31
  21354144.589   -24277949.516 9 -18901366.560 9  21354143.472    21354149.843
  19273797.212   -24597342.02049 -18864587.04749  19273797.4364   19273802.3484
  18713440.119   -11350050.34849  -8833446.16149  18713440.0974   18713443.9784
  18095969.024   -19812236.29349 -15410575.41149  18095968.5554   18095973.5224
  21747235.899     1366838.71549   1065897.94049  21747234.7444   21747240.2044
  21468944.408     3811799.79849   2966999.07649  21468945.2204   21468950.4844
  21881997.465   -14197371.65949 -11031774.46149  21881998.1894   21882003.5094
  21370816.046   -19192606.54949 -14195528.87849  21370814.2724   21370822.8504
 96  2 19 18 26 59.9920000  0  8 28 19 29 18 22 14 27 31
  21331066.281   -24399223.258 9 -18995865.563 9  21331065.878    21331072.173
  19249710.477   -24723918.98149 -18963218.44249  19249710.7064   19249715.5554
  18705545.847   -11391533.20149  -8865770.47749  18705546.1884   18705550.1724
  18076018.114   -19917079.48449 -15492271.40849  18076017.4114   18076022.2844
  21751827.850     1390976.82949   1084706.82549  21751827.0804   21751833.6544
  21474928.537     3843233.78849   2991493.01649  21474927.0474   21474932.7104
  21852150.136   -14354222.78249 -11153996.07349  21852150.5074   21852155.7884
  21339630.999   -19356480.09849 -14323222.52049  21339630.2694   21339636.3384
 96  2 19 18 27 29.9920000  0  8 28 19 29 18 22 14 27 31
  21308054.398   -24520151.207 9 -19090095.120 9  21308053.869    21308060.067
  19225648.109   -24850368.15049 -19061750.24949  19225648.2934   19225653.1994
  18697711.247   -11432704.88849  -8897852.32849  18697711.3134   18697715.1864
  18056127.797   -20021603.11249 -15573718.39449  18056127.1844   18056131.9774
  21756434.033     1415178.74749   1103565.42549  21756433.1834   21756438.8674
  21480912.218     3874674.34649   3015992.07949  21480909.2204   21480915.5674
  21822302.686   -14511076.89149 -11276220.03149  21822302.4864   21822307.2234
  21308469.663   -19520232.46849 -14450821.73549  21308469.6024   21308476.4794
 96  2 19 18 27 59.9920000  0  8 28 19 29 18 22 14 27 31
  21285109.129   -24640730.097 9 -19184052.685 9  21285108.513    21285114.831
  19201611.315   -24976681.15549 -19160175.95649  19201611.2984   19201616.8814
  18689939.279   -11473547.95849  -8929678.11149  18689939.3004   18689943.1954
  18036296.721   -20125816.00549 -15654923.24549  18036296.1904   18036300.7874
  21761047.840     1439427.31049   1122460.39449  21761047.2284   21761053.6654
  21486892.572     3906112.44849   3040489.22649  21486892.5074   21486897.9714
  21792452.434   -14667931.99349 -11398444.75749  21792452.6644   21792458.9724
  21277334.336   -19683851.02549 -14578316.67549  21277333.9124   21277339.6184
 96  2 19 18 28 29.9920000  0  8 28 19 29 18 22 14 27 31
  21262232.593   -24760949.672 9 -19277730.269 9  21262231.805    21262237.853
  19177599.657   -25102863.35249 -19258499.73149  19177599.9334   19177605.0124
  18682232.531   -11514046.12849  -8961235.14549  18682232.7394   18682236.7974
  18016527.685   -20229702.41349 -15735873.69449  18016527.4204   18016532.2644
  21765671.871     1463725.10949   1141393.70849  21765671.2114   21765676.0334
  21492875.962     3937556.07949   3064990.68249  21492875.6444   21492880.9594
  21762606.211   -14824779.30249 -11520663.40949  21762605.9694   21762611.7704
  21246227.207   -19847316.70549 -14705692.49649  21246227.6774   21246233.1144
 96  2 19 18 28 59.9920000  0  8 28 19 29 18 22 14 27 31
  21239423.204   -24880808.576 9 -19371126.806 9  21239423.269    21239429.334
  19153612.054   -25228920.08849 -19356725.74449  19153612.1314   19153617.3914
  18674590.475   -11554206.98849  -8992529.33649  18674590.2624   18674594.1624
  17996823.736   -20333247.66249 -15816558.30449  17996823.4714   17996828.0564
  21770304.294     1488067.09349   1160361.45949  21770303.0624   21770309.0574
  21498859.527     3968996.48249   3089489.62349  21498859.0464   21498864.3724
  21732759.251   -14981628.40749 -11642883.46849  21732759.4444   21732764.7654
  21215149.899   -20010632.42949 -14832951.44649  21215149.0564   21215157.5244
 96  2 19 18 29 29.9920000  0  8 28 19 29 18 22 14 27 31
  21216684.744   -25000301.719 9 -19464238.339 9  21216684.520    21216690.979
  19129647.872   -25354851.75549 -19454854.29349  19129648.2714   19129653.1844
  18667012.147   -11594028.16849  -9023558.84349  18667012.7114   18667016.5274
  17977185.208   -20436450.21249 -15896975.87649  17977184.6634   17977189.5214
  21774944.732     1512455.36849   1179365.27649  21774943.9124   21774950.0184
  21504842.861     4000443.30949   3113993.57049  21504843.7634   21504848.7664
  21702911.163   -15138478.98049 -11765104.63549  21702911.6614   21702917.0404
  21184096.790   -20173810.95049 -14960103.48749  21184096.8224   21184104.4044
 96  2 19 18 29 59.9920000  0  8 28 19 29 18 22 14 27 31
  21194017.347   -25119428.527 9 -19557064.416 9  21194015.450    21194021.453
  19105707.039   -25480659.98049 -19552886.65749  19105707.4194   19105712.4314
  18659495.667   -11633527.51549  -9054337.57049  18659495.8744   18659499.9024
  17957611.019   -20539312.54549 -15977128.34749  17957610.5694   17957615.2134
  21779598.808     1536913.59649   1198423.59049  21779598.2964   21779603.9134
  21510826.359     4031891.16949   3138498.31449  21510828.2874   21510833.2964
  21673064.899   -15295326.86049 -11887323.71449  21673064.6364   21673068.8314
  21153065.768   -20336882.13049 -15087171.89449  21153066.1404   21153072.9484
 96  2 19 18 30 29.9920000  0  8 28 19 29 18 22 14 27 31
  21171417.392   -25238180.720 9 -19649598.582 9  21171417.579    21171424.058
  19081791.595   -25606336.13049 -19650816.10849  19081792.0514   19081797.4614
  18652040.570   -11672711.51349  -9084870.56949  18652039.5494   18652043.7064
  17938102.731   -20641829.20849 -16057011.46249  17938102.2374   17938107.0694
  21784268.907     1561456.11449   1217547.60249  21784268.6654   21784274.7754
  21516815.993     4063359.18649   3163018.76249  21516815.9234   21516821.8144
  21643219.199   -15452168.96349 -12009538.29649  21643218.5974   21643224.3374
  21122054.524   -20499852.21349 -15214161.51749  21122053.4824   21122060.7804
 96  2 19 18 30 59.9920000  0  8 28 19 29 18 22 14 27 31
  21148892.749   -25356552.946 9 -19741836.672 9  21148892.090    21148898.068
  19057905.891   -25731856.71549 -19748624.33949  19057906.1774   19057911.3864
  18644641.966   -11711580.62449  -9115158.19949  18644642.9724   18644647.0834
  17918660.786   -20743997.92349 -16136623.44849  17918660.3284   17918664.9874
  21788953.754     1586075.94549   1236731.84549  21788953.9114   21788960.4664
  21522811.912     4094856.66049   3187562.16349  21522810.0554   21522815.6704
  21613373.535   -15609000.50449 -12131744.65749  21613373.9364   21613379.2234
  21091058.256   -20662730.71149 -15341079.77149  21091058.2794   21091066.4374
 96  2 19 18 31 29.9920000  0  8 28 19 29 18 22 14 27 31
  21126439.662   -25474545.403 9 -19833778.834 9  21126438.679    21126445.275
  19034048.892   -25857226.80949 -19846315.31049  19034049.0664   19034054.5224
  18637308.031   -11750128.32949  -9145195.38649  18637307.6734   18637311.5894
  17899283.019   -20845828.77749 -16215972.16949  17899282.2324   17899286.8884
  21793654.877     1610778.03949   1255980.18349  21793653.7194   21793660.6024
  21528805.893     4126377.87549   3212124.06749  21528808.6194   21528813.7274
  21583531.040   -15765822.16349 -12253943.30049  21583532.2404   21583536.7074
  21060081.521   -20825518.66949 -15467927.47549  21060080.8464   21060089.2614
 96  2 19 18 31 59.9920000  0  8 28 19 29 18 22 14 27 31
  21104057.796   -25592154.874 9 -19925422.563 9  21104058.355    21104065.027
  19010220.513   -25982446.38749 -19943888.99049  19010220.7144   19010226.0954
  18630034.018   -11788346.39649  -9174975.70849  18630034.9184   18630039.1094
  17879972.078   -20947308.09449 -16295046.96249  17879971.4984   17879976.2644
  21798370.958     1635558.40449   1275289.51349  21798369.6134   21798375.7454
  21534809.750     4157915.76749   3236698.96949  21534809.2084   21534815.5514
  21553691.523   -15922634.48849 -12376134.69149  21553691.4694   21553696.5464
  21029125.591   -20988194.31249 -15594687.66249  21029124.6534   21029131.5794
 96  2 19 18 32 29.9920000  0  8 28 19 29 18 22 14 27 31
  21081753.240   -25709374.709 9 -20016762.679 9  21081752.040    21081758.801
  18986422.145   -26107505.52649 -20041337.66249  18986422.6104   18986427.7794
  18622828.119   -11826220.23549  -9204487.80849  18622827.7554   18622831.6024
  17860731.589   -21048416.56149 -16373832.78449  17860731.2234   17860736.0074
  21803100.532     1660410.67049   1294654.87349  21803099.3344   21803104.8634
  21540814.501     4189467.61049   3261284.73549  21540814.0274   21540819.4454
  21523853.696   -16079435.21949 -12498317.05049  21523853.2484   21523858.2824
  20998196.654   -21150725.32949 -15721335.14949  20998195.9154   20998203.3804
 96  2 19 18 32 59.9920000  0  8 28 19 29 18 22 14 27 31
  21059521.828   -25826198.857 9 -20107794.472 9  21059521.289    21059527.597
  18962653.949   -26232409.91949 -20138665.75049  18962654.3914   18962659.3434
  18615689.156   -11863737.46549  -9233722.03149  18615688.6454   18615692.5924
  17841564.223   -21149143.98849 -16452321.69249  17841563.7374   17841568.5834
  21807844.946     1685342.62349   1314082.32249  21807843.7874   21807849.6124
  21546818.332     4221018.04749   3285869.40749  21546817.7554   21546823.1654
  21494016.347   -16236227.23949 -12620492.61849  21494017.2004   21494021.7444
  20967299.438   -21313089.45349 -15847852.60449  20967299.4554   20967307.1284
 96  2 19 18 33 29.9920000  0  8 28 19 29 18 22 14 27 31
  21037368.011   -25942625.483 9 -20198516.517 9  21037366.162    21037372.692
  18938911.058   -26357178.81249 -20235888.26049  18938911.3114   18938916.8364
  18608615.937   -11900904.36149  -9262683.27149  18608616.3294   18608619.8914
  17822468.466   -21249492.99249 -16530515.72549  17822467.8384   17822472.5644
  21812607.449     1710362.47149   1333578.26549  21812605.0064   21812610.4264
  21552817.935     4252554.06249   3310442.83449  21552819.2284   21552824.1354
  21464181.233   -16393009.90249 -12742660.89949  21464182.3574   21464187.1834
  20936437.503   -21475269.19649 -15974226.38749  20936437.7844   20936444.5214
 96  2 19 18 33 59.9920000  0  8 28 19 29 18 22 14 27 31
  21015287.801   -26058653.723 9 -20288928.135 9  21015286.566    21015293.235
  18915196.143   -26481802.17849 -20332997.36749  18915196.4694   18915201.6634
  18601606.822   -11937735.71749  -9291383.04849  18601607.3994   18601611.1004
  17803446.099   -21349455.10349 -16608408.27649  17803445.6074   17803450.4294
  21817383.503     1735463.76549   1353137.66449  21817381.5284   21817387.1914
  21558815.825     4284071.44849   3335001.74249  21558816.9254   21558821.4724
  21434352.228   -16549770.26149 -12864811.79949  21434351.0414   21434356.2754
  20905612.805   -21637257.46449 -16100450.98249  20905611.6614   20905619.6214
 96  2 19 18 34 29.9920000  0  8 28 19 29 18 22 14 27 31
  20993282.789   -26174281.808 9 -20379027.954 9  20993283.303    20993289.997
  18891507.197   -26606289.07349 -20430000.13949  18891507.2974   18891512.2484
  18594660.208   -11974243.80349  -9319830.93349  18594660.3864   18594664.0504
  17784495.086   -21449044.16349 -16686010.14549  17784494.5424   17784499.1614
  21822173.712     1760634.96649   1372751.54649  21822172.1114   21822176.9234
  21564809.118     4315551.79849   3359531.78949  21564806.6054   21564812.6004
  21404526.327   -16706506.47849 -12986943.90349  21404526.2234   21404531.3924
  20874821.454   -21799066.02949 -16226535.54349  20874821.8604   20874828.4414
 96  2 19 18 34 59.9920000  0  8 28 19 29 18 22 14 27 31
  20971355.876   -26289515.812 9 -20468820.695 9  20971355.001    20971361.733
  18867840.022   -26730662.13749 -20526914.20349  18867840.1064   18867845.1324
  18587770.669   -12010447.75449  -9348041.82749  18587771.1224   18587774.8154
  17765612.615   -21548270.17549 -16763329.11549  17765612.3084   17765617.0304
  21826972.813     1785857.67249   1392405.56449  21826970.9064   21826977.0044
  21570790.780     4346986.53049   3384026.29549  21570789.2484   21570794.4224
  21374705.018   -16863212.79149 -13109052.69149  21374705.9614   21374710.7854
  20844060.968   -21960710.29749 -16352492.06949  20844060.6874   20844068.2804
 96  2 19 18 35 29.9920000  0  8 28 19 29 18 22 14 27 31
  20949503.603   -26404344.422 9 -20558297.540 9  20949503.716    20949510.709
  18844197.041   -26854904.26449 -20623726.23849  18844197.3424   18844202.3494
  18580940.969   -12046340.77749  -9376010.43649  18580940.8664   18580944.6544
  17746802.828   -21647115.20049 -16840351.21149  17746802.6704   17746807.5494
  21831782.663     1811136.40449   1412103.23849  21831781.8184   21831787.3674
  21576767.590     4378393.89449   3408499.46849  21576765.7764   21576771.3554
  21344894.741   -17019872.29049 -13231125.00349  21344894.2124   21344898.8044
  20813333.671   -22122185.47149 -16478316.83849  20813333.3034   20813340.4934
 96  2 19 18 35 59.9920000  0  8 28 19 29 18 22 14 27 31
  20927731.778   -26518757.964 9 -20647450.964 9  20927731.773    20927738.361
  18820583.364   -26978995.97049 -20720421.06249  18820583.7954   18820588.8724
  18574173.035   -12081908.02949  -9403725.20449  18574172.7064   18574176.4634
  17728066.734   -21745574.80749 -16917072.98049  17728066.4674   17728071.1944
  21836603.689     1836471.73549   1431845.02249  21836602.7344   21836608.4064
  21582740.545     4409793.51649   3432966.60449  21582741.4784   21582746.5324
  21315091.954   -17176489.08149 -13353164.04749  21315091.0344   21315095.7694
  20782638.475   -22283492.05949 -16604010.23749  20782638.7394   20782644.6564
 96  2 19 18 36 29.9910000  0  8 28 19 29 18 22 14 27 31
  20906040.212   -26632751.793 9 -20736277.330 9  20906039.534    20906046.082
  18796998.183   -27102937.47349 -20816998.84349  18796998.4124   18797003.6104
  18567468.108   -12117139.03549  -9431177.96049  18567468.3594   18567472.1024
  17709402.319   -21843656.79449 -16993500.49749  17709401.9694   17709406.8314
  21841433.756     1861856.28049   1451625.15049  21841433.4784   21841439.5134
  21588713.356     4441188.53949   3457430.16649  21588715.6094   21588720.8454
  21285293.358   -17333074.15549 -13475178.36349  21285293.8384   21285298.7364
  20751975.749   -22444626.73649 -16729569.69749  20751975.5824   20751981.1834
 96  2 19 18 36 59.9910000  0  8 28 19 29 18 22 14 27 31
  20884428.174   -26746322.784 9 -20824774.212 9  20884427.677    20884434.237
  18773442.806   -27226721.57349 -20913453.96449  18773443.0594   18773448.3694
  18560830.562   -12152017.03249  -9458355.64349  18560831.3144   18560835.1314
  17690813.758   -21941342.02549 -17069618.85549  17690813.2404   17690817.9404
  21846279.962     1887320.76949   1471467.56649  21846279.3714   21846284.6004
  21594697.928     4472617.14949   3481919.89949  21594696.1594   21594701.5964
  21255502.249   -17489629.17749 -13597169.27149  21255502.5804   21255507.7794
  20721345.605   -22605582.95849 -16854990.07149  20721346.0034   20721351.9704
 96  2 19 18 37 29.9910000  0  8 28 19 29 18 22 14 27 31
  20862899.025   -26859463.459 9 -20912935.778 9  20862898.033    20862904.297
  18749919.595   -27350338.11449 -21009778.51849  18749919.4694   18749924.6624
  18554264.773   -12186523.98649  -9485244.20349  18554264.9154   18554268.6424
  17672301.175   -22038624.95849 -17145423.72949  17672300.9534   17672305.8784
  21851142.231     1912872.16549   1491377.70849  21851140.8144   21851147.1564
  21600685.202     4504080.05849   3506436.34849  21600683.4454   21600689.3984
  21225714.678   -17646163.06049 -13719143.70349  21225714.6954   21225719.6714
  20690750.813   -22766357.81049 -16980269.12449  20690750.7064   20690757.9534
 96  2 19 18 37 59.9910000  0  8 28 19 29 18 22 14 27 31
  20841449.045   -26972182.939 9 -21000769.137 9  20841448.073    20841454.590
  18726425.051   -27473800.13949 -21105982.67249  18726425.4584   18726430.9014
  18547766.011   -12220673.65149  -9511854.35449  18547766.2004   18547770.2464
  17653862.660   -22135521.01149 -17220927.14349  17653862.2574   17653867.2394
  21856016.404     1938485.02249   1511335.74649  21856014.9704   21856021.1954
  21606672.674     4535552.59849   3530960.30849  21606672.8774   21606678.7054
  21195930.589   -17802682.82049 -13841107.15049  21195930.2294   21195935.2574
  20660191.027   -22926954.20949 -17105409.09149  20660191.1294   20660197.3314
 96  2 19 18 38 29.9910000  0  8 28 19 29 18 22 14 27 31
  20820081.589   -27084468.021 9 -21088263.996 9  20820080.861    20820087.382
  18702961.847   -27597100.13749 -21202060.57149  18702962.1864   18702967.4264
  18541338.982   -12254452.26649  -9538175.37749  18541338.6374   18541342.7064
  17635502.199   -22232006.21249 -17296110.40749  17635501.7574   17635506.4294
  21860903.482     1964167.97349   1531348.39449  21860901.4724   21860908.6714
  21612662.738     4567032.73449   3555490.19149  21612663.8424   21612669.3164
  21166153.380   -17959155.63949 -13963033.99349  21166154.2814   21166159.4364
  20629669.418   -23087348.42149 -17230391.51249  20629667.7164   20629675.7364
 96  2 19 18 38 59.9910000  0  8 28 19 29 18 22 14 27 31
  20798796.569   -27196320.270 9 -21175421.574 9  20798796.186    20798802.378
  18679528.151   -27720245.45249 -21298017.94449  18679528.0724   18679533.5134
  18534980.196   -12287860.83349  -9564208.04949  18534980.8564   18534985.2344
  17617219.601   -22328080.79049 -17370973.71249  17617219.3014   17617224.0224
  21865803.213     1989915.37249   1551411.26649  21865801.9014   21865809.0924
  21618655.142     4598504.13049   3580013.26049  21618652.0744   21618657.8274
  21136388.624   -18115580.58749 -14084923.54449  21136388.0204   21136392.0314
  20599187.048   -23247530.46249 -17355208.61349  20599186.7624   20599194.5464
 96  2 19 18 39 29.9910000  0  8 28 19 29 18 22 14 27 31
  20777594.433   -27307740.579 9 -21262242.576 9  20777593.498    20777600.144
  18656123.605   -27843229.63749 -21393849.76249  18656125.1954   18656130.4324
  18528693.480   -12320911.92249  -9589962.17549  18528691.3654   18528695.8274
  17599012.575   -22423761.31849 -17445529.96949  17599012.0654   17599016.7294
  21870711.751     2015707.98849   1571509.37849  21870710.1124   21870716.0664
  21624634.049     4629936.03549   3604505.54749  21624633.7964   21624639.7024
  21106629.474   -18271961.22749 -14206778.57849  21106629.4474   21106635.1834
  20568747.040   -23407497.00849 -17479857.78849  20568746.3144   20568754.1554
 96  2 19 18 39 59.9910000  0  8 28 19 29 18 22 14 27 31
  20756473.035   -27418731.082 9 -21348728.652 9  20756472.515    20756478.909
  18632753.943   -27966046.03249 -21489550.83949  18632753.8814   18632759.0904
  18522465.093   -12353630.68149  -9615457.33749  18522465.5654   18522469.3864
  17580877.944   -22519058.77149 -17519787.72449  17580877.3274   17580882.2644
  21875627.392     2041538.48249   1591636.99049  21875625.9964   21875632.5784
  21630603.845     4661316.76549   3628957.95049  21630605.3394   21630610.9954
  21076880.232   -18428300.02249 -14328600.97849  21076879.8364   21076883.9234
  20538348.326   -23567236.18149 -17604329.80849  20538348.9084   20538355.5764
 96  2 19 18 40 29.9910000  0  8 28 19 29 18 22 14 27 31
  20735434.583   -27529286.261 9 -21434875.515 9  20735434.675    20735441.172
  18609414.002   -28088697.70949 -21585123.56249  18609414.1834   18609419.5984
  18516302.898   -12386012.54249  -9640689.98549  18516303.4724   18516307.4854
  17562817.790   -22613964.79449 -17593740.47549  17562817.5064   17562822.2564
  21880552.620     2067422.08649   1611805.98849  21880551.2524   21880557.0854
  21636567.566     4692648.19949   3653371.94249  21636567.3484   21636573.6104
  21047135.247   -18584603.43649 -14450395.80949  21047135.2904   21047139.6014
  20507997.801   -23726737.53049 -17728616.49549  20507996.7244   20508003.4744
 96  2 19 18 40 59.9910000  0  8 28 19 29 18 22 14 27 31
  20714479.606   -27639407.027 9 -21520683.864 9  20714479.396    20714486.198
  18586104.590   -28211190.04749 -21680572.13549  18586104.6984   18586109.8164
  18510202.498   -12418074.30949  -9665673.20049  18510202.4574   18510206.4724
  17544832.209   -22708482.00149 -17667390.25249  17544831.4124   17544835.9414
  21885486.540     2093349.64549   1632009.24249  21885484.9924   21885491.7944
  21642519.759     4723929.78249   3677747.08849  21642520.6234   21642525.4744
  21017396.070   -18740887.83749 -14572175.83749  21017395.7974   21017401.0134
  20477691.151   -23885994.86549 -17852713.04649  20477690.4034   20477697.9504
 96  2 19 18 41 29.9910000  0  8 28 19 29 18 22 14 27 31
  20693607.492   -27749090.139 9 -21606151.179 9  20693607.195    20693614.182
  18562824.848   -28333523.67449 -21775897.02949  18562825.5564   18562830.5754
  18504159.951   -12449824.30449  -9690413.47649  18504160.3874   18504164.4134
  17526919.082   -22802614.66349 -17740740.38549  17526918.4824   17526923.1814
  21890428.985     2119319.94149   1652245.78949  21890426.6004   21890433.2054
  21648463.052     4755168.25349   3702088.63649  21648464.8804   21648470.8044
  20987659.149   -18897153.74049 -14693941.44149  20987659.6994   20987664.5824
  20447432.014   -24045005.23849 -17976617.14849  20447431.7844   20447439.8504
 96  2 19 18 41 59.9910000  0  8 28 19 29 18 22 14 27 31
  20672820.938   -27858320.280 9 -21691265.514 9  20672821.489    20672828.144
  18539573.848   -28455709.73449 -21871106.93849  18539574.1814   18539579.4444
  18498181.026   -12481242.43549  -9714895.15349  18498181.9374   18498186.0254
  17509084.116   -22896336.02249 -17813770.01949  17509083.7974   17509088.5554
  21895379.542     2145336.16849   1672518.11449  21895377.8794   21895384.3014
  21654407.254     4786389.71549   3726416.93349  21654405.3704   21654412.0584
  20957931.379   -19053379.34049 -14815675.65149  20957931.1094   20957935.3494
  20417224.225   -24203751.97149 -18100315.84849  20417222.2304   20417230.8254
 96  2 19 18 42 29.9910000  0  8 28 19 29 18 22 14 27 31
  20652122.073   -27967092.803 9 -21776023.268 9  20652122.499    20652129.405
  18516348.616   -28577758.32049 -21966209.72949  18516349.1704   18516354.2694
  18492270.504   -12512311.08449  -9739104.51349  18492269.7674   18492273.4904
  17491329.194   -22989640.35449 -17886474.70349  17491328.8744   17491333.5484
  21900336.371     2171393.76949   1692822.67649  21900336.1724   21900342.6114
  21660347.104     4817605.31349   3750740.64049  21660346.3824   21660351.7234
  20928211.411   -19209552.37149 -14937368.89149  20928211.8564   20928215.7814
  20387064.825   -24362238.85249 -18223812.05349  20387065.5074   20387070.9954
 96  2 19 18 42 59.9910000  0  8 28 19 29 18 22 14 27 31
  20631511.256   -28075408.337 9 -21860424.926 9  20631510.579    20631517.767
  18493150.481   -28699666.71649 -22061203.27549  18493150.8314   18493155.8254
  18486424.982   -12543023.53449  -9763036.30749  18486425.2964   18486429.4364
  17473652.616   -23082530.84449 -17958856.90949  17473652.2994   17473656.9974
  21905300.191     2197474.79549   1713145.51349  21905299.7644   21905305.7124
  21666283.518     4848814.45249   3775059.32549  21666285.1034   21666291.5174
  20898504.012   -19365667.65849 -15059017.13749  20898503.4084   20898509.3224
  20356954.658   -24520473.58249 -18347111.78649  20356953.9054   20356959.6234
 96  2 19 18 43 29.9910000  0  8 28 19 29 18 22 14 27 31
  20610986.172   -28183267.021 9 -21944470.613 9  20610985.701    20610992.881
  18469978.929   -28821434.10649 -22156086.94949  18469979.1864   18469984.2604
  18480651.259   -12573365.85049  -9786679.69549  18480651.2534   18480655.4894
  17456057.203   -23174997.32249 -18030908.72349  17456056.5744   17456061.2114
  21910270.057     2223590.69249   1733495.50249  21910268.1704   21910274.4264
  21672220.531     4880000.11649   3799359.70649  21672219.6144   21672225.4794
  20868809.525   -19521719.87049 -15180616.24049  20868808.7574   20868812.9294
  20326887.543   -24678470.07949 -18470225.88949  20326887.4494   20326893.5354
 96  2 19 18 43 59.9910000  0  8 28 19 29 18 22 14 27 31
  20590548.923   -28290663.950 9 -22028156.494 9  20590548.781    20590555.695
  18446837.651   -28943039.80749 -22250844.62449  18446838.4214   18446843.4314
  18474949.337   -12603325.32049  -9810024.75349  18474950.4254   18474954.3364
  17438546.827   -23267013.31849 -18102609.50649  17438546.2814   17438551.1254
  21915247.733     2249748.45449   1753878.11749  21915247.2964   21915252.8024
  21678147.108     4911152.19249   3823633.92849  21678147.5194   21678153.9514
  20839125.277   -19677703.66149 -15302162.02449  20839125.1534   20839130.2814
  20296867.526   -24836232.04449 -18593157.22449  20296866.2074   20296873.1694
 96  2 19 18 44 29.9910000  0  8 28 19 29 18 22 14 27 31
  20570201.391   -28397596.453 9 -22111480.492 9  20570200.110    20570207.423
  18423734.243   -29064449.98049 -22345449.93749  18423734.6704   18423739.5074
  18469322.580   -12632897.13249  -9833067.74049  18469322.7024   18469326.8944
  17421123.001   -23358576.59649 -18173957.52549  17421122.6264   17421127.3004
  21920236.058     2275963.32249   1774305.22449  21920234.9804   21920242.4154
  21684067.501     4942258.01149   3847872.09849  21684067.5884   21684073.0844
  20809453.165   -19833631.73649 -15423664.39749  20809453.4374   20809458.8464
  20266891.580   -24993754.05349 -18715901.60949  20266890.6864   20266897.6204
 96  2 19 18 44 59.9910000  0  8 28 19 29 18 22 14 27 31
  20549940.820   -28504063.675 9 -22194441.944 9  20549940.422    20549947.283
  18400669.305   -29185658.72449 -22439898.29549  18400669.3214   18400674.7604
  18463767.449   -12662088.42149  -9855814.21649  18463768.1714   18463772.1254
  17403787.564   -23449674.78349 -18244943.13349  17403787.2994   17403791.9224
  21925236.422     2302241.23649   1794781.45649  21925236.3124   21925241.6414
  21689971.973     4973299.02949   3872059.78349  21689974.5794   21689979.5854
  20779789.399   -19989518.34349 -15545134.43849  20779789.1734   20779793.2684
  20236962.799   -25151029.89349 -18838454.17049  20236962.8824   20236969.6914
 96  2 19 18 45 29.9910000  0  8 28 19 29 18 22 14 27 31
  20529769.558   -28610061.118 9 -22277037.334 9  20529769.694    20529776.818
  18377642.646   -29306663.10949 -22534187.41149  18377642.8634   18377648.2934
  18458282.577   -12690911.25749  -9878273.58649  18458283.2034   18458287.2714
  17386538.336   -23540317.69549 -18315573.98149  17386538.2414   17386543.2804
  21930250.727     2328592.41349   1815314.78849  21930250.3014   21930257.2634
  21695869.262     5004272.89049   3896195.13549  21695868.8014   21695874.2204
  20750130.189   -20145374.73649 -15666580.94349  20750129.7294   20750134.5624
  20207080.388   -25308057.50049 -18960813.30449  20207080.5904   20207087.2224
 96  2 19 18 45 59.9900000  0  8 28 19 29 18 22 14 27 31
  20509689.188   -28715588.126 9 -22359266.155 9  20509688.335    20509695.465
  18354654.447   -29427468.06949 -22628321.13549  18354654.6594   18354659.7694
  18452866.293   -12719379.43649  -9900456.59649  18452865.8294   18452870.0514
  17369372.298   -23630528.10649 -18385867.81349  17369371.9274   17369376.6554
  21935275.325     2354995.41049   1835888.48649  21935274.8774   21935280.3884
  21701752.382     5035183.41849   3920281.14049  21701750.8724   21701756.0334
  20720476.441   -20301208.07749 -15788009.47949  20720476.6904   20720482.1744
  20177247.539   -25464834.73049 -19082977.35049  20177246.8344   20177253.5264
 96  2 19 18 46 29.9900000  0  8 28 19 29 18 22 14 27 31
  20489697.769   -28820643.421 9 -22441127.409 9  20489697.135    20489703.955
  18331699.094   -29548099.19849 -22722319.40549  18331699.0874   18331704.7684
  18447513.457   -12747501.65149  -9922370.02649  18447514.5334   18447518.3004
  17352283.944   -23720327.00549 -18455840.98749  17352283.7944   17352288.4824
  21940309.901     2381450.62949   1856502.88049  21940309.2394   21940314.8164
  21707619.818     5066037.79749   3944323.39349  21707622.5424   21707627.5454
  20690824.941   -20457022.96049 -15909423.63149  20690825.1044   20690830.6414
  20147461.544   -25621359.62049 -19204944.76949  20147461.4214   20147468.3574
 96  2 19 18 46 59.9900000  0  7 28 19 29 18 14 27 31
  20469795.625   -28925224.922 9 -22522619.465 9  20469795.558    20469803.178
  18308772.702   -29668575.69249 -22816197.16849  18308773.2654   18308778.4924
  18442225.523   -12775293.22349  -9944025.80649  18442225.7664   18442229.8684
  17335272.019   -23809724.92349 -18525501.69649  17335271.9494   17335276.6194
  21713481.683     5096824.84249   3968313.17249  21713481.3844   21713487.2134
  20661182.266   -20612802.98449 -16030810.63849  20661181.5964   20661186.6564
  20117725.562   -25777626.94449 -19326711.49249  20117724.5644   20117731.0714
 96  2 19 18 47 29.9900000  0  7 28 19 29 18 14 27 31
  20449985.886   -29029325.275 9 -22603736.605 9  20449986.305    20449993.344
  18285878.541   -29788885.50749 -22909945.06349  18285879.1044   18285884.1334
  18437003.234   -12802737.33549  -9965410.84649  18437003.4614   18437007.4444
  17318335.302   -23898729.29449 -18594855.75149  17318334.9634   17318339.5964
  21719334.161     5127565.89549   3992267.11849  21719331.0164   21719336.4444
  20631547.826   -20768523.76249 -16152151.45749  20631548.9694   20631554.0324
  20088038.834   -25933625.35949 -19448268.67049  20088038.4454   20088045.8434
 96  2 19 18 47 59.9900000  0  7 28 19 29 18 14 27 31
  20430270.544   -29132936.635 9 -22684472.714 9  20430269.584    20430276.515
  18263017.226   -29909021.80949 -23003557.76049  18263017.6794   18263022.6394
  18431848.479   -12829824.18849  -9986517.50449  18431849.0844   18431852.7964
  17301478.284   -23987313.37749 -18663882.31049  17301478.0694   17301482.6234
  21725172.260     5158265.76149   4016188.97549  21725173.8234   21725178.9864
  20601932.812   -20924168.74849 -16273433.24249  20601931.7184   20601935.4684
  20058408.727   -26089327.84049 -19569595.26249  20058410.5974   20058416.6484
 96  2 19 18 48 29.9900000  0  7 28 19 29 18 14 27 31
  20410646.457   -29236060.532 9 -22764828.983 9  20410645.748    20410652.732
  18240189.322   -30028984.50849 -23097035.18149  18240189.5154   18240194.6014
  18426762.653   -12856548.80449 -10007341.89549  18426763.3704   18426767.3974
  17284704.035   -24075462.38149 -18732569.84549  17284703.6674   17284708.4214
  21731003.818     5188925.88949   4040079.86749  21731007.6894   21731012.8964
  20572327.836   -21079730.00849 -16394649.77249  20572328.1394   20572333.5384
  20028840.871   -26244720.30049 -19690680.28849  20028839.2214   20028846.1924
 96  2 19 18 48 59.9900000  0  7 28 19 29 18 14 27 31
  20391115.537   -29338690.429 9 -22844800.320 9  20391115.895    20391123.136
  18217396.838   -30148759.40549 -23190366.25649  18217397.0704   18217402.3054
  18421750.431   -12882886.91149 -10027865.10449  18421751.4604   18421755.3664
  17268016.862   -24163151.42249 -18800898.95949  17268016.8724   17268021.4304
  21736838.976     5219575.34449   4063962.45349  21736839.4784   21736846.5494
  20542744.738   -21235195.04649 -16515791.33149  20542745.2724   20542748.5394
  19999329.890   -26399799.55049 -19811521.23549  19999329.7894   19999334.9584
 96  2 19 18 49 29.9900000  0  7 28 19 29 18 14 27 31
  20371681.263   -29440824.108 9 -22924384.990 9  20371680.383    20371687.651
  18194640.287   -30268346.11749 -23283550.69849  18194640.9514   18194645.8304
  18416813.458   -12908831.20549 -10048081.45349  18416814.3394   18416818.6034
  17251421.404   -24250365.94449 -18868858.32449  17251420.8194   17251425.4274
  21742674.883     5250229.22449   4087848.47349  21742673.8614   21742678.6054
  20513175.300   -21390579.33949 -16636869.97049  20513174.9904   20513180.0794
  19969879.660   -26554565.01649 -19932117.68549  19969879.5824   19969883.4994
 96  2 19 18 49 59.9900000  0  7 28 19 29 18 14 27 31
  20352339.913   -29542463.865 9 -23003584.789 9  20352339.196    20352346.186
  18171916.044   -30387762.82349 -23376602.66349  18171916.4544   18171921.5154
  18411950.567   -12934388.62849 -10067996.34049  18411950.8054   18411955.1754
  17234915.469   -24337103.40049 -18936445.95049  17234915.0024   17234919.6394
  21748506.103     5280870.64549   4111724.79449  21748505.0214   21748510.2464
  20483620.413   -21545895.71449 -16757895.70149  20483620.7004   20483625.0094
  19940488.168   -26709016.54549 -20052469.49949  19940486.8674   19940493.5224
 96  2 19 18 50 29.9900000  0  7 28 19 29 18 14 27 31
  20333093.496   -29643606.854 9 -23082397.492 9  20333092.126    20333099.234
  18149225.280   -30507004.35149 -23469518.13149  18149225.5974   18149230.5644
  18407162.309   -12959554.05849 -10087605.78049  18407162.2114   18407166.4424
  17218497.696   -24423378.11949 -19003673.00349  17218497.5624   17218502.1444
  21754332.319     5311495.16349   4135587.94249  21754332.4894   21754338.0044
  20454079.006   -21701132.91349 -16878859.72949  20454078.9864   20454083.5154
  19911155.344   -26863155.67249 -20172577.88549  19911156.1234   19911161.7604
 96  2 19 18 50 59.9900000  0  7 28 19 29 18 14 27 31
  20313940.510   -29744250.835 9 -23160821.361 9  20313939.990    20313946.839
  18126568.274   -30626068.05849 -23562295.04149  18126568.4104   18126573.8224
  18402445.228   -12984340.31949 -10106919.76349  18402445.1284   18402449.4264
  17202166.460   -24509203.74549 -19070550.11449  17202165.6184   17202170.0514
  21760151.019     5342073.12749   4159414.82649  21760151.6494   21760157.1764
  20424551.230   -21856306.31949 -16999774.04749  20424551.1824   20424555.3604
  19881884.430   -27016978.16649 -20292439.54749  19881883.5224   19881890.6514
 96  2 19 18 51 29.9900000  0  6 28 19 29 18 27 31
  20294884.676   -29844392.398 9 -23238853.734 9  20294883.688    20294890.931
  18103945.199   -30744953.16949 -23654932.78149  18103945.3894   18103950.4474
  18397800.199   -13008748.86449 -10125939.42049  18397800.8424   18397805.1864
  17185917.123   -24594590.97549 -19137085.61749  17185916.9344   17185921.6854
  20395031.037   -22011428.60649 -17120648.51449  20395031.8764   20395035.9734
  19852676.873   -27170464.40949 -20412039.18849  19852677.2644   19852683.5194
 96  2 19 18 51 59.9900000  0  6 28 19 29 18 27 31
  20275923.178   -29944032.483 9 -23316495.340 9  20275922.801    20275930.289
  18081356.308   -30863658.18749 -23747430.18749  18081356.7234   18081362.0644
  18393225.365   -13032792.21749 -10144674.51349  18393225.3524   18393229.7484
  17169750.092   -24679549.80449 -19203287.30249  17169749.8274   17169754.3424
  20365523.602   -22166492.75449 -17241477.69649  20365524.4304   20365528.6124
  19823534.251   -27323616.93849 -20531378.79149  19823533.0204   19823538.6094
 96  2 19 18 52 29.9900000  0  6 28 19 29 18 27 31
  20257057.787   -30043167.604 9 -23393743.465 9  20257058.226    20257065.276
  18058803.355   -30982174.25449 -23839780.36149  18058803.6554   18058808.8844
  18388715.814   -13056486.64549 -10163137.72149  18388716.5084   18388720.5894
  17153665.582   -24764075.03449 -19269151.12349  17153665.3404   17153669.8344
  20336026.921   -22321503.69549 -17362265.40749  20336026.4744   20336031.6414
  19794452.751   -27476436.43449 -20650458.88349  19794453.2664   19794458.9694
 96  2 19 18 52 59.9900000  0  6 28 19 29 18 27 31
  20238290.339   -30141796.041 9 -23470596.764 9  20238289.633    20238296.930
  18036284.775   -31100511.13049 -23931990.91949  18036284.9914   18036290.1604
  18384274.855   -13079828.91149 -10181326.51949  18384274.5524   18384278.9224
  17137667.426   -24848147.61649 -19334662.23349  17137666.5744   17137671.2964
  20306535.216   -22476479.26349 -17483025.54249  20306534.8684   20306540.3554
  19765432.950   -27628935.86249 -20769289.58049  19765432.8104   19765438.4324
 96  2 19 18 53 29.9900000  0  6 28 19 29 18 27 31
  20219618.645   -30239919.327 9 -23547056.444 9  20219617.352    20219624.324
  18013799.736   -31218670.49549 -24024063.14849  18013800.1874   18013805.1394
  18379899.295   -13102817.39749 -10199239.64349  18379900.0584   18379904.2714
  17121757.796   -24931751.25949 -19399807.93149  17121757.4654   17121762.1174
  20277053.977   -22631408.58449 -17603749.65149  20277053.7904   20277058.3334
  19736470.820   -27781130.01449 -20887882.39849  19736470.9554   19736476.7904
 96  2 19 18 53 59.9900000  0  6 28 19 29 18 27 31
  20201041.185   -30337537.622 9 -23623122.620 9  20201041.353    20201048.122
  17991348.385   -31336653.96549 -24115998.31549  17991348.4744   17991353.6934
  18375587.607   -13125475.43949 -10216895.27649  18375588.5844   18375592.6764
  17105939.917   -25014874.28649 -19464579.12549  17105939.6954   17105944.3104
  20247582.649   -22786277.81549 -17724426.90749  20247582.8714   20247588.2564
  19707566.982   -27933022.57349 -21006240.19049  19707566.9164   19707572.6314
 96  2 19 18 54 29.9900000  0  6 28 19 29 18 27 31
  20182560.568   -30434656.240 9 -23698799.448 9  20182560.335    20182567.409
  17968929.292   -31454466.33449 -24207800.15749  17968929.7624   17968934.7464
  18371341.612   -13147793.96649 -10234286.35849  18371341.5994   18371345.5784
  17090214.454   -25097513.25349 -19528973.13349  17090214.1254   17090218.6624
  20218122.480   -22941091.83449 -17845061.15349  20218122.3934   20218127.6714
  19678720.440   -28084608.68949 -21124359.19449  19678721.0144   19678726.7554
 96  2 19 18 54 59.9900000  0  6 28 19 29 18 27 31
  20164175.221   -30531271.646 9 -23774084.163 9  20164174.975    20164182.314
  17946543.898   -31572102.07349 -24299464.36349  17946543.8084   17946549.3374
  18367161.740   -13169755.81649 -10251399.51349  18367162.4034   18367166.5824
  17074583.039   -25179658.12349 -19592982.12849  17074582.2754   17074587.0674
  20188676.957   -23095829.92449 -17965636.22049  20188676.8394   20188681.9644
  19649933.750   -28235882.01949 -21242234.48049  19649934.5024   19649940.9884
 96  2 19 18 55 29.9890000  0  6 28 19 29 18 27 31
  20145886.758   -30627380.033 9 -23848973.808 9  20145886.337    20145893.402
  17924194.697   -31689548.68449 -24390981.19949  17924194.8104   17924200.1914
  18363051.070   -13191365.05349 -10268237.91049  18363050.4164   18363054.5264
  17059042.306   -25261319.49149 -19656614.36749  17059042.6584   17059047.3784
  20159249.337   -23250468.99949 -18086134.13049  20159249.2154   20159255.3204
  19621214.147   -28386812.26649 -21359842.41349  19621213.6574   19621219.8754
 96  2 19 18 55 59.9890000  0  6 28 19 29 18 27 31
  20127693.750   -30722983.253 9 -23923469.821 9  20127693.487    20127700.529
  17901880.846   -31806807.59049 -24482351.76249  17901881.0484   17901886.5774
  18359007.039   -13212613.45749 -10284795.12649  18359007.1974   18359010.8354
  17043591.541   -25342517.54649 -19719885.58249  17043591.2874   17043595.8594
  20129840.616   -23405017.74949 -18206561.67449  20129840.2424   20129845.0454
  19592561.179   -28537387.24349 -21477173.51349  19592560.1834   19592565.8804
 96  2 19 18 56 29.9890000  0  6 28 19 29 18 27 31
  20109599.055   -30818073.434 9 -23997566.058 9  20109598.462    20109605.508
  17879605.197   -31923866.09349 -24573566.17149  17879605.5074   17879610.8184
  18355037.190   -13233473.63649 -10301049.83649  18355037.3024   18355041.4774
  17028226.617   -25423260.93749 -19782802.51249  17028226.3704   17028231.1634
  20100448.928   -23559473.75349 -18326916.94049  20100448.5004   20100453.0234
  19563973.916   -28687608.24149 -21594228.78249  19563973.9574   19563980.5194
 96  2 19 18 56 59.9890000  0  6 28 19 29 18 27 31
  20091602.612   -30912646.998 9 -24071259.740 9  20091601.894    20091608.428
  17857367.319   -32040727.21149 -24664626.77749  17857367.7514   17857372.8774
  18351139.511   -13253955.63249 -10317009.86249  18351139.7844   18351143.7544
  17012945.636   -25503563.38249 -19845375.85049  17012945.2914   17012949.8764
  20071072.319   -23713843.12649 -18447204.71449  20071072.4744   20071077.7994
  19535454.269   -28837478.87549 -21711011.03649  19535454.3264   19535460.4034
 96  2 19 18 57 29.9890000  0  7 28  2 19 29 18 27 31
  20073705.074   -31006703.338 9 -24144550.391 9  20073703.348    20073709.931
  21864031.820    -7625015.18759  -5923911.88459  21864031.3924   21864039.9624
  17835165.738   -32157397.23749 -24755538.47549  17835165.9914   17835171.3034
  18347313.125   -13274067.67549 -10332681.61449  18347312.6064   18347317.0174
  16997745.979   -25583438.20649 -19907615.98149  16997745.7004   16997750.0834
  20041709.290   -23868146.87049 -18567441.35649  20041709.0684   20041714.4024
  19507001.781   -28986993.54349 -21827515.91649  19507003.1394   19507007.1644
 96  2 19 18 57 59.9890000  0  7 28  2 19 29 18 27 31
  20055903.321   -31100241.417 9 -24217437.201 9  20055903.663    20055910.410
  21830080.819    -7803429.86649  -6062936.24749  21830080.2344   21830089.4804
  17812999.503   -32273881.60849 -24846305.50349  17812999.7884   17813005.2044
  18343555.339   -13293807.28549 -10348063.15449  18343556.2394   18343560.6014
  16982630.740   -25662871.09449 -19969511.74149  16982630.3014   16982634.7464
  20012357.653   -24022393.65449 -18687633.62249  20012357.4034   20012362.2464
  19478616.225   -29136164.89949 -21943753.28849  19478616.6464   19478622.0814
 96  2 19 18 58 29.9890000  0  7 28  2 19 29 18 27 31
  20038203.309   -31193258.817 9 -24289918.290 9  20038203.012    20038209.815
  21796149.526    -7981737.33449  -6201877.06549  21796149.3814   21796158.3234
  17790867.481   -32390186.78649 -24936932.90049  17790867.8724   17790873.1004
  18339868.621   -13313186.08949 -10363163.55449  18339868.6224   18339872.4894
  16967603.712   -25741836.73149 -20031043.41349  16967603.6564   16967608.1164
  19983016.033   -24176583.40349 -18807781.45049  19983016.3934   19983020.9584
  19450296.023   -29284995.03849 -22059724.79149  19450295.5084   19450300.3604
 96  2 19 18 58 59.9890000  0  7 28  2 19 29 18 27 31
  20020600.685   -31285761.102 9 -24361997.996 9  20020600.472    20020607.184
  21762235.578    -8159950.54849  -6340744.44649  21762236.9884   21762245.7234
  17768767.101   -32506324.92449 -25027430.13649  17768767.3294   17768772.5144
  18336248.364   -13332214.16149 -10377990.65549  18336247.8214   18336251.9844
  16952668.577   -25820319.38949 -20092198.74049  16952668.4984   16952673.0604
  19953682.305   -24330732.22449 -18927897.39249  19953682.0054   19953686.7914
  19422041.136   -29433470.74349 -22175420.11149  19422040.6414   19422046.4314
 96  2 19 18 59 29.9890000  0  7 28  2 19 29 18 27 31
  20003095.910   -31377750.525 9 -24433678.060 9  20003095.537    20003102.631
  21728340.598    -8338089.92249  -6479554.29149  21728338.4544   21728346.6234
  17746699.485   -32622290.25349 -25117792.71449  17746699.7894   17746704.9934
  18332695.908   -13350877.23049 -10392533.33149  18332696.4744   18332700.2264
  16937828.714   -25898306.72749 -20152968.10249  16937828.0644   16937832.5844
  19924356.601   -24484839.20249 -19047980.73649  19924356.2684   19924361.7064
  19393854.713   -29581587.88849 -22290836.05849  19393854.9004   19393860.3834
 96  2 19 18 59 59.9890000  0  7 28  2 19 29 18 27 31
  19985689.502   -31469220.789 9 -24504953.591 9  19985689.394    19985696.760
  21694452.419    -8516158.52949  -6618308.97949  21694453.3334   21694461.8144
  17724667.769   -32738069.06349 -25208009.95649  17724667.8314   17724672.9724
  18329215.945   -13369166.88249 -10406785.03949  18329216.1594   18329219.8374
  16923084.247   -25975788.70449 -20213343.68149  16923083.9764   16923088.3124
  19895040.393   -24638895.78249 -19168024.80449  19895040.5194   19895045.7104
  19365740.079   -29729332.91649 -22405962.04349  19365740.2274   19365746.0714
 96  2 19 19  0 29.9890000  0  7 28  2 19 29 18 27 31
  19968381.280   -31560172.469 9 -24575825.028 9  19968381.827    19968388.889
  21660579.918    -8694155.11149  -6757007.52849  21660580.5614   21660590.7014
  17702670.631   -32853663.22949 -25298083.31949  17702671.1094   17702676.1714
  18325805.631   -13387088.44949 -10420749.92749  18325805.5854   18325809.6204
  16908432.731   -26052783.17649 -20273339.38049  16908432.2394   16908436.7314
  19865731.190   -24792918.68649 -19288042.64149  19865731.0534   19865736.0964
  19337697.051   -29876698.12449 -22520792.07149  19337697.5944   19337703.1934
 96  2 19 19  0 59.9890000  0  7 28  2 19 29 18 27 31
  19951174.861   -31650598.285 9 -24646286.694 9  19951174.240    19951181.179
  21626723.828    -8872070.82349  -6895643.04249  21626724.6054   21626733.8444
  17680711.282   -32969062.71149 -25388004.97949  17680711.4014   17680716.5024
  18322467.326   -13404626.03349 -10434415.60549  18322468.3484   18322472.2744
  16893870.193   -26129309.08749 -20332969.96649  16893869.8394   16893874.3894
  19836428.754   -24946901.77749 -19408029.45549  19836428.9414   19836434.1614
  19309731.144   -30023667.07449 -22635313.33249  19309730.0114   19309735.8204
 96  2 19 19  1 29.9890000  0  7 28  2 19 29 18 27 31
  19934066.393   -31740502.926 9 -24716342.248 9  19934066.122    19934072.826
  21592885.665    -9049895.74249  -7034207.80249  21592886.1344   21592894.8014
  17658788.304   -33084267.00549 -25477774.55449  17658788.6444   17658793.7164
  18319200.655   -13421798.26849 -10447796.60349  18319200.6744   18319204.5524
  16879393.563   -26205385.98549 -20392250.68149  16879393.1154   16879397.4634
  19807138.511   -25100826.58149 -19527970.86949  19807137.7194   19807143.3964
  19281838.585   -30170241.75049 -22749527.36349  19281838.5724   19281843.9944
 96  2 19 19  1 59.9890000  0  7 28  2 19 29 18 27 31
  19917057.662   -31829883.493 9 -24785989.430 9  19917057.364    19917064.247
  21559066.109    -9227610.42349  -7172686.66349  21559066.8764   21559076.2214
  17636903.401   -33199272.95949 -25567389.57749  17636903.8524   17636908.9534
  18315997.869   -13438622.22049 -10460906.20549  18315998.9684   18316003.1894
  16865003.440   -26281006.48649 -20451175.75849  16865003.1054   16865007.5034
  19777861.154   -25254680.16249 -19647856.77349  19777860.2874   19777867.0794
  19254023.346   -30316415.04149 -22863428.63549  19254022.4684   19254027.5284
 96  2 19 19  2 29.9890000  0  7 28  2 19 29 18 27 31
  19900151.256   -31918731.882 9 -24855221.927 9  19900150.124    19900156.629
  21525274.751    -9405196.06949  -7311065.01949  21525274.0574   21525283.4444
  17615058.069   -33314071.32349 -25656842.83949  17615058.2784   17615063.4094
  18312864.683   -13455088.62249 -10473737.21049  18312865.6474   18312869.7554
  16850701.334   -26356161.59549 -20509738.19049  16850701.5014   16850705.9994
  19748601.150   -25408439.60849 -19767669.32149  19748601.8374   19748606.2504
  19226284.278   -30462183.84649 -22977014.72549  19226284.2154   19226289.9094
 96  2 19 19  2 59.9890000  0  7 28  2 19 29 18 27 31
  19883345.954   -32007042.808 9 -24924035.626 9  19883345.017    19883351.974
  21491509.433    -9582639.45849  -7449332.55749  21491508.0554   21491517.1394
  17593253.782   -33428650.80149 -25746125.54349  17593254.3524   17593259.4664
  18309801.736   -13471189.15949 -10486283.11549  18309801.9054   18309806.2694
  16836492.168   -26430834.95849 -20567925.23449  16836491.6714   16836496.3064
  19719364.262   -25562080.90449 -19887389.78849  19719364.1344   19719370.0544
  19198621.806   -30607550.60049 -23090287.51649  19198621.3854   19198626.5554
 96  2 19 19  3 29.9890000  0  7 28  2 19 29 18 27 31
  19866642.452   -32094820.440 9 -24992433.769 9  19866641.849    19866648.299
  21457765.110    -9759949.94749  -7587496.54149  21457766.1534   21457775.5304
  17571491.726   -33543014.72049 -25835240.27849  17571491.8854   17571497.2004
  18306804.971   -13486941.17449 -10498557.45549  18306804.1864   18306808.5314
  16822376.529   -26505012.31749 -20625725.78349  16822376.2024   16822380.6994
  19690148.638   -25715610.64649 -20007023.34149  19690148.6544   19690154.5344
  19171031.026   -30752537.54749 -23203264.34849  19171031.3634   19171037.2114
 96  2 19 19  3 59.9890000  0  7 28  2 19 29 18 27 31
  19850040.651   -32182059.145 9 -25060411.972 9  19850040.907    19850047.484
  21424052.653    -9937131.25549  -7725559.85949  21424049.5264   21424059.8274
  17549768.710   -33657168.36649 -25924191.16349  17549769.0564   17549774.2584
  18303875.667   -13502330.88049 -10510549.46649  18303875.8604   18303880.4874
  16808356.263   -26578687.51849 -20683135.03449  16808356.0094   16808360.5824
  19660949.042   -25869052.17949 -20126588.15349  19660949.4164   19660955.5564
  19143513.004   -30897144.65949 -23315945.20949  19143513.5164   19143518.1814
 96  2 19 19  4 29.9890000  0  7 28  2 19 29 18 27 31
  19833544.033   -32268753.134 9 -25127965.715 9  19833543.358    19833550.103
  21390358.369   -10114180.42149  -7863520.19649  21390358.5174   21390368.3934
  17528083.461   -33771125.27849 -26012988.75149  17528083.6634   17528089.2154
  18301015.611   -13517360.79449 -10522261.12849  18301015.9094   18301020.4904
  16794430.469   -26651870.28049 -20740160.56949  16794429.6824   16794434.3614
  19631765.359   -26022417.43149 -20246093.53349  19631765.3094   19631770.2014
  19116070.272   -31041362.35049 -23428322.61749  19116069.6784   19116075.3954
 96  2 19 19  4 59.9880000  0  7 28  2 19 29 18 27 31
  19817150.077   -32354903.794 9 -25195096.091 9  19817149.446    19817155.922
  21356689.772   -10291108.24249  -8001385.95849  21356689.7614   21356699.8674
  17506431.678   -33884905.06549 -26101648.32549  17506432.1544   17506437.1074
  18298220.521   -13532045.10149 -10533703.49049  18298221.4554   18298226.0184
  16780596.741   -26724565.44149 -20796806.15549  16780596.3464   16780600.8154
  19602593.275   -26175717.11349 -20365547.78649  19602593.5384   19602598.9924
  19088701.031   -31185184.73449 -23540391.99549  19088701.3634   19088706.5474
 96  2 19 19  5 29.9880000  0  7 28  2 19 29 18 27 31
  19800858.525   -32440514.936 9 -25261806.060 9  19800858.058    19800865.280
  21323041.308   -10467934.51649  -8139172.60649  21323041.4084   21323050.5854
  17484811.855   -33998519.41149 -26190178.97949  17484812.2714   17484817.0364
  18295491.719   -13546392.03549 -10544882.96049  18295491.7614   18295496.0424
  16766854.231   -26796779.87849 -20853077.14249  16766854.4764   16766859.1144
  19573431.373   -26328960.37149 -20484958.09949  19573431.3544   19573436.5854
  19061409.440   -31328602.96749 -23652146.44449  19061408.9934   19061414.1424
 96  2 19 19  5 59.9880000  0  7 28  2 19 29 18 27 31
  19784669.462   -32525581.814 9 -25328091.927 9  19784670.574    19784677.252
  21289413.014   -10644648.57949  -8276871.80449  21289413.0224   21289422.3824
  17463223.533   -34111966.46349 -26278579.27349  17463223.7724   17463228.7724
  18292826.973   -13560393.34049 -10555793.11249  18292827.1214   18292831.5454
  16753203.908   -26868516.68849 -20908975.95749  16753203.3094   16753207.9194
  19544283.566   -26482135.31749 -20604315.17349  19544283.4194   19544288.3924
  19034199.102   -31471593.24649 -23763567.41849  19034198.5844   19034205.1554
 96  2 19 19  6 29.9880000  0  7 28  2 19 29 18 27 31
  19768587.076   -32610103.070 9 -25393952.630 9  19768586.638    19768593.203
  21255806.735   -10821250.81249  -8414483.86849  21255807.1464   21255817.1234
  17441667.799   -34225241.65749 -26366845.65349  17441668.1774   17441673.1664
  18290228.487   -13574052.43749 -10566436.60649  18290228.1334   18290232.0394
  16739642.656   -26939779.33549 -20964505.29349  16739642.4624   16739647.1584
  19515152.429   -26635219.72049 -20723601.69249  19515152.3014   19515157.6194
  19007070.675   -31614155.01549 -23874654.49849  19007070.8164   19007076.2804
 96  2 19 19  6 59.9880000  0  7 28  2 19 29 18 27 31
  19752607.624   -32694074.781 9 -25459385.117 9  19752607.644    19752613.728
  21222224.564   -10997730.36349  -8552000.31849  21222224.4204   21222233.6464
  17420150.010   -34338318.96549 -26454957.83249  17420150.1064   17420155.2354
  18287698.404   -13587345.99349 -10576795.26049  18287698.4224   18287702.8664
  16726174.937   -27010554.85449 -21019655.05149  16726174.4814   16726178.8214
  19486041.607   -26788198.22149 -20842805.69149  19486042.3594   19486046.8594
  18980023.672   -31756291.15949 -23985409.92349  18980022.9904   18980028.1734
 96  2 19 19  7 29.9880000  0  7 28  2 19 29 18 27 31
  19736733.262   -32777501.228 9 -25524392.722 9  19736732.018    19736738.162
  21188666.988   -11174074.44149  -8689411.20349  21188666.1504   21188676.2614
  17398672.323   -34451185.08249 -26542905.44849  17398672.7514   17398677.5984
  18285240.692   -13600257.35049 -10586856.09149  18285241.2754   18285245.9494
  16712800.445   -27080838.03049 -21074421.16549  16712800.1794   16712804.5194
  19456950.488   -26941070.95349 -20961927.27349  19456950.8824   19456956.2194
  18953053.603   -31898010.51149 -24095840.57049  18953054.8844   18953060.6164
 96  2 19 19  7 59.9880000  0  7 28  2 19 29 18 27 31
  19720960.646   -32860384.905 9 -25588977.396 9  19720960.030    19720966.326
  21155137.084   -11350279.52749  -8826713.76949  21155136.7164   21155145.4494
  17377234.279   -34563844.24849 -26630691.80449  17377234.3744   17377239.3734
  18282859.412   -13612773.78549 -10596609.19349  18282859.6244   18282864.0024
  16699519.445   -27150631.64949 -21128805.80449  16699518.8994   16699523.2694
  19427878.159   -27093845.82949 -21080972.60249  19427878.3584   19427884.1574
  18926163.940   -32039317.55449 -24205949.93249  18926164.9114   18926171.0574
 96  2 19 19  8 29.9880000  0  8 28  2 19 29 18 16 27 31
  19705291.652   -32942723.244 9 -25653137.131 9  19705291.183    19705297.981
  21121632.688   -11526339.88349  -8963903.55649  21121632.6434   21121642.2824
  17355836.549   -34676290.04349 -26718311.89849  17355836.4504   17355841.6444
  18280553.458   -13624895.25149 -10606054.52249  18280552.6524   18280557.6154
  16686332.567   -27219930.81449 -21182805.15749  16686331.6954   16686336.1434
  21313920.277    -4241590.21259  -3278217.99359  21313920.4224   21313925.8244
  19398824.207   -27246528.87249 -21199946.38249  19398824.2284   19398829.1664
  18899354.488   -32180207.57649 -24315734.35249  18899353.4904   18899359.8174
 96  2 19 19  8 59.9880000  0  8 28  2 19 29 18 16 27 31
  19689726.207   -33024518.190 9 -25716873.457 9  19689726.206    19689732.360
  21088160.519   -11702247.46349  -9100974.29849  21088158.8014   21088168.3434
  17334479.576   -34788519.78449 -26805763.63749  17334479.9634   17334485.0574
  18278319.848   -13636625.74649 -10615195.20249  18278320.9114   18278325.3234
  16673241.069   -27288724.62549 -21236410.73149  16673240.8754   16673245.0594
  21284384.455    -4396797.73149  -3399158.89649  21284384.3704   21284390.6114
  19369786.626   -27399123.22049 -21318851.04349  19369786.7684   19369791.6184
  18872622.805   -32320679.87349 -24425193.26849  18872622.6874   18872629.0984
 96  2 19 19  9 29.9880000  0  8 28  2 19 29 18 16 27 31
  19674264.982   -33105772.922 9 -25780188.830 9  19674264.109    19674269.872
  21054713.350   -11878006.21549  -9237929.08149  21054713.4304   21054722.1774
  17313159.773   -34900556.13149 -26893064.67849  17313160.2474   17313165.2674
  18276158.917   -13647986.92349 -10624048.09849  18276158.9344   18276163.1524
  16660244.285   -27357021.84349 -21289629.35249  16660244.1394   16660248.3884
  21254925.749    -4551605.51049  -3519788.31249  21254926.4954   21254931.2374
  19340763.907   -27551636.81149 -21437692.78549  19340763.7024   19340769.4644
  18845972.713   -32460729.82049 -24534323.07649  18845972.0634   18845978.2464
 96  2 19 19  9 59.9880000  0  8 28  2 19 29 18 16 27 31
  19658905.978   -33186483.646 9 -25843080.301 9  19658905.363    19658910.798
  21021296.496   -12053619.75549  -9374770.71949  21021295.8264   21021303.9384
  17291875.564   -35012406.90349 -26980221.11649  17291875.9954   17291880.6774
  18274059.679   -13659012.52549 -10632639.49949  18274060.9714   18274064.7264
  16647341.405   -27424825.78849 -21342463.60049  16647341.5124   16647345.7614
  21225543.915    -4706011.56949  -3640104.70049  21225542.8454   21225549.2324
  19311755.164   -27704079.86349 -21556479.56249  19311754.5004   19311759.3934
  18819405.769   -32600341.87849 -24643111.67249  18819405.7294   18819411.6444
 96  2 19 19 10 29.9880000  0  8 28  2 19 29 18 16 27 31
  19643652.038   -33266651.179 9 -25905548.508 9  19643650.120    19643655.872
  20987907.129   -12229080.15049  -9511493.01549  20987906.7534   20987914.5494
  17270626.755   -35124069.95949 -27067231.28749  17270627.1714   17270632.1594
  18272024.014   -13669721.79249 -10640984.41249  18272023.2904   18272027.1524
  16634533.604   -27492132.31049 -21394910.25149  16634533.3594   16634537.8984
  21196235.684    -4860026.57049  -3760116.37349  21196235.5664   21196241.3854
  19282759.335   -27856454.46849 -21675213.00349  19282758.9894   19282764.1784
  18792923.166   -32739510.83049 -24751554.99949  18792922.9314   18792928.3224
 96  2 19 19 10 59.9880000  0  8 28  2 19 29 18 16 27 31
  19628499.692   -33346270.416 9 -25967589.477 9  19628498.820    19628504.811
  20954546.413   -12404382.57149  -9648092.23049  20954547.1334   20954555.8784
  17249411.946   -35235553.80249 -27154101.80849  17249412.3404   17249417.5264
  18270046.625   -13680104.74449 -10649075.05049  18270047.3434   18270050.9094
  16621820.644   -27558938.80449 -21446967.26949  16621820.5404   16621824.8324
  21167003.493    -5013641.69249  -3879816.46449  21167002.6564   21167009.7724
  19253776.561   -28008756.25049 -21793889.69649  19253777.1444   19253782.0234
  18766526.785   -32878226.20249 -24859644.87049  18766524.7524   18766531.0114
 96  2 19 19 11 29.9880000  0  8 28  2 19 29 18 16 27 31
  19613452.624   -33425339.755 9 -26029201.952 9  19613452.614    19613458.521
  20921216.734   -12579534.54349  -9784574.22049  20921216.4794   20921224.8994
  17228230.283   -35346865.00649 -27240837.80249  17228230.4324   17228235.4584
  18268132.995   -13690163.96449 -10656913.42849  18268133.0944   18268137.1844
  16609201.117   -27625254.82949 -21498642.10449  16609201.0674   16609205.4234
  21137845.897    -5166864.51849  -3999210.86349  21137845.6004   21137852.5744
  19224805.530   -28161000.56249 -21912521.60249  19224805.8944   19224811.0134
  18740219.271   -33016469.27549 -24967366.71849  18740219.3944   18740224.3704
 96  2 19 19 11 59.9880000  0  8 28  2 19 29 18 16 27 31
  19598509.868   -33503867.796 9 -26090392.635 9  19598509.287    19598515.003
  20887910.987   -12754556.91449  -9920955.24249  20887911.1344   20887919.1934
  17207080.389   -35458008.52649 -27327443.13149  17207080.3584   17207085.5164
  18266279.544   -13699904.60749 -10664503.56849  18266279.5444   18266283.1814
  16596674.700   -27691083.31549 -21549937.03849  16596674.5534   16596678.8494
  21108759.944    -5319716.59649  -4118316.38349  21108759.2184   21108765.0064
  19195843.623   -28313198.23649 -22031117.17749  19195843.7354   19195848.3544
  18714000.900   -33154243.26349 -25074723.03949  18714000.9534   18714007.0354
 96  2 19 19 12 29.9880000  0  8 28  2 19 29 18 16 27 31
  19583670.506   -33581848.324 9 -26151156.682 9  19583670.197    19583675.732
  20854630.861   -12929451.68049 -10057236.84149  20854629.2044   20854637.8654
  17185964.144   -35568975.50149 -27413910.88849  17185964.0724   17185969.2254
  18264492.214   -13709299.67349 -10671824.41949  18264491.6974   18264495.2554
  16584241.663   -27756418.91049 -21600847.90049  16584241.3964   16584245.7494
  21079744.132    -5472193.24549  -4237129.33849  21079743.8414   21079749.5004
  19166893.656   -28465329.17649 -22149660.74549  19166894.3694   19166898.7904
  18687872.171   -33291554.17249 -25181718.51049  18687871.1364   18687877.4874
 96  2 19 19 12 59.9880000  0  8 28  2 19 29 18 16 27 31
  19568935.031   -33659284.931 9 -26211496.897 9  19568934.309    19568939.823
  20821369.237   -13104233.28549 -10193430.27949  20821370.2844   20821378.3054
  17164879.674   -35679772.54149 -27500246.23549  17164880.1414   17164885.3254
  18262766.814   -13718361.36849 -10678885.51249  18262767.2394   18262770.9914
  16571901.047   -27821273.38349 -21651383.86549  16571900.0864   16571904.3864
  21050800.247    -5624294.57749  -4355649.84949  21050799.1574   21050805.2854
  19137958.272   -28617387.64649 -22268147.84349  19137958.4234   19137962.4824
  18661830.125   -33428407.12749 -25288357.13249  18661829.6284   18661835.4254
 96  2 19 19 13 29.9880000  0  8 28  2 19 29 18 16 27 31
  19554302.062   -33736179.246 9 -26271414.551 9  19554301.941    19554307.537
  20788128.158   -13278912.36349 -10329543.83549  20788130.3444   20788137.6444
  17143830.749   -35790385.73649 -27586438.32649  17143831.1424   17143836.3164
  18261103.634   -13727098.83449 -10685693.95649  18261104.3014   18261108.7794
  16559653.298   -27885636.65049 -21701537.07449  16559652.2834   16559656.5184
  21021925.936    -5776029.57449  -4473884.91249  21021925.9554   21021931.7124
  19109037.362   -28769367.58449 -22386573.75849  19109037.5254   19109041.8344
  18635871.811   -33564817.08649 -25394650.55249  18635871.4254   18635877.8034
 96  2 19 19 13 59.9880000  0  8 28  2 19 29 18 16 27 31
  19539774.427   -33812525.356 9 -26330905.023 9  19539773.693    19539779.393
  20754910.987   -13453476.58649 -10465567.89449  20754911.5284   20754919.6034
  17122820.112   -35900796.41649 -27672472.60649  17122820.7304   17122825.8944
  18259504.954   -13735499.45949 -10692239.92049  18259505.5314   18259510.0594
  16547500.589   -27949496.90549 -21751298.32049  16547499.9924   16547504.1444
  20993125.200    -5927375.74649  -4591816.97749  20993125.9754   20993130.5404
  19080135.977   -28921244.52149 -22504919.40249  19080136.0594   19080141.7454
  18609997.767   -33700786.22849 -25500600.48649  18609997.5324   18610003.7294
 96  2 19 19 14 29.9880000  0  8 28  2 19 29 18 16 27 31
  19525351.236   -33888321.102 9 -26389966.641 9  19525350.136    19525356.081
  20721717.134   -13627911.78549 -10601491.42049  20721717.9564   20721725.3374
  17101851.556   -36010988.96149 -27758336.91849  17101851.7584   17101856.9094
  18257972.172   -13743556.51949 -10698518.17849  18257972.4894   18257976.7574
  16535445.203   -28012847.80149 -21800662.67049  16535444.8194   16535449.2054
  20964404.176    -6078310.92849  -4709428.78249  20964403.0534   20964409.6574
  19051256.393   -29073006.49649 -22623175.46449  19051256.5364   19051261.6404
  18584210.762   -33836300.20749 -25606195.75649  18584210.0414   18584216.3754
 96  2 19 19 14 59.9870000  0  8 28  2 19 29 18 16 27 31
  19511031.015   -33963565.488 9 -26448598.626 9  19511031.584    19511037.322
  20688551.408   -13802201.26949 -10737301.41149  20688551.2734   20688559.7024
  17080924.479   -36120960.10449 -27844028.70949  17080924.9524   17080929.8304
  18256504.413   -13751270.54549 -10704529.13549  18256504.7984   18256509.0064
  16523487.603   -28075682.40349 -21849624.70949  16523487.7794   16523492.0754
  20935761.403    -6228822.25549  -4826710.30449  20935761.0834   20935767.6914
  19022398.223   -29224657.45349 -22741345.01249  19022398.5434   19022403.6484
  18558512.048   -33971345.75049 -25711426.00449  18558512.1934   18558517.5614
 96  2 19 19 15 29.9870000  0  8 28  2 19 29 18 16 27 31
  19496818.584   -34038258.958 9 -26506801.319 9  19496817.796    19496823.614
  20655411.424   -13976348.47649 -10873000.54349  20655412.0384   20655419.7704
  17060039.608   -36230710.99449 -27929548.87149  17060040.0824   17060045.3204
  18255106.626   -13758617.54549 -10710254.10349  18255106.2714   18255110.9234
  16511629.608   -28138001.02349 -21898184.68549  16511628.8794   16511633.2144
  20907200.116    -6378915.41649  -4943665.98649  20907199.9614   20907205.7434
  18993558.199   -29376215.85449 -22859442.44249  18993557.8624   18993562.4974
  18532899.961   -34105932.60749 -25816298.83949  18532900.4024   18532906.3294
 96  2 19 19 15 59.9870000  0  8 28  2 19 29 18 16 27 31
  19482711.087   -34112397.745 9 -26564571.791 9  19482709.588    19482715.619
  20622307.198   -14150327.92049 -11008568.97749  20622305.5224   20622313.0644
  17039197.779   -36340236.75549 -28014893.61549  17039197.9814   17039203.2604
  18253778.448   -13765595.10149 -10715691.19749  18253778.7414   18253783.0264
  16499867.601   -28199809.69549 -21946347.30149  16499867.2754   16499871.3494
  20878722.206    -6528573.15249  -5060282.38849  20878720.3324   20878727.4494
  18964736.302   -29527676.38249 -22977463.61549  18964735.9144   18964740.5544
  18507380.636   -34240039.46249 -25920797.65649  18507381.0514   18507386.0754
 96  2 19 19 16 29.9870000  0  8 28  2 19 29 18 16 27 31
  19468707.414   -34185981.880 9 -26621910.066 9  19468707.207    19468712.998
  20589230.789   -14324135.58449 -11144003.52449  20589230.4434   20589238.4004
  17018397.612   -36449541.65849 -28100066.25649  17018397.8854   17018403.0324
  18252520.185   -13772212.37849 -10720847.54849  18252519.8654   18252524.0824
  16488203.309   -28261108.26549 -21994112.42949  16488202.5074   16488206.6774
  20850324.153    -6677806.51549  -5176568.12449  20850322.9604   20850329.2924
  18935929.340   -29679053.98249 -23095420.16049  18935929.8504   18935934.4294
  18481950.401   -34373677.26149 -26024930.96849  18481950.7844   18481955.9804
 96  2 19 19 16 59.9870000  0  8 28  2 19 29 18 16 27 31
  19454810.941   -34259007.373 9 -26678813.038 9  19454810.994    19454816.728
  20556190.673   -14497769.23749 -11279302.47249  20556189.0884   20556196.9224
  16997638.571   -36558630.26249 -28185070.35449  16997638.9364   16997644.2514
  18251328.615   -13778470.46449 -10725724.01649  18251328.9234   18251332.9824
  16476634.455   -28321904.03049 -22041485.76649  16476633.5314   16476637.4424
  20822002.963    -6826634.55649  -5292538.01949  20822003.2924   20822007.9444
  18907137.458   -29830358.16449 -23213319.49649  18907137.3544   18907142.0944
  18456606.156   -34506862.91949 -26128711.97149  18456605.6934   18456611.8784
 96  2 19 19 17 29.9870000  0  8 28  2 19 29 18 16 27 31
  19441019.714   -34331482.628 9 -26735287.253 9  19441019.252    19441024.811
  20523177.471   -14671246.22349 -11414479.31049  20523178.0894   20523185.3434
  16976920.199   -36667506.20649 -28269908.74549  16976920.5124   16976925.5874
  18250203.229   -13784383.40049 -10730331.53049  18250203.4284   18250207.6944
  16465157.019   -28382214.26849 -22088480.77349  16465156.8744   16465160.7984
  20793756.573    -6975064.12049  -5408197.40049  20793756.2504   20793763.0534
  18878358.257   -29981592.26149 -23331164.21849  18878358.2804   18878362.8254
  18431348.711   -34639594.07649 -26232138.82849  18431348.5684   18431354.3144
 96  2 19 19 17 59.9870000  0  8 28  2 19 29 18 16 27 31
  19427332.063   -34403407.307 9 -26791332.445 9  19427332.278    19427338.416
  20490197.987   -14844553.78649 -11549524.09449  20490198.4664   20490206.2564
  16956242.153   -36776170.74449 -28354582.40249  16956242.4834   16956247.5464
  18249140.868   -13789964.08449 -10734680.14149  18249141.6794   18249145.9854
  16453773.883   -28442029.61449 -22135090.14749  16453774.1174   16453778.3954
  20765589.999    -7123084.53049  -5523537.96149  20765590.2054   20765596.0584
  18849593.912   -30132749.70949 -23448949.20349  18849594.3044   18849599.2924
  18406178.445   -34771859.58249 -26335202.82849  18406179.4114   18406184.8944
 96  2 19 19 18 29.9870000  0  8 28  2 19 29 18 16 27 31
  19413750.176   -34474785.339 9 -26846951.682 9  19413749.779    19413755.463
  20457248.541   -15017706.94549 -11684448.52349  20457248.5454   20457255.7334
  16935599.778   -36884647.63649 -28439109.84249  16935599.9344   16935605.1034
  18248141.346   -13795219.97249 -10738775.66649  18248141.6174   18248145.5844
  16442484.416   -28501360.71749 -22181322.19249  16442484.2394   16442488.2214
  20737498.717    -7270707.26449  -5638568.62049  20737497.8504   20737503.6164
  18820843.774   -30283834.33849 -23566677.46649  18820843.6024   18820848.6964
  18381098.101   -34903661.59449 -26437905.66649  18381097.3054   18381103.4184
 96  2 19 19 18 59.9870000  0  8 28  2 19 29 18 16 27 31
  19400270.812   -34545621.064 9 -26902148.348 9  19400270.038    19400275.728
  20424326.347   -15190711.16949 -11819256.88449  20424327.2034   20424333.7484
  16914989.872   -36992954.04649 -28523504.43849  16914989.8674   16914994.8634
  18247202.758   -13800151.67049 -10742618.57749  18247202.9004   18247207.2774
  16431282.266   -28560228.29449 -22227193.04549  16431281.9524   16431286.1224
  20709484.297    -7417925.20249  -5753283.86149  20709482.8584   20709490.0564
  18792108.589   -30434839.29649 -23684343.64249  18792108.3644   18792113.2134
  18356108.008   -35034984.99849 -26540235.56749  18356107.3594   18356113.1544
 96  2 19 19 19 29.9870000  0  8 28  2 19 29 18 16 27 31
  19386893.746   -34615916.410 9 -26956923.942 9  19386893.448    19386898.973
  20391433.191   -15363567.08549 -11953949.66149  20391432.8774   20391440.4334
  16894411.505   -37101093.12649 -28607768.65249  16894411.7774   16894416.9214
  18246325.394   -13804762.24849 -10746211.26149  18246325.5774   18246329.9044
  16420168.766   -28618632.09049 -22272702.51449  16420167.7594   16420172.0994
  20681551.797    -7564715.73349  -5867666.05949  20681549.8824   20681555.6034
  18763390.168   -30585751.77349 -23801937.75749  18763390.5834   18763395.5294
  18331211.128   -35165816.21049 -26642181.93749  18331211.1894   18331216.9694
 96  2 19 19 19 59.9870000  0  8 28  2 19 29 18 16 27 31
  19373621.161   -34685666.291 9 -27011274.492 9  19373620.410    19373625.921
  20358570.056   -15536266.02149 -12088520.09849  20358569.5134   20358577.4564
  16873865.123   -37209064.14249 -28691901.90249  16873865.5194   16873870.4044
  18245509.336   -13809048.81049 -10749551.47149  18245510.3014   18245514.5314
  16409144.749   -28676559.28149 -22317840.59849  16409144.8254   16409148.9454
  20653698.244    -7711077.10149  -5981713.86149  20653698.4834   20653704.5374
  18734691.706   -30736566.03649 -23919455.33549  18734691.1394   18734696.8554
  18306409.430   -35296155.52349 -26743745.01649  18306409.0304   18306413.9794
 96  2 19 19 20 29.9870000  0  8 28  2 19 29 18 16 27 31
  19360450.371   -34754872.273 9 -27065201.220 9  19360450.848    19360456.405
  20325733.205   -15708828.39549 -12222984.11949  20325731.8634   20325739.4724
  16853352.212   -37316861.02049 -28775899.46249  16853352.4544   16853357.6064
  18244755.128   -13813013.93049 -10752641.19949  18244755.5444   18244759.8324
  16398210.569   -28734022.00549 -22362616.75549  16398209.9574   16398214.3034
  20625928.249    -7857018.12049  -6095434.12449  20625927.9124   20625933.9744
  18706010.955   -30887282.85949 -24036896.99249  18706010.6234   18706015.6424
  18281700.833   -35426002.49949 -26844924.45149  18281699.5474   18281705.2024
 96  2 19 19 20 59.9870000  0  8 28  2 19 29 18 16 27 31
  19347384.600   -34823530.685 9 -27118701.285 9  19347385.639    19347391.231
  20292921.620   -15881244.86749 -12357334.45949  20292922.0904   20292928.9214
  16832877.673   -37424454.76349 -28859738.73849  16832878.0264   16832883.0494
  18244061.972   -13816659.56849 -10755481.98849  18244061.7384   18244066.1024
  16387366.166   -28791008.28249 -22407021.66149  16387365.7084   16387370.0144
  20598238.915    -8002522.54249  -6208814.19049  20598239.3814   20598244.2794
  18677349.278   -31037899.44049 -24154260.53449  18677349.6994   18677354.3144
  18257085.015   -35555353.49549 -26945717.41849  18257085.0274   18257090.4584
 96  2 19 19 21 29.9870000  0  8 28  2 19 29 18 16 27 31
  19334425.309   -34891642.579 9 -27171775.487 9  19334424.449    19334429.964
  20260141.165   -16053512.90249 -12491569.15849  20260140.7614   20260147.8274
  16812444.836   -37531830.81749 -28943408.38549  16812445.2134   16812450.1494
  18243425.767   -13820000.15449 -10758085.06749  18243426.1364   18243430.3944
  16376618.804   -28847487.78649 -22451031.67749  16376618.2224   16376622.3554
  20570634.191    -8147585.49349  -6321850.23949  20570634.2054   20570640.8344
  18648706.270   -31188421.12049 -24271550.14449  18648706.3254   18648711.1734
  18232564.824   -35684208.22249 -27046123.67749  18232564.2444   18232570.0414
 96  2 19 19 21 59.9870000  0  8 28  2 19 29 18 16 27 31
  19321566.143   -34959210.637 9 -27224425.922 9  19321566.582    19321572.109
  20227389.312   -16225626.99349 -12625683.89649  20227387.9324   20227395.1794
  16792054.101   -37638984.43349 -29026904.70249  16792054.3904   16792059.4054
  18242846.298   -13823049.31449 -10760461.05849  18242846.1874   18242850.3074
  16365968.476   -28903450.87449 -22494639.28349  16365968.6844   16365972.8404
  20543112.979    -8292217.20349  -6434550.26949  20543110.8244   20543117.9824
  18620077.944   -31338863.21149 -24388777.71949  18620077.8534   18620083.2534
  18208137.422   -35812573.99449 -27146148.93749  18208137.5614   18208142.8894
 96  2 19 19 22 29.9870000  0  8 28  2 19 29 18 16 27 31
  19308812.652   -35026236.581 9 -27276653.934 9  19308811.982    19308817.544
  20194668.929   -16397571.84049 -12759666.77349  20194667.6664   20194675.1614
  16771705.867   -37745915.43849 -29110227.55849  16771706.1364   16771711.1444
  18242321.233   -13825806.75549 -10762609.74649  18242321.5444   18242325.7314
  16355418.263   -28958895.20749 -22537842.66949  16355418.0624   16355422.1644
  20515673.555    -8436402.55749  -6546902.48549  20515674.3404   20515680.4304
  18591464.172   -31489230.49749 -24505947.01549  18591464.3624   18591468.8424
  18183802.959   -35940453.84149 -27245795.54549  18183802.2704   18183808.5844
 96  2 19 19 22 59.9870000  0  8 28  2 19 29 18 16 27 31
  19296159.396   -35092725.337 9 -27328463.358 9  19296159.688    19296165.335
  20161982.549   -16569335.34849 -12893508.37049  20161982.1904   20161989.7564
  16751396.514   -37852642.28649 -29193391.33649  16751396.6574   16751401.7334
  18241852.694   -13828270.96349 -10764529.93949  18241852.4924   18241856.6774
  16344967.515   -29013814.96649 -22580637.29649  16344967.1484   16344971.5694
  20488324.130    -8580135.57849  -6658902.21449  20488322.0264   20488328.3174
  18562862.715   -31639532.00549 -24623065.06349  18562862.8424   18562867.8754
  18159560.714   -36067846.01149 -27345062.15949  18159561.3774   18159566.3994
 96  2 19 19 23 29.9870000  0  8 28  2 19 29 18 16 27 31
  19283610.170   -35158679.972 9 -27379856.580 9  19283608.852    19283614.592
  20129331.298   -16740922.00549 -13027212.19049  20129330.6304   20129337.5264
  16731121.204   -37959189.64349 -29276415.24749  16731121.3214   16731126.3404
  18241442.253   -13830424.42649 -10766207.98549  18241442.5854   18241447.0774
  16334615.830   -29068215.08949 -22623027.00549  16334615.1914   16334619.7004
  20461056.495    -8723423.68349  -6770555.25249  20461056.4264   20461061.4524
  18534271.656   -31789779.21049 -24740140.78049  18534271.8824   18534277.0934
  18135410.182   -36194755.81249 -27443952.88349  18135409.9114   18135416.0494
 96  2 19 19 23 59.9870000  0  8 28  2 19 29 18 16 27 31
  19271159.926   -35224103.873 9 -27430836.244 9  19271159.297    19271164.979
  20096711.606   -16912332.31749 -13160778.59949  20096712.3494   20096719.2514
  16710876.056   -38065578.64249 -29359315.76549  16710876.2284   16710881.1544
  18241096.832   -13832244.61049 -10767626.34249  18241096.6204   18241100.7814
  16324357.210   -29122123.89449 -22665033.87249  16324356.8104   16324361.0514
  20433872.064    -8866276.49549  -6881869.10549  20433871.7644   20433877.8204
  18505689.891   -31939978.24949 -24857178.98049  18505689.7154   18505694.7654
  18111352.392   -36321186.21249 -27542470.05249  18111351.8244   18111356.7124
 96  2 19 19 24 29.9860000  0  8 28  2 19 29 18 16 27 31
  19258810.125   -35288996.491 9 -27481401.926 9  19258810.522    19258816.426
  20064125.720   -17083573.69649 -13294213.39449  20064125.8544   20064133.0244
  16690656.306   -38171833.50849 -29442111.76249  16690656.6194   16690661.5084
  18240816.067   -13833714.87849 -10768772.03749  18240816.4954   18240820.9514
  16314187.976   -29175564.37549 -22706675.80749  16314187.1334   16314191.4014
  20406767.662    -9008703.04049  -6992850.81249  20406768.8714   20406774.7214
  18477118.819   -32090118.54149 -24974171.38949  18477119.2434   18477123.7524
  18087387.274   -36447119.35249 -27640599.72449  18087386.8374   18087393.7334
 96  2 19 19 24 59.9860000  0  8 28  2 19 29 18 16 27 31
  19246563.263   -35353361.486 9 -27531556.476 9  19246562.488    19246567.999
  20031568.195   -17254670.41649 -13427535.48149  20031567.8434   20031573.8024
  16670460.039   -38277966.83449 -29524813.05649  16670459.9944   16670465.1064
  18240601.668   -13834841.52949 -10769649.98449  18240602.1054   18240606.2564
  16304107.129   -29228538.46249 -22747954.32149  16304106.7454   16304110.9514
  20379741.036    -9150737.25649  -7103526.83449  20379739.7224   20379746.3404
  18448557.733   -32240207.52749 -25091123.83049  18448557.6884   18448562.8684
  18063517.706   -36572559.14749 -27738344.99349  18063517.3354   18063523.2574
 96  2 19 19 25 29.9860000  0  8 28  2 19 29 18 16 27 31
  19234415.222   -35417193.514 9 -27581295.732 9  19234415.655    19234421.041
  19999037.321   -17425620.91549 -13560743.65249  19999036.5784   19999043.6054
  16650290.910   -38383954.18849 -29607400.60249  16650291.4024   16650296.1364
  18240451.888   -13835626.30249 -10770261.52749  18240452.8224   18240457.1674
  16294116.147   -29281041.04049 -22788865.42349  16294115.7444   16294120.1104
  20352785.316    -9292381.39949  -7213898.86849  20352786.5494   20352792.6234
  18420009.821   -32390228.58749 -25208023.33449  18420009.7734   18420014.9014
  18039740.747   -36697505.09949 -27835705.44249  18039740.7454   18039746.0364
 96  2 19 19 25 59.9860000  0  8 28  2 19 29 18 16 27 31
  19222368.513   -35480503.204 9 -27630627.960 9  19222368.095    19222373.414
  19966532.776   -17596431.58249 -13693842.86749  19966532.2754   19966539.1154
  16630152.853   -38489781.28249 -29689863.27049  16630153.0934   16630158.1904
  18240362.123   -13836104.57349 -10770634.24749  18240361.9054   18240366.2694
  16284213.423   -29333081.15849 -22829416.16649  16284213.0764   16284217.3834
  20325904.892    -9433647.10449  -7323976.03949  20325904.4764   20325911.4804
  18391476.271   -32540175.25049 -25324864.86349  18391475.8674   18391481.3444
  18016056.997   -36821956.10449 -27932680.21849  18016057.7004   18016063.5774
 96  2 19 19 26 29.9860000  0  8 28  2 19 29 18 16 27 31
  19210418.646   -35543287.285 9 -27679550.626 9  19210420.725    19210426.184
  19934054.884   -17767104.37049 -13826834.65049  19934054.3574   19934061.1394
  16610050.993   -38595418.09049 -29772177.66549  16610051.1694   16610056.2484
  18240325.635   -13836294.85849 -10770782.57049  18240325.2184   18240330.0694
  16274401.163   -29384642.90649 -22869594.15349  16274401.0154   16274405.5004
  20299096.214    -9574530.40049  -7433755.21849  20299095.4354   20299101.3464
  18362958.262   -32690035.10949 -25441638.75649  18362958.6024   18362963.8974
  17992470.179   -36945908.04149 -28029266.10149  17992470.9564   17992476.0434
 96  2 19 19 26 59.9860000  0  8 28  2 19 29 18 16 27 31
  19198574.094   -35605545.895 9 -27728063.834 9  19198573.459    19198579.132
  19901606.637   -17937622.49049 -13959705.90249  19901605.4754   19901612.9644
  16589992.033   -38700828.40549 -29854315.57049  16589992.2564   16589997.2024
  18240340.410   -13836215.44549 -10770720.70749  18240340.0934   18240345.1584
  16264683.061   -29435713.49949 -22909389.42249  16264682.7824   16264687.2574
  20272364.350    -9715006.55749  -7543217.16149  20272363.6894   20272369.7104
  18334457.259   -32839808.50349 -25558345.27849  18334457.6794   18334463.0244
  17968978.630   -37069365.26249 -28125466.50349  17968977.3994   17968983.5154
 96  2 19 19 27 29.9860000  0  8 28  2 19 29 18 16 27 31
  19186825.424   -35667281.380 9 -27776169.416 9  19186825.509    19186831.443
  19869185.527   -18107986.82049 -14092457.32149  19869186.3034   19869193.7504
  16569977.561   -38806004.65249 -29936271.08349  16569977.9994   16569982.7214
  18240403.858   -13835878.87749 -10770458.47649  18240404.3674   18240409.0574
  16255053.874   -29486315.31649 -22948819.40749  16255053.4664   16255058.1824
  20245713.767    -9855054.77249  -7652345.62449  20245713.3154   20245720.0214
  18305972.676   -32989497.86749 -25674986.31949  18305972.8224   18305978.0834
  17945580.311   -37192323.63249 -28221278.17949  17945579.3844   17945584.1784
 96  2 19 19 27 59.9860000  0  8 28  2 19 29 18 16 27 31
  19175179.292   -35728485.878 9 -27823861.244 9  19175178.576    19175184.751
  19836799.596   -18278177.81849 -14225073.65949  19836800.1654   19836807.2294
  16550005.410   -38910959.88449 -30018054.37949  16550005.5544   16550010.5834
  18240516.074   -13835287.29649 -10769997.54049  18240517.0244   18240522.4424
  16245514.955   -29536443.77649 -22987880.54949  16245514.2034   16245518.9234
  20219147.790    -9994660.18349  -7761129.03549  20219147.1114   20219153.5654
  18277504.028   -33139101.38049 -25791560.47249  18277504.2794   18277509.5004
  17922279.304   -37314769.75649 -28316690.70749  17922278.7034   17922284.5594
 96  2 19 19 28 29.9860000  0  8 28  2 19 29 18 16 27 31
  19163632.141   -35789160.141 9 -27871139.902 9  19163632.801    19163638.284
  19804447.137   -18448193.19849 -14357553.14449  19804446.5544   19804453.9304
  16530070.522   -39015718.27249 -30099684.28949  16530070.7454   16530075.6954
  18240678.496   -13834435.35449 -10769333.72549  18240679.3634   18240683.8594
  16236066.242   -29586092.95349 -23026568.22549  16236066.1154   16236070.6754
  20192668.833   -10133812.85949  -7869559.68949  20192667.9174   20192673.6704
  18249049.254   -33288631.49449 -25908077.43349  18249049.2694   18249054.2754
  17899075.160   -37436706.22449 -28411706.10449  17899075.1044   17899080.2624
 96  2 19 19 28 59.9860000  0  8 28  2 19 29 18 16 27 31
  19152188.921   -35849310.054 9 -27918009.962 9  19152186.592    19152191.973
  19772127.852   -18618037.98749 -14489899.70549  19772126.5854   19772134.3244
  16510167.944   -39120305.62349 -30181180.92049  16510168.2574   16510173.2154
  18240888.564   -13833331.10049 -10768473.30549  18240889.0694   18240893.9204
  16226708.157   -29635273.38749 -23064890.64849  16226707.4794   16226712.0084
  20166275.681   -10272505.74549  -7977632.06449  20166274.6134   20166281.3104
  18220607.065   -33438096.57349 -26024543.70649  18220607.3304   18220612.3434
  17875967.135   -37558140.07149 -28506329.85449  17875966.3134   17875971.8704
 96  2 19 19 29 29.9860000  0  8 28  2 19 29 18 16 27 31
  19140841.744   -35908928.192 9 -27964465.653 9  19140841.734    19140847.142
  19739835.793   -18787721.99549 -14622120.97349  19739836.1994   19739843.9224
  16490296.809   -39224729.88549 -30262550.47349  16490296.9204   16490302.1334
  18241151.462   -13831953.88849 -10767400.19149  18241151.5654   18241156.6884
  16217439.312   -29683981.22749 -23102844.81149  16217438.8434   16217443.3994
  20139971.000   -10410736.70449  -8085344.48049  20139970.6054   20139977.0764
  18192178.177   -33587491.64649 -26140955.42649  18192178.3054   18192183.4484
  17852955.683   -37679062.82649 -28600555.35249  17852955.3784   17852961.2094
 96  2 19 19 29 59.9860000  0  8 28  2 19 29 18 16 27 31
  19129597.822   -35968016.602 9 -28010508.572 9  19129597.658    19129603.249
  19707577.328   -18957247.12549 -14754218.43749  19707576.2074   19707584.4344
  16470455.282   -39328997.25949 -30343797.77949  16470455.5054   16470460.3924
  18241470.944   -13830276.50949 -10766093.18749  18241471.0734   18241475.7794
  16208260.926   -29732209.70449 -23140425.45549  16208261.0774   16208265.6764
  20113754.961   -10548506.52649  -8192697.58649  20113754.4474   20113759.8734
  18163763.538   -33736812.72849 -26257309.50549  18163763.3214   18163768.9364
  17830042.465   -37799474.57249 -28694382.66949  17830042.1304   17830047.1854
 96  2 19 19 30 29.9860000  0  8 28  2 19 29 18 16 27 31
  19118454.456   -36026577.174 9 -28056140.187 9  19118453.697    19118459.777
  19675345.563   -19126624.62949 -14886200.85849  19675345.4004   19675352.5934
  16450647.021   -39433090.79549 -30424909.62449  16450647.0974   16450652.2434
  18241846.894   -13828297.77649 -10764551.36049  18241847.1674   18241852.0124
  16199172.592   -29779971.93149 -23177642.77749  16199172.3024   16199177.0564
  20087626.524   -10685806.69749  -8299684.69749  20087625.8274   20087632.2814
  18135362.375   -33886061.55849 -26373607.27549  18135362.4564   18135367.4604
  17807225.234   -37919379.87249 -28787815.34849  17807225.3374   17807230.2214
 96  2 19 19 30 59.9860000  0  8 28  2 19 29 18 16 27 31
  19107412.344   -36084602.888 9 -28101355.025 9  19107411.831    19107417.915
  19643140.613   -19295859.03249 -15018071.76849  19643141.5024   19643148.6714
  16430875.557   -39536990.57249 -30505870.48849  16430875.7934   16430880.8954
  18242281.266   -13826012.96649 -10762771.02949  18242282.2814   18242287.0314
  16190170.753   -29827279.02349 -23214505.45649  16190169.9664   16190174.6944
  20061589.380   -10822640.07349  -8406308.09149  20061587.5804   20061594.4944
  18106976.992   -34035227.56049 -26489840.50549  18106976.7464   18106982.3074
  17784504.784   -38038775.65949 -28880851.01049  17784504.5284   17784509.7184
 96  2 19 19 31 29.9860000  0  8 28  2 19 29 18 16 27 31
  19096470.573   -36142100.417 9 -28146158.292 9  19096470.502    19096476.097
  19610964.983   -19464948.89949 -15149830.05549  19610964.2294   19610971.4844
  16411141.730   -39640692.13949 -30586676.90549  16411141.9194   16411147.0034
  18242777.508   -13823406.94749 -10760740.40449  18242778.4514   18242782.7734
  16181253.324   -29874138.24749 -23251019.14649  16181252.7984   16181257.6344
  20035634.607   -10959026.71349  -8512583.36849  20035633.7264   20035640.4254
  18078605.003   -34184322.54549 -26606018.39049  18078604.7954   18078610.7794
  17761881.189   -38157662.90249 -28973490.40349  17761881.2624   17761886.7204
 96  2 19 19 31 59.9860000  0  8 28  2 19 29 18 16 27 31
  19085630.824   -36199073.234 9 -28190552.690 9  19085628.826    19085634.516
  19578818.549   -19633876.86549 -15281462.16649  19578817.9834   19578825.5864
  16391445.733   -39744196.22049 -30667329.43849  16391445.9894   16391450.9004
  18243333.370   -13820490.43549 -10758467.83649  18243333.2344   18243338.1114
  16172423.113   -29920540.75549 -23287176.95149  16172422.8854   16172427.6064
  20009764.987   -11094980.99649  -8618521.74749  20009763.2664   20009769.2374
  18050246.649   -34333345.46349 -26722140.12849  18050246.9144   18050252.3174
  17739354.649   -38276042.95749 -29065734.59449  17739354.1094   17739359.5364
 96  2 19 19 32 29.9860000  0  8 28  2 19 29 18 16 27 31
  19074887.338   -36255523.710 9 -28234540.071 9  19074886.624    19074892.160
  19546704.286   -19802635.73149 -15412962.51249  19546704.6244   19546711.7884
  16371787.566   -39847501.09449 -30747826.74349  16371787.7004   16371792.5624
  18243940.828   -13817300.24649 -10755982.01149  18243940.7224   18243945.5314
  16163681.810   -29966478.89049 -23322972.90749  16163680.9684   16163685.5904
  19983971.506   -11230517.37249  -8724134.48949  19983971.1554   19983977.9244
  18021900.519   -34482304.79749 -26838212.31249  18021900.5704   18021906.4174
  17716924.490   -38393913.51349 -29157581.77549  17716924.1714   17716929.4064
 96  2 19 19 32 59.9860000  0  8 28  2 19 29 18 16 27 31
  19064244.381   -36311450.001 9 -28278119.001 9  19064244.172    19064249.937
  19514626.173   -19971211.59149 -15544320.26049  19514626.5794   19514633.2444
  16352167.285   -39950604.48349 -30828167.04149  16352167.4764   16352172.5324
  18244603.206   -13813816.91149 -10753267.76449  18244603.1554   18244607.9874
  16155030.436   -30011940.87949 -23358397.83949  16155030.1794   16155034.8954
  19958258.211   -11365639.03149  -8829424.09749  19958258.5644   19958264.6034
  17993567.933   -34631193.98549 -26954229.83449  17993568.1834   17993573.5114
  17694595.161   -38511254.80749 -29249016.54249  17694594.9824   17694600.3984
 96  2 19 19 33 29.9860000  0  8 28  2 19 29 18 16 27 31
  19053702.260   -36366855.791 9 -28321292.337 9  19053700.837    19053706.427
  19482586.026   -20139584.93449 -15675520.20549  19482585.4774   19482592.4614
  16332585.062   -40053511.61249 -30908354.41149  16332585.2144   16332590.0954
  18245322.427   -13810040.05049 -10750324.79649  18245321.9024   18245326.7004
  16146473.495   -30056906.48049 -23393435.98149  16146473.5694   16146478.2564
  19932629.133   -11500330.37349  -8934378.38849  19932627.0184   19932634.4574
  17965248.663   -34780014.43649 -27070193.81349  17965248.5834   17965254.1594
  17672368.698   -38628058.85849 -29340032.67349  17672367.6594   17672373.2624
 96  2 19 19 33 59.9850000  0  8 28  2 19 29 18 16 27 31
  19043257.166   -36421740.438 9 -28364059.593 9  19043256.781    19043262.181
  19450585.434   -20307748.14149 -15806556.40949  19450585.3424   19450592.3894
  16313038.350   -40156229.09049 -30988394.00549  16313038.7024   16313043.5714
  18246090.944   -13806003.47349 -10747179.46249  18246089.9084   18246094.7844
  16138013.899   -30101365.92249 -23428079.71649  16138013.0244   16138017.6724
  19907085.041   -11634560.41449  -9038973.20849  19907083.2254   19907090.8274
  17936946.027   -34928746.87449 -27186089.20749  17936946.0444   17936951.3304
  17650245.593   -38744311.56549 -29430619.19049  17650245.7724   17650251.4614
 96  2 19 19 34 29.9850000  0  8 28  2 19 29 18 16 27 31
  19032911.870   -36476104.909 9 -28406421.514 9  19032911.417    19032917.199
  19418620.796   -20475719.08349 -15937442.79149  19418620.9634   19418628.6274
  16293526.783   -40258763.59549 -31068291.01949  16293526.9764   16293531.8714
  18246906.354   -13801708.11349 -10743832.47149  18246907.9184   18246912.1964
  16129647.617   -30145326.85549 -23462334.99749  16129647.6964   16129652.2484
  19881631.781   -11768314.50149  -9143197.18249  19881631.5074   19881637.1674
  17908657.884   -35077400.87249 -27301923.47549  17908657.9724   17908663.0814
  17628228.994   -38860016.93049 -29520779.21049  17628227.8664   17628233.1794
 96  2 19 19 34 59.9850000  0  8 28  2 19 29 18 16 27 31
  19022664.772   -36529949.985 9 -28448378.714 9  19022665.303    19022670.775
  19386693.460   -20643499.29349 -16068180.55449  19386694.2514   19386700.5804
  16274046.799   -40361130.17049 -31148057.18149  16274047.1904   16274052.1394
  18247777.194   -13797138.96649 -10740272.15049  18247777.5414   18247781.9804
  16121377.116   -30188791.32949 -23496203.43149  16121376.6794   16121381.3954
  19856271.619   -11901581.54349  -9247041.62249  19856272.1844   19856277.5794
  17880385.068   -35225974.09549 -27417694.80849  17880385.2374   17880390.3514
  17606313.834   -38975177.44149 -29610514.65849  17606313.8694   17606318.4044
 96  2 19 19 35 29.9850000  0  8 28  2 19 29 18 16 27 31
  19012518.158   -36583270.916 9 -28489927.492 9  19012518.522    19012524.390
  19354801.108
  16254599.092   -40463328.34549 -31227692.11949  16254599.5214   16254604.5384
  18248694.290   -13792314.04849 -10736512.52149  18248695.2904   18248699.6744
  16113201.522   -30231751.13049 -23529678.60949  16113201.6464   16113206.5774
  19831008.251   -12034345.53949  -9350494.07749  19831007.0474   19831012.9574
  17852130.606   -35374451.70849 -27533391.64249  17852130.8754   17852136.0784
  17584502.734   -39089795.39449 -29699827.34149  17584502.5044   17584507.6694
 96  2 19 19 35 59.9850000  0  8 28  2 19 29 18 16 27 31
  19002473.200   -36636066.777 9 -28531067.124 9  19002471.366    19002477.720
  19322945.596     -221628.12719   -114249.01159                  19322952.6644
  16235184.690   -40565352.73449 -31307191.63649  16235184.9744   16235189.9454
  18249661.222   -13787238.14449 -10732557.31849  18249660.9334   18249666.0744
  16105120.040   -30274222.98549 -23562773.56949  16105119.4264   16105124.2524
  19805834.948   -12166630.09649  -9453572.93649  19805835.2764   19805840.2064
  17823896.083   -35522827.00549 -27649008.74949  17823895.8964   17823901.3034
  17562794.918   -39203870.39449 -29788716.94049  17562795.0074   17562800.2814
 96  2 19 19 36 29.9850000  0  8 28  2 19 29 18 16 27 31
  18992523.551   -36688337.405 9 -28571797.498 9  18992524.653    18992530.887
  19291115.809     -388868.59459   -244566.23749  19291120.2544   19291127.0474
  16215804.214   -40667199.71549 -31386552.92049  16215804.1764   16215809.0434
  18250677.457   -13781900.93149 -10728398.49749  18250677.2574   18250682.6254
  16097125.854   -30316222.71049 -23595500.63749  16097126.9314   16097131.9384
  19780748.692   -12298459.47849  -9556297.08849  19780749.0044   19780754.7054
  17795678.221   -35671112.91449 -27764556.20749  17795678.3344   17795683.2524
  17541187.210   -39317418.98349 -29877196.34749  17541186.8754   17541192.4394
 96  2 19 19 36 59.9850000  0  7 28 19 29 18 16 27 31
  18982678.738   -36740078.792 9 -28612115.467 9  18982678.568    18982684.604
  16196458.988   -40768857.41949 -31465766.71049  16196459.2244   16196464.2624
  18251745.592   -13776287.24949 -10724024.25049  18251745.5194   18251750.1544
  16089225.729   -30357748.38649 -23627858.32249  16089224.9084   16089229.6144
  19755748.386   -12429833.47449  -9658666.44949  19755748.1564   19755754.9754
  17767480.548   -35819292.51249 -27880020.82649  17767480.8184   17767485.7794
  17519681.199   -39430431.67349 -29965258.17249  17519681.2924   17519686.6924
 96  2 19 19 37 29.9850000  0  8 28  2 19 29 18 16 27 31
  18972934.501   -36791292.727 9 -28652022.433 9  18972932.874    18972938.832
  19227566.688     -163560.69819
  16177153.450   -40870309.12449 -31544819.98249  16177153.7064   16177158.6994
  18252865.221   -13770402.23949 -10719438.57349  18252865.4514   18252870.1744
  16081410.214   -30398817.23549 -23659860.02949  16081409.6344   16081414.5164
  19730836.136   -12560751.46149  -9760680.45649  19730836.4164   19730841.9354
  17739302.839   -35967367.09049 -27995403.60049  17739302.8604   17739307.6414
  17498277.725   -39542909.57149 -30052903.26749  17498277.6244   17498282.3114
 96  2 19 19 37 59.9850000  0  8 28  2 19 29 18 16 27 31
  18963288.342   -36841977.736 9 -28691517.253 9  18963287.951    18963293.666
  19195844.606     -330273.91259   -217809.04959  19195843.6774   19195850.9924
  16157886.937   -40971556.13549 -31623713.75149  16157887.0834   16157892.0544
  18254038.730   -13764236.91049 -10714634.46149  18254038.1504   18254043.5274
  16073681.344   -30439435.10949 -23691510.33549  16073680.5714   16073685.3474
  19706009.102   -12691221.38449  -9862345.33049  19706008.8534   19706014.1404
  17711142.497   -36115351.30649 -28110715.96849  17711142.5874   17711148.0754
  17476976.002   -39654850.72849 -30140130.13349  17476975.9744   17476981.0044
 96  2 19 19 38 29.9850000  0  8 28  2 19 29 18 16 27 31
  18953744.928   -36892130.845 9 -28730597.606 9  18953744.195    18953749.820
  19164158.910     -496800.26849   -347569.80349  19164153.8704   19164162.4434
  16138659.559   -41072596.27449 -31702446.32349  16138659.7934   16138664.8944
  18255267.422   -13757779.88249 -10709603.05949  18255267.3424   18255271.6214
  16066039.135   -30479592.68449 -23722801.96449  16066038.8194   16066043.8244
  19681272.679   -12821209.15249  -9963634.50049  19681273.3594   19681278.2724
  17682996.872   -36263255.87349 -28225966.26949  17682997.0364   17683002.1854
  17455776.900   -39766251.29249 -30226935.75649  17455776.7614   17455781.7834
 96  2 19 19 38 59.9850000  0  8 28  2 19 29 18 16 27 31
  18944303.290   -36941748.101 9 -28769260.403 9  18944302.394    18944308.233
  19132502.516     -663123.14159   -477171.98859  19132504.8414   19132512.2564
  16119474.346   -41173414.21249 -31781005.75149  16119474.7694   16119479.6254
  18256551.994   -13751026.99849 -10704341.12249  18256552.1034   18256557.7194
  16058488.091   -30519276.07249 -23753724.10349  16058487.6204   16058492.4324
  19656632.666   -12950697.18849 -10064534.27649  19656631.4014   19656637.4354
  17654866.516   -36411082.80549 -28341156.08449  17654866.6684   17654871.8004
  17434686.291   -39877083.90249 -30313298.81549  17434685.9214   17434692.0034
 96  2 19 19 39 29.9850000  0  8 28  2 19 29 18 16 27 31
  18934962.047   -36990829.694 9 -28807505.808 9  18934962.438    18934968.233
  19100895.617     -829232.45449   -606607.78749  19100895.8114   19100901.9764
  16100330.231   -41274015.90949 -31859396.67749  16100330.9064   16100336.0154
  18257890.266   -13743998.97849 -10698864.79149  18257890.0794   18257894.5034
  16051028.968   -30558475.41749 -23784269.06149  16051028.3174   16051032.9634
  19632084.443   -13079695.36049 -10165052.33849  19632085.1404   19632089.6164
  17626749.214   -36558840.34349 -28456291.81549  17626748.9704   17626754.4174
  17413703.957   -39987345.89549 -30399217.23949  17413704.3464   17413709.7154
 96  2 19 19 39 59.9850000  0  8 28  2 19 29 18 16 27 31
  18925724.575   -37039375.392 9 -28845333.622 9  18925724.301    18925730.281
  19069324.996     -995134.24149   -735881.86349  19069324.9934   19069332.6874
  16081228.428   -41374398.97749 -31937617.24549  16081228.6304   16081233.5994
  18259278.216   -13736704.91249 -10693181.15649  18259277.8414   18259282.6964
  16043664.741   -30597171.46349 -23814421.84349  16043664.7064   16043669.2164
  19607632.771   -13208197.36849 -10265183.75949  19607631.3604   19607635.2704
  17598646.531   -36706519.54249 -28571366.50049  17598646.4424   17598651.8424
  17392831.629   -40097030.22849 -30484685.53649  17392831.4034   17392837.3204
 96  2 19 19 40 29.9850000  0  8 28  2 19 29 18 16 27 31
  18916587.751   -37087386.770 9 -28882745.084 9  18916587.835    18916593.884
  19037793.920    -1160833.23349   -864997.91949  19037793.7074   19037800.4834
  16062168.645   -41474557.53349 -32015662.87249  16062169.1604   16062174.2794
  18260716.632   -13729143.76549 -10687289.40049  18260716.4024   18260721.4634
  16036396.566   -30635366.38949 -23844184.14049  16036396.5664   16036401.2284
  19583273.869   -13336199.35649 -10364925.55849  19583273.4104   19583279.2474
  17570562.963   -36854099.25249 -28686363.66449  17570563.4084   17570568.5864
  17372070.502   -40206133.21549 -30569700.84149  17372069.6874   17372076.2694
 96  2 19 19 40 59.9850000  0  8 28  2 19 29 18 16 27 31
  18907554.699   -37134865.571 9 -28919741.547 9  18907552.853    18907559.229
  19006302.369    -1326323.02649   -993950.97149  19006302.0644   19006309.3844
  16043149.270   -41574506.15349 -32093544.91849  16043149.6854   16043154.4824
  18262204.577   -13721321.27349 -10681194.00249  18262205.5954   18262210.9374
  16029223.437   -30673062.31549 -23873557.60849  16029223.2504   16029227.8054
  19559008.520   -13463716.03249 -10464289.18849  19559007.7064   19559012.9104
  17542503.089   -37001555.53249 -28801264.65449  17542503.0644   17542508.3474
  17351420.428   -40314645.64649 -30654255.97349  17351420.7804   17351425.9914
 96  2 19 19 41 29.9850000  0  8 28  2 19 29 18 16 27 31
  18898619.566   -37181815.052 9 -28956325.562 9  18898618.791    18898624.813
  18974850.232    -1491602.82349  -1122740.38449  18974849.9504   18974857.1514
  16024168.705   -41674250.18549 -32171267.53749  16024169.0544   16024173.8204
  18263744.718   -13713232.67449 -10674891.24649  18263744.6444   18263750.3634
  16022143.714   -30710270.17449 -23902550.76149  16022142.7444   16022147.3534
  19534836.178   -13590741.04249 -10563269.70349  19534835.7914   19534840.9864
  17514470.213   -37148869.04549 -28916054.38949  17514470.5584   17514475.5794
  17330882.644   -40422575.48849 -30738357.12249  17330882.7734   17330887.9734
 96  2 19 19 41 59.9850000  0  8 28  2 19 29 18 16 27 31
  18889786.261   -37228235.891 9 -28992497.646 9  18889785.231    18889791.256
  18943440.247    -1656668.58549  -1251363.03949  18943439.1904   18943446.4074
  16005229.242   -41773777.03349 -32248820.92749  16005229.5414   16005234.5594
  18265337.456   -13704857.14049 -10668364.91049  18265338.5544   18265343.8014
  16015153.324   -30747000.92549 -23931172.14349  16015153.0124   16015157.5104
  19510761.972   -13717245.84349 -10661844.86249  19510762.7164   19510767.2834
  17486463.970   -37296041.84349 -29030734.47749  17486464.2614   17486469.8974
  17310456.284   -40529917.47649 -30822000.20449  17310456.1064   17310461.2864
 96  2 19 19 42 29.9850000  0  8 28  2 19 29 18 16 27 31
  18881052.440   -37274128.230 9 -29028257.914 9  18881052.233    18881058.511
  18912072.264    -1821505.18949  -1379807.11349  18912071.8564   18912078.8914
  15986330.085   -41873093.09849 -32326210.06549  15986330.3554   15986335.2274
  18266989.064   -13696184.29149 -10661606.89649  18266988.7764   18266994.0584
  16008253.600   -30783257.22849 -23959423.82249  16008253.7164   16008258.4164
  19486788.382   -13843233.95449 -10760017.41049  19486788.0064   19486792.7944
  17458484.442   -37443076.37349 -29145306.81349  17458484.4244   17458490.1444
  17290142.440   -40636664.68349 -30905179.81549  17290142.8114   17290147.9034
 96  2 19 19 42 59.9850000  0  8 28  2 19 29 18 16 27 31
  18872419.967   -37319494.507 9 -29063608.253 9  18872419.155    18872425.579
  18880749.143    -1986115.90649  -1508075.17749  18880747.4664   18880754.1904
  15967470.722   -41972200.62849 -32403436.71549  15967470.8874   15967475.4944
  18268692.131   -13687227.14749 -10654627.35049  18268693.9914   18268698.2184
  16001446.466   -30819031.89149 -23987300.19949  16001445.8164   16001451.0244
  19462911.546   -13968706.53149 -10857788.24249  19462910.9744   19462916.3894
  17430527.590   -37589991.02049 -29259785.73449  17430527.5804   17430532.8784
  17269943.587   -40742815.39349 -30987894.62649  17269942.8914   17269947.9364
 96  2 19 19 43 29.9840000  0  8 28  2 19 29 18 16 27 31
  18863885.484   -37364339.786 9 -29098552.630 9  18863885.340    18863892.066
  18849463.580    -2150515.78749  -1636178.95049  18849464.2374   18849469.6874
  15948655.297   -42071076.27349 -32480482.67549  15948655.5454   15948660.4084
  18270450.322   -13678000.59349 -10647437.87249  18270449.6984   18270454.6114
  15994732.548   -30854311.81949 -24014791.06949  15994732.5204   15994737.2824
  19439132.903   -14093667.17049 -10955160.16649  19439131.8774   19439136.4774
  17402589.147   -37736805.96149 -29374186.96649  17402589.4084   17402594.8704
  17249853.413   -40848385.96249 -31070157.37649  17249853.6454   17249858.3814
 96  2 19 19 43 59.9840000  0  8 28  2 19 29 18 16 27 31
  18855449.259   -37408668.189 9 -29133094.245 9  18855450.014    18855456.581
  18818216.437    -2314727.96849  -1764136.47249  18818214.2954   18818221.3624
  15929879.305   -42169743.99849 -32557366.62049  15929879.5644   15929884.2754
  18272254.441   -13668510.81149 -10640043.28749  18272254.9184   18272260.5874
  15988114.789   -30889088.16249 -24041889.53249  15988114.6314   15988119.7334
  19415445.087   -14218142.59449 -11052153.99949  19415444.8084   19415450.1744
  17374666.928   -37883539.84549 -29488525.02649  17374667.0434   17374672.6054
  17229871.635   -40953390.79749 -31151979.29149  17229872.1264   17229877.1384
 96  2 19 19 44 29.9840000  0  8 28  2 19 29 18 16 27 31
  18847115.999   -37452472.326 9 -29167227.343 9  18847114.095    18847120.844
  18787003.491    -2478742.92749  -1891940.32049  18787003.4334   18787010.6804
  15911141.910   -42268208.74549 -32634092.39949  15911142.2964   15911147.1554
  18274107.506   -13658776.20549 -10632457.92849  18274107.9874   18274113.6724
  15981591.560   -30923365.51449 -24068599.17949  15981591.7954   15981597.0914
  19391846.913   -14342152.17149 -11148784.83349  19391846.1224   19391851.1744
  17346762.885   -38030175.80349 -29602786.78649  17346763.2744   17346768.2314
  17209999.825   -41057821.71849 -31233354.00549  17209999.3364   17210004.0794
 96  2 19 19 44 59.9840000  0  8 28  2 19 29 18 16 27 31
  18838877.578   -37495750.988 9 -29200950.990 9  18838878.586    18838884.984
  18755832.912    -2642553.01349  -2019584.52949  18755831.9074   18755838.7864
  15892445.338   -42366461.01749 -32710652.60849  15892445.5824   15892450.4564
  18276005.405   -13648802.16449 -10624685.99849  18276005.8634   18276011.3274
  15975162.245   -30957151.36649 -24094925.83449  15975162.6494   15975167.5654
  19368338.785   -14465687.06049 -11245045.78149  19368338.7304   19368343.9884
  17318876.573   -38176719.46249 -29716976.62249  17318876.4304   17318882.0224
  17190235.289   -41161683.64949 -31314285.34549  17190235.0814   17190240.2514
 96  2 19 19 45 29.9840000  0  8 28  2 19 29 18 16 27 31
  18830743.842   -37538505.304 9 -29234266.056 9  18830742.858    18830749.075
  18724702.690    -2806141.25849  -2147055.86249  18724702.8944   18724708.8484
  15873790.435   -42464493.35649 -32787041.44349  15873790.8044   15873795.6894
  18277951.385   -13638579.99649 -10616720.70949  18277950.5624   18277955.7194
  15968828.010   -30990444.32649 -24120868.41549  15968827.2234   15968832.3874
  19344924.215   -14588733.46349 -11340926.09249  19344923.8664   19344929.7884
  17291009.492   -38323161.25149 -29831087.08449  17291009.7994   17291015.2384
  17170578.853   -41264976.95749 -31394773.60849  17170578.9224   17170583.9904
 96  2 19 19 45 59.9840000  0  8 28  2 19 29 18 16 27 31
  18822706.679   -37580740.111 9 -29267176.297 9  18822705.897    18822711.889
  18693618.954    -2969487.43449  -2274338.59049  18693618.1594   18693624.9474
  15855173.751   -42562324.11749 -32863273.20549  15855174.0334   15855178.8844
  18279943.200   -13628114.36649 -10608565.72849  18279943.2424   18279947.0044
  15962580.340   -31023274.72949 -24146450.57049  15962579.9654   15962584.9204
  19321602.226   -14711287.11749 -11436422.44049  19321602.5624   19321607.3064
  17263162.813   -38469497.13549 -29945115.03049  17263163.0274   17263168.2924
  17151032.552   -41367692.00449 -31474811.28249  17151032.6294   17151037.7464
 96  2 19 19 46 29.9840000  0  8 28  2 19 29 18 16 27 31
  18814768.484   -37622456.183 9 -29299682.345 9  18814767.612    18814773.587
  18662582.544    -3132581.01149  -2401424.47849  18662582.4354   18662589.6064
  15836599.444   -42659932.21749 -32939331.45949  15836599.7784   15836604.7864
  18281978.177   -13617413.76549 -10600227.63649  18281979.5664   18281984.0964
  15956418.471   -31055652.79149 -24171680.24249  15956418.5494   15956423.5254
  19298379.533   -14833324.20449 -11531516.27149  19298379.5294   19298385.3464
  17235336.653   -38615725.00149 -30059058.78849  17235336.7374   17235342.0774
  17131598.220   -41469820.38049 -31554391.81549  17131598.3344   17131603.5784
 96  2 19 19 46 59.9840000  0  8 28  2 19 29 18 16 27 31
  18806927.466   -37663662.236 9 -29331790.981 9  18806926.438    18806932.482
  18631593.135    -3295433.96349  -2528322.86749  18631593.3224   18631599.4644
  15818067.462   -42757319.18249 -33015217.40649  15818067.7644   15818072.6264
  18284062.189   -13606465.80949 -10591696.81549  18284062.1914   18284066.9284
  15950346.652   -31087561.15549 -24196543.92449  15950346.4614   15950351.6644
  19275259.237   -14954823.64049 -11626191.15749  19275258.8764   19275264.0704
  17207529.501   -38761851.29449 -30172923.41149  17207529.6984   17207535.2594
  17112275.248   -41571366.27549 -31633518.47349  17112274.9414   17112279.8514
 96  2 19 19 47 29.9840000  0  8 28  2 19 29 18 16 27 31
  18799182.138   -37704357.590 9 -29363501.664 9  18799182.316    18799188.310
  18600644.781    -3458067.76049  -2655050.48349  18600644.5084   18600651.4444
  15799574.904   -42854498.05749 -33090941.19849  15799575.1784   15799580.0484
  18286193.069   -13595268.70749 -10582971.84949  18286192.9724   18286198.5024
  15944363.461   -31119002.71049 -24221043.85249  15944363.3654   15944368.6204
  19252239.563   -15075792.77449 -11720452.82749  19252240.1364   19252244.9104
  17179744.220   -38907864.68349 -30286700.05249  17179744.5424   17179749.8224
  17093064.524   -41672322.93349 -31712185.99249  17093063.6704   17093068.9474
 96  2 19 19 47 59.9840000  0  8 28  2 19 29 18 16 27 31
  18791536.158   -37744544.880 9 -29394816.455 9  18791534.981    18791541.351
  18569735.034    -3620501.95149  -2781622.56249  18569733.6754   18569740.5704
  15781119.783   -42951482.07849 -33166513.16049  15781119.9024   15781124.8394
  18288369.851   -13583829.73849 -10574058.41949  18288369.8594   18288374.6084
  15938464.913   -31149998.44949 -24245196.39449  15938465.3904   15938470.2804
  19229319.099   -15196243.80949 -11814310.78749  19229318.5424   19229323.9024
  17151979.409   -39053768.81149 -30400391.56349  17151979.9464   17151984.9724
  17073963.519   -41772693.85049 -31790397.08749  17073963.5084   17073969.0784
 96  2 19 19 48 29.9840000  0  8 28  2 19 29 18 16 27 31
  18783985.096   -37784224.195 9 -29425735.431 9  18783984.482    18783990.796
  18538858.073    -3782760.03349  -2908057.40649  18538857.3994   18538864.6804
  15762702.335   -43048265.16749 -33241928.54949  15762702.6704   15762707.5524
  18290594.702   -13572133.92049 -10564944.84049  18290595.2544   18290600.1044
  15932655.142   -31180531.80249 -24268988.64249  15932654.9004   15932659.7834
  19206494.403   -15316182.87449 -11907769.82249  19206494.8094   19206500.1984
  17124235.595   -39199563.44449 -30513997.75349  17124235.8374   17124241.1614
  17054975.140   -41872479.27749 -31868151.95749  17054975.2164   17054980.2454
 96  2 19 19 48 59.9840000  0  8 28  2 19 29 18 16 27 31
  18776530.697   -37823393.843 9 -29456257.259 9  18776530.636    18776536.917
  18508014.275    -3944844.83649  -3034357.22149  18508013.8654   18508020.8074
  15744322.288   -43144850.71549 -33317190.00449  15744322.8804   15744327.8154
  18292872.646   -13560167.52549 -10555620.42949  18292872.7584   18292877.3974
  15926936.593   -31210583.50249 -24292405.56449  15926936.4834   15926941.2834
  19183765.803   -15435625.48149 -12000842.00449  19183765.5544   19183771.1884
  17096513.656   -39345243.77549 -30627514.87049  17096513.7894   17096519.3284
  17036099.153   -41971673.74349 -31945446.33949  17036098.4594   17036104.3884
 96  2 19 19 49 29.9840000  0  8 28  2 19 29 18 16 27 31
  18769174.206   -37862054.932 9 -29486382.821 9  18769173.544    18769179.706
  18477205.745    -4106747.75849  -3160515.31449  18477205.1364   18477211.5844
  15725980.459   -43241238.59449 -33392297.43549  15725980.7114   15725985.6644
  18295198.963   -13547944.48949 -10546096.03649  18295198.6264   18295203.5104
  15921308.269   -31240160.58049 -24315452.65249  15921308.0564   15921312.8614
  19161126.917   -15554590.59649 -12093542.09949  19161127.2904   19161132.8384
  17068811.550   -39490818.18549 -30740949.46449  17068811.7994   17068817.0904
  17017333.636   -42070285.44449 -32022286.62249  17017333.2944   17017338.9594
 96  2 19 19 49 59.9840000  0  8 28  2 19 29 18 16 27 31
  18761914.512   -37900203.258 9 -29516108.835 9  18761914.285    18761920.203
  18446436.573    -4268435.20249  -3286505.48949  18446436.5044   18446443.5204
  15707679.975   -43337407.92849 -33467234.57449  15707680.3734   15707685.5574
  18297574.670   -13535454.92549 -10536363.97449  18297575.7824   18297580.3354
  15915773.301   -31269245.57649 -24338116.30449  15915773.4824   15915777.9204
  19138582.700   -15673062.89849 -12185858.19649  19138582.5534   19138588.4714
  17041128.613   -39636294.48849 -30854307.61149  17041128.6014   17041133.5944
  16998681.180   -42168304.26949 -32098664.92949  16998681.1764   16998686.7204
 96  2 19 19 50 29.9840000  0  8 28  2 19 29 18 16 27 31
  18754753.369   -37937833.316 9 -29545430.986 9  18754753.591    18754759.854
  18415716.081    -4429876.23049  -3412303.65549  18415715.4124   18415722.5594
  15689423.893   -43433343.60949 -33541989.64249  15689424.3364   15689429.5514
  18300004.753   -13522688.85049 -10526416.43249  18300004.6074   18300010.1034
  15910337.635   -31297813.56549 -24360377.09249  15910337.0964   15910341.9564
  19116134.769   -15791024.15049 -12277776.05849  19116135.7154   19116141.1334
  17013464.420   -39781670.76049 -30967587.81349  17013464.4264   17013469.7094
  16980144.398   -42265715.78049 -32174570.00349  16980143.9804   16980149.6684
 96  2 19 19 50 59.9840000  0  8 28  2 19 29 18 16 27 31
  18747691.725   -37974947.201 9 -29574350.929 9  18747690.997    18747697.520
  18385045.652    -4591049.35449  -3537893.07049  18385044.8514   18385051.7624
  15671211.294   -43529053.06349 -33616568.43049  15671211.4694   15671216.5794
  18302480.783   -13509667.78749 -10516270.20049  18302482.8494   18302487.5554
  15904995.981   -31325878.86149 -24382246.17049  15904996.4024   15905001.1494
  19093788.597   -15908459.66349 -12369284.25249  19093787.7254   19093794.3664
  16985819.115   -39926945.76849 -31080789.10149  16985819.3694   16985825.0304
  16961723.250   -42362516.82449 -32249999.38949  16961722.9634   16961728.9894
 96  2 19 19 51 29.9840000  0  8 28  2 19 29 18 16 27 31
  18740727.703   -38011539.675 9 -29602864.562 9  18740727.782    18740734.160
  18354428.534    -4751944.09649  -3663265.55249  18354428.1504   18354435.3474
  15653043.256   -43624525.89949 -33690962.84249  15653043.6344   15653048.7334
  18305007.062   -13496397.66849 -10505929.89849  18305008.5854   18305012.8864
  15899748.020   -31353457.38549 -24403735.95149  15899748.2904   15899753.2834
  19071546.006   -16025345.06949 -12460363.79849  19071545.0914   19071551.9954
  16958194.718   -40072112.39949 -31193905.95549  16958195.3344   16958200.7944
  16943420.933   -42458696.43549 -32324944.54149  16943420.9574   16943426.7064
 96  2 19 19 51 59.9840000  0  8 28  2 19 29 18 16 27 31
  18733863.473   -38047610.316 9 -29630971.580 9  18733863.723    18733870.252
  18323863.750    -4912562.78449  -3788422.93649  18323863.6284   18323869.9544
  15634922.885   -43719748.90749 -33765162.58249  15634923.3364   15634928.2294
  18307579.696   -13482878.47649 -10495395.51149  18307580.2034   18307585.1544
  15894591.546   -31380558.18549 -24424853.47549  15894591.0404   15894596.3424
  19049410.602   -16141665.38249 -12551003.00449  19049411.0914   19049416.4284
  16930595.389   -40217147.64649 -31306920.42149  16930595.8804   16930601.2694
  16925238.901   -42554244.58749 -32399397.64849  16925238.7794   16925245.3734
 96  2 19 19 52 29.9830000  0  8 28  2 19 29 18 16 27 31
  18727100.827   -38083153.498 9 -29658667.595 9  18727100.151    18727106.316
  18293348.915    -5072917.82649  -3913374.87949  18293348.6394   18293355.4504
  15616851.048   -43814717.19749 -33839163.83749  15616851.5214   15616856.4914
  18310197.588   -13469120.43649 -10484675.01349  18310198.3994   18310203.7514
  15889524.080   -31407187.09849 -24445603.29549  15889524.0044   15889528.9804
  19027383.157   -16257422.76849 -12641203.56849  19027383.0444   19027388.3084
  16903028.568   -40362015.32249 -31419804.32149  16903028.5644   16903034.0634
  16907178.709   -42649153.87549 -32473352.94449  16907178.4904   16907183.9174
 96  2 19 19 52 59.9830000  0  8 28  2 19 29 18 16 27 31
  18720435.554   -38118176.766 9 -29685958.451 9  18720435.567    18720441.328
  18262877.714    -5233043.10249  -4038147.79449  18262877.6064   18262884.7264
  15598825.373   -43909443.45349 -33912976.49849  15598825.8414   15598830.9514
  18312859.486   -13455137.37349 -10473779.17849  18312859.4234   18312864.7424
  15884542.475   -31433366.20649 -24466002.62249  15884542.1054   15884547.0924
  19005456.612   -16372645.15249 -12730987.25249  19005455.8404   19005461.8814
  16875491.044   -40506723.87949 -31532564.23649  16875491.4184   16875496.6324
  16889236.870   -42743438.43649 -32546821.43849  16889236.5254   16889242.5364
 96  2 19 19 53 29.9830000  0  8 28  2 19 29 18 16 27 31
  18713869.937   -38152678.867 9 -29712843.208 9  18713870.078    18713875.890
  18232450.172    -5392940.43149  -4162743.09149  18232450.3884   18232457.5414
  15580848.377   -44003913.70649 -33986589.67349  15580848.6254   15580853.6614
  18315564.869   -13440921.65749 -10462702.04449  18315564.4834   18315569.7244
  15879647.285   -31459089.60349 -24486046.84749  15879647.1844   15879652.1614
  18983630.574   -16487339.84249 -12820359.73949  18983631.0464   18983637.0554
  16847985.079   -40651270.68849 -31645198.10049  16847985.0114   16847990.5654
  16871412.797   -42837104.29549 -32619807.82449  16871412.5254   16871418.4344
 96  2 19 19 53 59.9830000  0  8 28  2 19 29 18 16 27 31
  18707403.140   -38186662.004 9 -29739323.576 9  18707403.223    18707409.170
  18202065.488    -5552610.02749  -4287160.94349  18202065.3084   18202072.6834
  15562917.792   -44098139.53149 -34060012.38449  15562918.0744   15562923.1994
  18318314.699   -13426468.69349 -10451440.03749  18318314.9454   18318319.6564
  15874840.376   -31484349.03849 -24505729.54349  15874840.8464   15874845.5024
  18961902.680   -16601524.78749 -12909335.00349  18961901.6584   18961907.9414
  16820509.844   -40795651.06949 -31757702.28249  16820510.6974   16820515.6744
  16853705.071   -42930158.98349 -32692317.97549  16853704.9564   16853710.5044
 96  2 19 19 54 29.9830000  0  8 28  2 19 29 18 16 27 31
  18701034.892   -38220129.341 9 -29765402.017 9  18701034.553    18701040.873
  18171725.876    -5712053.84149  -4411402.85249  18171724.1334   18171731.3114
  15545029.281   -44192144.29149 -34133262.84549  15545029.7684   15545034.6954
  18321111.317   -13411776.84549 -10439991.89849  18321110.8634   18321115.6714
  15870123.209   -31509139.64849 -24525046.92649  15870123.0774   15870128.0884
  18940269.145   -16715210.18449 -12997921.03049  18940268.1074   18940274.4064
  16793065.177   -40939875.62349 -31870085.04149  16793065.3024   16793070.7614
  16836112.257   -43022607.88649 -32764356.07449  16836112.0684   16836118.4254
 96  2 19 19 54 59.9830000  0  9 28  2 19 12 29 18 16 27 31
  18694764.838   -38253080.036 9 -29791077.889 9  18694764.156    18694770.674
  18141428.927    -5871258.77149  -4535458.63949  18141429.2824   18141435.7334
  15527182.650   -44285927.54349 -34206340.69749  15527183.0584   15527188.1944
  19319263.973     -501288.67719   -354528.42419  19319268.439    19319275.082
  18323952.886   -13396836.20449 -10428349.89949  18323953.6404   18323960.1174
  15865496.988   -31533448.23149 -24543988.69649  15865497.2954   15865502.4134
  18918734.516   -16828371.27749 -13086098.49349  18918734.2504   18918741.5374
  16765648.134   -41083954.03549 -31982353.91349  16765648.1294   16765653.5984
  16818635.076   -43114449.61149 -32835921.05249  16818635.6344   16818641.4724
 96  2 19 19 55 29.9830000  0  9 28  2 19 12 29 18 16 27 31
  18688591.474   -38285519.447 9 -29816355.348 9  18688591.267    18688597.492
  18111180.555    -6030221.37149  -4659325.59349  18111179.9034   18111186.4004
  15509379.099   -44379485.63349 -34279243.09949  15509379.4794   15509384.7634
  19289230.750     -659154.97919   -477541.09519  19289227.561    19289233.446
  18326844.741   -13381646.76649 -10416514.03649  18326844.3484   18326850.1324
  15860964.101   -31557269.44749 -24562550.69949  15860964.5464   15860969.2814
  18897303.444   -16940995.65549 -13173857.74249  18897303.5344   18897309.7564
  16738261.172   -41227872.45649 -32094498.11949  16738261.6424   16738266.9664
  16801272.819   -43205688.11249 -32907015.97749  16801273.5344   16801279.5064
 96  2 19 19 55 59.9830000  0  9 28  2 19 12 29 18 16 27 31
  18682517.313   -38317444.174 9 -29841231.759 9  18682515.987    18682522.238
  18080979.281    -6188926.74549  -4782992.11249  18080979.7494   18080985.5234
  15491618.950   -44472815.42549 -34351967.60649  15491619.3874   15491624.6114
  19259221.224     -816836.345 9   -600409.671 9  19259221.307    19259228.270
  18329780.922   -13366210.97649 -10404486.20049  18329782.1134   18329787.6514
  15856524.969   -31580597.54849 -24580728.46049  15856525.5734   15856530.0994
  18875975.207   -17053075.72949 -13261192.85149  18875975.1324   18875981.8184
  16710906.868   -41371621.05249 -32206509.99049  16710906.7954   16710912.3464
  16784028.447   -43296315.67549 -32977634.84149  16784027.5394   16784033.8944
 96  2 19 19 56 29.9830000  0  9 28  2 19 12 29 18 16 27 31
  18676538.714   -38348856.100 9 -29865708.584 9  18676538.510    18676544.653
  18050829.699    -6347364.99649  -4906450.47449  18050829.3404   18050836.1004
  15473905.803   -44565898.90649 -34424500.18249  15473906.2634   15473911.2554
  19229250.021     -974333.215 9   -723134.472 9  19229250.795    19229258.121
  18332765.003   -13350536.16749 -10392272.12349  18332764.1894   18332770.6534
  15852179.461   -31603435.25549 -24598524.09649  15852179.7584   15852184.3674
  18854752.755   -17164596.76449 -13348092.34649  18854752.3564   18854758.8564
  16683582.267   -41515211.76049 -32318398.83849  16683582.3974   16683587.9874
  16766899.954   -43386321.80249 -33047769.46849  16766900.1254   16766905.7464
 96  2 19 19 56 59.9830000  0  9 28  2 19 12 29 18 16 27 31
  18670659.929   -38379752.969 9 -29889784.070 9  18670658.946    18670665.102
  18020734.205    -6505515.06149  -5029684.28749  18020734.0144   18020740.4764
  15456244.741   -44658709.40049 -34496820.04749  15456245.0954   15456250.1154
  19199314.651    -1131641.717 9   -845712.490 9  19199315.469    19199322.882
  18335790.711   -13334626.07749 -10379874.70949  18335792.2994   18335798.5154
  15847927.189   -31625782.38049 -24615937.45649  15847926.9774   15847931.8344
  18833640.567   -17275545.30249 -13434545.73049  18833639.9814   18833646.3194
  16656287.243   -41658647.18549 -32430166.68349  16656287.8314   16656292.8474
  16749892.611   -43475695.37649 -33117411.19649  16749892.9844   16749898.2034
 96  2 19 19 57 29.9830000  0  9 28  2 19 12 29 18 16 27 31
  18664877.690   -38410135.938 9 -29913459.123 9  18664877.494    18664883.764
  17990696.228    -6663366.77749  -5152685.61549  17990696.2754   17990703.0564
  15438636.193   -44751242.82649 -34568924.01349  15438636.5244   15438641.5624
  19169416.397    -1288761.480 9   -968143.457 9  19169416.900    19169423.503
  18338863.522   -13318481.32949 -10367294.45349  18338864.5034   18338870.3904
  15843766.955   -31647642.58549 -24632971.40149  15843767.0214   15843771.8804
  18812633.895   -17385938.79649 -13520566.61449  18812632.7114   18812639.5604
  16629020.918   -41801934.26949 -32541818.93649  16629020.9384   16629026.0464
  16733006.830   -43564431.58249 -33186556.27549  16733006.7524   16733012.5504
 96  2 19 19 57 59.9830000  0  9 28  2 19 12 29 18 16 27 31
  18659192.570   -38440009.367 9 -29936737.135 9  18659192.996    18659198.785
  17960713.943    -6820925.18549  -5275458.38949  17960713.6894   17960720.0534
  15421078.515   -44843508.62749 -34640819.43949  15421078.8024   15421084.1044
  19139553.421    -1445695.394 9  -1090429.604 9  19139553.433    19139561.516
  18341980.685   -13302105.56049 -10354534.17249  18341980.8054   18341986.0594
  15839699.968   -31669018.03849 -24649627.62149  15839699.5044   15839704.5144
  18791730.705   -17495783.98449 -13606160.25249  18791729.9154   18791736.3304
  16601776.694   -41945102.87249 -32653378.86549  16601777.1704   16601782.1224
  16716243.274   -43652521.28549 -33255197.58649  16716243.7514   16716249.3404
 96  2 19 19 58 29.9830000  0  9 28  2 19 12 29 18 16 27 31
  18653605.968   -38469371.729 9 -29959616.900 9  18653605.147    18653611.014
  17930786.248    -6978198.18849  -5398008.76649  17930785.7204   17930791.7474
  15403572.126   -44935506.03449 -34712505.72649  15403572.4224   15403577.4094
  19109724.894    -1602440.366 9  -1212568.514 9  19109725.883    19109732.874
  18345143.478   -13285483.67949 -10341582.11249  18345144.2024   18345149.6064
  15835725.865   -31689902.57649 -24665901.30449  15835725.3624   15835730.3414
  18770933.531   -17605072.30549 -13691319.96749  18770932.7404   18770939.4904
  16574553.021   -42088162.67049 -32764854.00649  16574553.4244   16574558.5474
  16699606.572   -43739951.49649 -33323325.01149  16699606.6004   16699612.0904
 96  2 19 19 58 59.9830000  0  9 28  2 19 12 29 18 16 27 31
  18648114.601   -38498227.028 9 -29982101.557 9  18648114.353    18648120.424
  17900908.156    -7135208.82649  -5520354.70449  17900908.4894   17900913.2324
  15386114.577   -45027247.10549 -34783992.27049  15386114.7124   15386119.8544
  19079932.933    -1758998.943 9  -1334562.197 9  19079933.551    19079940.274
  18348355.376   -13268614.37049 -10328437.25349  18348353.4194   18348359.4844
  15831842.487   -31710304.53549 -24681798.95349  15831842.7684   15831848.0924
  18750241.901   -17713807.69449 -13776048.82849  18750242.0944   18750248.0164
  16547351.676   -42231108.83149 -32876240.60049  16547351.8214   16547356.9884
  16683093.010   -43826734.86949 -33390948.41549  16683092.4024   16683097.6684
 96  2 19 19 59 29.9830000  0  9 28  2 19 12 29 18 16 27 31
  18642719.531   -38526578.219 9 -30004193.407 9  18642719.265    18642725.519
  17871076.891    -7291976.72949  -5642511.48549  17871075.8694   17871081.3614
  15368703.749   -45118740.39849 -34855285.74149  15368704.0624   15368709.0934
  19050175.686    -1915372.100 9  -1456411.380 9  19050177.053    19050184.230
  18351611.710   -13251496.96149 -10315099.06949  18351611.1964   18351617.3954
  15828051.430   -31730230.62949 -24697325.79549  15828051.1834   15828056.0974
  18729653.967   -17821997.01349 -13860352.18649  18729653.4214   18729659.8844
  16520172.723   -42373933.23849 -32987532.31549  16520173.2574   16520178.3334
  16666699.315   -43912880.84349 -33458075.14149  16666699.2334   16666704.9914
 96  2 19 19 59 59.9830000  0  9 28  2 19 12 29 18 16 27 31
  18637420.153   -38554429.976 9 -30025896.084 9  18637419.390    18637425.639
  17841287.962    -7448514.40049  -5764488.86349  17841287.8894   17841293.7234
  15351339.232   -45209991.65749 -34926390.61549  15351339.6914   15351344.4904
  19020455.549    -2071563.249 9  -1578118.708 9  19020455.281    19020462.050
  18354914.304   -13234142.29249 -10301576.00949  18354913.4514   18354919.2584
  15824347.968   -31749688.59849 -24712487.86549  15824348.0184   15824353.0944
  18709172.980   -17929629.02649 -13944221.27549  18709172.7864   18709178.3304
  16493020.343   -42516621.10649 -33098717.63849  16493020.5794   16493025.7344
  16650425.344   -43998401.16749 -33524714.36649  16650425.4964   16650430.8704
 96  2 19 20  0 29.9830000  0  9 28  2 19 12 29 18 16 27 31
  18632213.338   -38581786.432 9 -30047212.819 9  18632213.541    18632220.001
  17811542.380    -7604826.30449  -5886290.32549  17811542.8004   17811548.8554
  15334019.725   -45301006.08549 -34997310.94749  15334020.3464   15334025.3784
  18990766.581    -2227575.041 9  -1699686.314 9  18990767.074    18990773.374
  18358258.156   -13216559.93049 -10287875.52549  18358259.8384   18358265.1904
  15820732.949   -31768685.34649 -24727290.54249  15820733.0484   15820738.0574
  18688795.991   -18036704.51049 -14027656.69749  18688795.6734   18688802.4994
  16465898.345   -42659148.97549 -33209778.28649  16465898.5514   16465903.7404
  16634268.575   -44083304.90249 -33590873.12649  16634268.6854   16634273.7824
 96  2 19 20  0 59.9830000  0  9 28  2 19 12 29 18 16 27 31
  18627100.859   -38608650.793 9 -30068146.101 9  18627101.481    18627107.503
  17781841.194    -7760908.72949  -6007912.96049  17781841.6374   17781846.6484
  15316744.359   -45391787.79749 -35068049.94349  15316744.8274   15316749.9554
  18961112.844    -2383408.933 9  -1821115.290 9  18961112.613    18961118.791
  18361645.096   -13198761.47949 -10274006.65949  18361646.2924   18361652.3824
  15817205.439   -31787227.59949 -24741739.06649  15817205.1154   15817209.6884
  18668526.358   -18143225.71849 -14110660.22749  18668525.5994   18668533.1264
  16438810.084   -42801495.79949 -33320697.86149  16438810.5624   16438815.7124
  16618227.390   -44167606.52749 -33656562.71549  16618227.2494   16618231.9914
 96  2 19 20  1 29.9830000  0  9 28  2 19 12 29 18 16 27 31
  18622081.908   -38635032.957 9 -30088703.637 9  18622081.164    18622086.710
  17752186.160    -7916748.96549  -6129346.87949  17752185.5124   17752191.3364
  15299510.491   -45482351.87849 -35138619.35249  15299511.0304   15299516.1814
  18931489.674    -2539073.251 9  -1942412.102 9  18931490.845    18931498.034
  18365072.242   -13180761.64249 -10259980.87549  18365071.8724   18365077.5724
  15813762.410   -31805318.29149 -24755835.72349  15813762.6404   15813767.3274
  18648359.202   -18249206.97349 -14193243.01149  18648357.6944   18648364.3984
  16411755.664   -42943667.83249 -33431481.23849  16411756.0604   16411761.4724
  16602298.339   -44251314.09449 -33721789.39549  16602297.7264   16602302.9274
 96  2 19 20  1 59.9820000  0  9 28  2 19 12 29 18 16 27 31
  18617154.345   -38660925.032 9 -30108879.295 9  18617154.119    18617160.071
  17722578.660    -8072330.74749  -6250579.39149  17722579.7334   17722585.2224
  15282318.934   -45572695.38149 -35209016.88849  15282319.2404   15282324.2764
  18901902.433    -2694554.076 9  -2063565.915 9  18901903.637    18901910.694
  18368535.227   -13162550.58449 -10245790.49549  18368537.9824   18368543.9294
  15810407.273   -31822951.03449 -24769575.53949  15810407.1944   15810411.9564
  18628295.846   -18354638.13849 -14275397.16549  18628295.9774   18628301.9314
  16384736.687   -43085654.18549 -33542119.92849  16384737.0294   16384742.2474
  16586488.237   -44334395.89949 -33786528.47049  16586487.8724   16586493.1004
 96  2 19 20  2 29.9820000  0  9 28  2 19 12 29 18 16 27 31
  18612319.681   -38686333.306 9 -30128677.962 9  18612319.205    18612325.053
  17693020.665    -8227663.35749  -6371617.75449  17693020.7974   17693025.8534
  15265167.037   -45662826.37049 -35279248.82749  15265167.8164   15265172.8774
  18872350.005    -2849864.855 9  -2184587.200 9  18872349.242    18872356.095
  18372041.958   -13144130.16349 -10231436.97049  18372043.1934   18372049.1874
  15807136.498   -31840138.03049 -24782968.01649  15807136.4794   15807141.3574
  18608334.161   -18459538.13049 -14357137.41649  18608333.0494   18608340.1754
  16357747.393   -43227484.22049 -33652636.81949  16357747.6124   16357752.7394
  16570796.297   -44416854.86649 -33850782.21249  16570796.6364   16570801.5394
 96  2 19 20  2 59.9820000  0  9 28  2 19 12 29 18 16 27 31
  18607576.284   -38711258.047 9 -30148099.848 9  18607576.010    18607582.152
  17663513.248    -8382723.44449  -6492443.75249  17663513.8994   17663519.0364
  15248060.535   -45752724.92949 -35349299.64849  15248060.8604   15248065.9784
  18842826.335    -3004999.908 9  -2305471.580 9  18842827.980    18842833.595
  18375586.341   -13125507.15449 -10216925.59049  18375586.9984   18375593.0384
  15803950.004   -31856881.96249 -24796015.24949  15803950.2884   15803955.1034
  18588472.622   -18563909.04749 -14438465.40849  18588473.1444   18588478.7314
  16330787.044   -43369162.60349 -33763035.53949  16330787.0214   16330792.2194
  16555224.807   -44498683.91249 -33914545.09849  16555224.7774   16555229.9414
 96  2 19 20  3 29.9820000  0  9 28  2 19 12 29 18 16 27 31
  18602925.241   -38735697.433 9 -30167143.545 9  18602925.533    18602931.404
  17634059.089    -8537510.40749  -6613056.93049  17634058.2884   17634064.3994
  15230999.674   -45842378.94349 -35419159.91449  15230999.9044   15231004.9984
  18813338.787    -3159955.904 9  -2426216.453 9  18813340.173    18813346.486
  18379170.102   -13106683.88849 -10202258.15749  18379168.0104   18379174.8034
  15800849.696   -31873179.70049 -24808714.79749  15800849.0094   15800853.6774
  18568712.679   -18667750.45949 -14519380.79749  18568712.2574   18568718.2084
  16303855.302   -43510689.58449 -33873316.28549  16303855.4654   16303860.5254
  16539777.247   -44579863.77349 -33977802.12649  16539776.5814   16539781.7824
 96  2 19 20  3 59.9820000  0  9 28  2 19 12 29 18 16 27 31
  18598366.186   -38759656.914 9 -30185813.287 9  18598366.398    18598371.888
  17604651.713    -8692044.01249  -6733472.69049  17604651.0594   17604657.1954
  15213988.432   -45931772.29649 -35488817.06849  15213988.9414   15213994.2734
  18783885.657    -3314736.136 9  -2546824.347 9  18783885.821    18783893.903
  18382786.620   -13087670.68549 -10187442.72749  18382786.5684   18382793.5534
  15797831.827   -31889039.18949 -24821072.85649  15797831.2374   15797835.8544
  18549052.930   -18771061.30649 -14599882.75749  18549053.0754   18549058.8814
  16276951.540   -43652071.22649 -33983483.78049  16276951.3864   16276956.5614
  16524452.267   -44660396.50249 -34040554.89249  16524451.7974   16524457.2674
 96  2 19 20  4 29.9820000  0  9 28  2 19 12 29 18 16 27 31
  18593899.558   -38783134.167 9 -30204107.259 9  18593898.623    18593904.264
  17575294.696    -8846315.06949  -6853683.86249  17575294.9184   17575300.3904
  15197030.086   -46020890.72849 -35558259.99749  15197030.5964   15197035.7114
  18754466.933    -3469336.947 9  -2667292.456 9  18754466.380    18754474.252
  18386441.733   -13068460.03149 -10172473.44849  18386442.7854   18386448.5654
  15794898.977   -31904446.75049 -24833078.76049  15794899.0784   15794903.9124
  18529495.595   -18873835.58849 -14679966.61849  18529495.0834   18529501.8804
  16250074.573   -43793308.64149 -34093538.89549  16250074.8234   16250079.9004
  16509245.998   -44740300.63749 -34102817.83249  16509246.7094   16509252.0204
 96  2 19 20  4 59.9820000  0  9 28  2 19 12 29 18 16 27 31
  18589521.962   -38806136.516 9 -30222031.185 9  18589521.255    18589527.167
  17545988.366    -9000326.27849  -6973692.56049  17545987.3714   17545993.1914
  15180122.433   -46109740.19249 -35627493.34349  15180122.9384   15180128.1174
  18725078.546    -3623763.823 9  -2787625.034 9  18725080.024    18725087.560
  18390136.344   -13049046.18049 -10157345.82749  18390136.5924   18390143.5154
  15792054.140   -31919399.97049 -24844730.63549  15792053.6174   15792058.4014
  18510037.951   -18976083.82749 -14759640.57149  18510038.2594   18510044.7054
  16223226.566   -43934398.10049 -34203478.72249  16223226.5854   16223231.4934
  16494160.511   -44819579.80549 -34164593.78049  16494160.1084   16494165.6094
 96  2 19 20  5 29.9820000  0  9 28  2 19 12 29 18 16 27 31
  18585235.021   -38828662.825 9 -30239584.174 9  18585234.812    18585240.452
  17516727.644    -9154091.10449  -7093509.26349  17516727.2044   17516733.2124
  15163264.390   -46198332.20049 -35696526.06949  15163264.5814   15163269.7594
  18695726.527    -3778013.878 9  -2907819.847 9  18695726.619    18695734.149
  18393873.101   -13029410.10649 -10142045.03349  18393874.3714   18393879.3984
  15789294.936   -31933895.24749 -24856025.66749  15789295.0564   15789299.8494
  18490683.500   -19077795.37749 -14838896.33649  18490683.3454   18490689.7634
  16196404.500   -44075348.37649 -34313310.09349  16196404.5504   16196409.3674
  16479192.051   -44898238.10449 -34225885.92849  16479192.2544   16479198.2694
 96  2 19 20  5 59.9820000  0  9 28  2 19 12 29 18 16 27 31
  18581038.440   -38850716.596 9 -30256768.956 9  18581038.251    18581044.051
  17487514.622    -9307605.36049  -7213130.71349  17487514.6654   17487520.1114
  15146453.304   -46286671.78449 -35765362.10549  15146453.9134   15146459.1924
  18666407.027    -3932088.905 9  -3027878.283 9  18666407.233    18666414.414
  18397654.110   -13009542.67449 -10126563.98049  18397654.0874   18397660.8644
  15786623.941   -31947933.94849 -24866964.92849  15786623.8484   15786628.5144
  18471430.664   -19178965.36549 -14917730.08849  18471431.1444   18471437.9684
  16169605.983   -44216174.09049 -34423044.40649  16169606.1984   16169611.2824
  16464343.468   -44976269.67349 -34286689.72249  16464343.5234   16464349.3114
 96  2 19 20  6 29.9820000  0  9 28  2 19 12 29 18 16 27 31
  18576931.476   -38872299.867 9 -30273587.113 9  18576931.231    18576937.179
  17458353.467    -9460849.91949  -7332542.01249  17458352.5704   17458358.5974
  15129688.528   -46374773.28449 -35834012.62149  15129688.8004   15129694.0074
  18637121.035    -4085989.278 9  -3147800.632 9  18637121.602    18637128.949
  18401479.057   -12989439.63349 -10110899.32149  18401479.8334   18401485.2674
  15784039.488   -31961513.75249 -24877546.60549  15784039.5044   15784044.2404
  18452282.650   -19279595.77549 -14996143.40849  18452281.5394   18452288.9054
  16142832.661   -44356867.75549 -34532675.81949  16142833.2654   16142837.9974
  16449616.674   -45053659.91649 -34346993.78149  16449615.9814   16449621.8224
 96  2 19 20  6 59.9820000  0  9 28  2 19 12 29 18 16 27 31
  18572913.550   -38893413.889 9 -30290039.630 9  18572913.287    18572919.055
  17429244.012    -9613818.31349  -7451738.12249  17429244.0744   17429249.7704
  15112970.533   -46462627.25849 -35902470.26749  15112970.9994   15112976.0854
  18607867.475    -4239714.626 9  -3267586.590 9  18607868.276    18607876.260
  18405346.112   -12969118.90049 -10095065.04849  18405347.3454   18405352.6024
  15781540.229   -31974646.60049 -24887780.00749  15781540.4614   15781545.1834
  18433236.066   -19379682.33449 -15074132.94049  18433235.8924   18433243.0614
  16116087.217   -44497418.13749 -34642195.59049  16116087.5204   16116092.2304
  16435014.065   -45130397.57749 -34406789.34049  16435013.3734   16435019.2864
 96  2 19 20  7 29.9820000  0  9 28  2 19 12 29 18 16 27 31
  18568982.987   -38914063.205 9 -30306130.037 9  18568984.061    18568989.378
  17400185.167    -9766524.35049  -7570729.79349  17400184.4064   17400190.0064
  15096300.138   -46550230.70049 -35970732.69049  15096300.5734   15096305.6124
  18578648.849    -4393267.510 9  -3387238.143 9  18578647.765    18578655.676
  18409249.524   -12948606.26149 -10079081.22049  18409250.0794   18409256.9514
  15779125.681   -31987338.17149 -24897669.55849  15779125.3034   15779129.4994
  18414297.578   -19479207.52149 -15151685.04549  18414296.6514   18414303.7664
  16089370.942   -44637810.88449 -34751592.52549  16089371.4244   16089376.1294
  16420535.241   -45206480.53949 -34466074.74449  16420535.6174   16420540.6564
 96  2 19 20  7 59.9820000  0  9 28  2 19 12 29 18 16 27 31
  18565143.036   -38934247.896 9 -30321858.394 9  18565142.904    18565148.649
  17371177.010    -9918961.25949  -7689511.75349  17371177.0484   17371181.9554
  15079678.436   -46637577.06849 -36038794.79549  15079679.0264   15079684.3084
  18549461.510    -4546646.235 9  -3506754.005 9  18549461.305    18549468.333
  18413184.680   -12927919.74349 -10062961.90849  18413187.3184   18413193.7434
  15776794.293   -31999587.51949 -24907214.51649  15776794.4384   15776798.5754
  18395464.923   -19578172.65549 -15228800.75349  18395465.1394   18395470.0954
  16062691.297   -44778013.88149 -34860841.60149  16062691.5594   16062696.5574
  16406181.488   -45281914.72949 -34524854.60949  16406181.0194   16406186.3154
 96  2 19 20  8 29.9820000  0  9 28  2 19 12 29 18 16 27 31
  18561389.423   -38953974.368 9 -30337229.701 9  18561389.120    18561394.925
  17342219.476   -10071134.92349  -7808088.59049  17342218.7574   17342224.9054
  15063106.830   -46724663.31049 -36106654.20649  15063106.9834   15063112.1584
  18520305.128    -4699855.597 9  -3626137.922 9  18520306.274    18520314.135
  18417155.444   -12907069.31449 -10046714.87749  18417154.6104   18417160.8754
  15774544.202   -32011410.08249 -24916426.91649  15774544.7544   15774549.2564
  18376736.859   -19676586.37749 -15305486.79149  18376737.0354   18376743.3714
  16036049.232   -44918018.92249 -34969936.43149  16036049.6184   16036054.5524
  16391943.930   -45356732.08949 -34583153.84149  16391943.4234   16391948.6864
 96  2 19 20  8 59.9820000  0  9 28  2 19 12 29 18 16 27 31
  18557723.175   -38973240.043 9 -30352241.951 9  18557723.052    18557728.713
  17313308.787   -10223058.47049  -7926470.52949  17313308.7124   17313314.1534
  15046585.942   -46811480.38649 -36174303.87449  15046586.2764   15046591.2554
  18491184.409    -4852891.441 9  -3745386.590 9  18491184.453    18491192.629
  18421153.529   -12886049.76049 -10030336.04949  18421154.9354   18421160.1584
  15772375.285   -32022810.04149 -24925310.01649  15772375.1034   15772379.7704
  18358115.916   -19774437.01149 -15381734.04549  18358115.7494   18358123.6174
  16009442.281   -45057837.18449 -35078885.71249  16009442.7764   16009447.7784
  16377820.296   -45430950.56249 -34640986.40649  16377820.2044   16377825.3414
 96  2 19 20  9 29.9820000  0  9 28  2 19 12 29 18 16 27 31
  18554145.590   -38992046.939 9 -30366896.710 9  18554144.297    18554150.182
  17284444.650   -10374739.39149  -8044663.40349  17284445.4314   17284450.6594
  15030114.312   -46898039.55949 -36241752.58649  15030114.9344   15030119.7654
  18462095.775    -5005753.624 9  -3864499.936 9  18462096.558    18462103.920
  18425187.024   -12864851.14649 -10013817.70349  18425187.4994   18425194.2124
  15770287.071   -32033779.68549 -24933857.81049  15770287.7644   15770292.3434
  18339603.101   -19871726.85049 -15457544.32049  18339603.4354   18339610.1174
  15982869.993   -45197478.54549 -35187697.15549  15982870.1004   15982874.9814
  16363810.722   -45504569.32849 -34698351.68049  16363811.1224   16363816.0004
 96  2 19 20  9 59.9820000  0  9 28  2 19 12 29 18 16 27 31
  18550653.524   -39010395.682 9 -30381194.468 9  18550652.421    18550658.493
  17255632.069   -10526152.30349  -8162647.44049  17255632.1294   17255637.3404
  15013691.450   -46984342.98449 -36309002.00749  15013691.8454   15013696.8034
  18433039.936    -5158441.242 9  -3983477.264 9  18433040.903    18433046.661
  18429257.051   -12843462.48649  -9997151.26949  18429258.4604   18429263.3664
  15768280.592   -32044326.45149 -24942076.08249  15768280.6304   15768285.2614
  18321194.577   -19968462.35249 -15532922.64749  18321194.8454   18321201.1984
  15956324.324   -45336977.02549 -35296397.25649  15956324.2034   15956329.2204
  16349916.227   -45577589.07549 -34755250.18349  16349915.6374   16349920.9304
 96  2 19 20 10 29.9820000  0  9 28  2 19 12 29 18 16 27 31
  18547248.363   -39028286.242 9 -30395135.203 9  18547248.129    18547253.725
  17226872.713   -10677286.37049  -8280414.20749  17226872.7914   17226877.4214
  14997317.534   -47070388.90649 -36376050.77849  14997318.0104   14997322.8704
  18404017.506    -5310952.351 9  -4102317.056 9  18404017.844    18404024.449
  18433365.930   -12821882.65049  -9980335.86649  18433365.0954   18433370.5764
  15766354.570   -32054447.42449 -24949962.57349  15766354.7494   15766359.7804
  18302894.032   -20064633.39949 -15607861.13849  18302894.0654   18302900.6294
  15929800.283   -45476359.24749 -35405006.76349  15929800.7534   15929805.8214
  16336138.812   -45649988.86849 -34811665.60749  16336138.4524   16336143.6974
 96  2 19 20 10 59.9820000  0  9 28  2 19 12 29 18 16 27 31
  18543931.080   -39045720.840 9 -30408720.635 9  18543930.472    18543935.979
  17198166.036   -10828142.51549  -8397964.40449  17198165.2034   17198170.3314
  14980990.412   -47156188.12649 -36442907.31049  14980990.4684   14980995.6344
  18375029.739    -5463287.422 9  -4221019.655 9  18375030.161    18375037.678
  18437505.081   -12800123.71949  -9963380.90649  18437505.9244   18437511.3034
  15764511.974   -32064133.27749 -24957510.00749  15764511.8684   15764516.5024
  18284699.388   -20160246.72449 -15682365.03249  18284699.5814   18284705.9914
  15903299.819   -45615620.89049 -35513522.30849  15903299.9524   15903305.0854
  16322483.479   -45721747.71149 -34867581.60149  16322483.3514   16322487.6954
 96  2 19 20 11 29.9810000  0  9 28  2 19 12 29 18 16 27 31
  18540699.877   -39062701.237 9 -30421952.137 9  18540699.375    18540704.591
  17169513.037   -10978709.14949  -8515289.00749  17169513.5874   17169518.8244
  14964709.845   -47241741.30649 -36509572.12249  14964710.5844   14964715.4144
  18346075.013    -5615441.877 9  -4339581.479 9  18346075.287    18346083.142
  18441677.096   -12778199.72649  -9946297.33249  18441677.2584   18441683.1454
  15762753.189   -32073370.97949 -24964708.23149  15762753.7604   15762758.7184
  18266610.230   -20255307.74449 -15756438.56749  18266609.7164   18266616.5504
  15876827.399   -45754734.83349 -35621922.76349  15876827.6054   15876832.7324
  16308952.150   -45792854.67049 -34922989.63449  16308952.2964   16308957.0564
 96  2 19 20 11 59.9810000  0  9 28  2 19 12 29 18 16 27 31
  18537554.716   -39079231.079 9 -30434832.563 9  18537553.786    18537559.398
  17140913.841   -11129003.35449  -8632401.34149  17140913.0894   17140918.6224
  14948476.254   -47327050.99449 -36576047.19949  14948476.5654   14948481.5434
  18317153.132    -5767426.640 9  -4458011.106 9  18317153.682    18317160.758
  18445879.481   -12756113.44049  -9929087.29849  18445880.1064   18445886.4694
  15761081.549   -32082158.49549 -24971555.66649  15761081.4664   15761086.3124
  18248624.181   -20349824.51649 -15830088.00949  18248624.6914   18248630.2434
  15850383.568   -45893698.19549 -35730205.88549  15850383.6404   15850388.7784
  16295542.322   -45863322.61949 -34977899.73449  16295542.6184   16295547.4614
 96  2 19 20 12 29.9810000  0  9 28  2 19 12 29 18 16 27 31
  18534494.579   -39095311.317 9 -30447362.651 9  18534493.952    18534499.481
  17112360.348   -11279049.06749  -8749320.04249  17112360.4634   17112365.8774
  14932289.865   -47412110.46049 -36642327.29849  14932290.1844   14932295.1144
  18288265.302    -5919236.151 9  -4576304.181 9  18288265.772    18288272.052
  18450115.568   -12733857.27249  -9911744.88649  18450115.9534   18450122.0394
  15759496.430   -32090487.42049 -24978045.75649  15759496.5914   15759501.3584
  18230739.072   -20443812.85549 -15903325.68849  18230738.7644   18230744.7714
  15823975.580   -46032473.33449 -35838342.34249  15823975.6654   15823980.6234
  16282253.234   -45933154.15549 -35032313.93349  16282253.7404   16282259.0544
 96  2 19 20 12 59.9810000  0  9 28  2 19 12 29 18 16 27 31
  18531518.851   -39110942.856 9 -30459543.115 9  18531519.186    18531524.825
  17083851.968   -11428861.28049  -8866056.79749  17083851.7694   17083857.8574
  14916151.072   -47496919.74049 -36708412.44349  14916151.5124   14916156.6684
  18259409.437    -6070869.343 9  -4694459.846 9  18259410.592    18259418.490
  18454383.586   -12711419.86349  -9894261.25349  18454385.2514   18454391.5884
  15757997.994   -32098362.49949 -24984182.19949  15757997.9534   15758002.5604
  18212951.815   -20537286.92949 -15976162.63449  18212951.6184   18212957.2174
  15797607.015   -46171040.61249 -35946316.82049  15797607.1484   15797612.2624
  16269086.050   -46002358.02749 -35086239.03949  16269084.8654   16269089.7144
 96  2 19 20 13 29.9810000  0  9 28  2 19 12 29 18 16 27 31
  18528630.107   -39126129.027 9 -30471376.537 9  18528629.484    18528635.261
  17055388.469   -11578436.43649  -8982608.83949  17055388.6824   17055394.5724
  14900061.648   -47581468.65549 -36774294.71149  14900062.4144   14900067.5734
  18230588.584    -6222327.839 9  -4812479.397 9  18230588.760    18230595.737
  18458691.893   -12688788.24649  -9876626.28349  18458692.2624   18458698.2034
  15756583.060   -32105798.25449 -24989976.31749  15756583.0304   15756587.6474
  18195264.050   -20630237.24149 -16048591.46249  18195263.6864   18195269.1534
  15771275.846   -46309411.72549 -36054138.44349  15771276.0544   15771280.8714
  16256032.557   -46070947.92449 -35139685.71949  16256032.6174   16256037.7034
 96  2 19 20 13 59.9810000  0  9 28  2 19 12 29 18 16 27 31
  18525825.166   -39140867.016 9 -30482860.718 9  18525825.294    18525830.866
  17026972.836   -11727763.52549  -9098967.58049  17026973.2544   17026978.7154
  14884022.575   -47665756.63849 -36839973.65249  14884023.0614   14884028.0214
  18201801.698    -6373607.071 9  -4930359.253 9  18201802.250    18201808.543
  18463037.385   -12665953.23449  -9858832.82249  18463038.1394   18463043.9804
  15755247.786   -32112814.62049 -24995443.63149  15755247.5754   15755252.3804
  18177678.301   -20722648.93549 -16120600.59849  18177678.0424   18177685.3184
  15744980.816   -46447593.07949 -36161812.20349  15744981.2484   15744986.1484
  16243099.736   -46138912.84549 -35192645.40149  16243099.5534   16243104.7414
 96  2 19 20 14 29.9810000  0  9 28  2 19 12 29 18 16 27 31
  18523105.056   -39155162.475 9 -30494000.071 9  18523104.733    18523110.101
  16998608.385   -11876821.28949  -9215116.46349  16998608.2784   16998613.7094
  14868030.577   -47749795.89949 -36905458.78549  14868030.9074   14868035.7024
  18173047.515    -6524710.564 9  -5048102.185 9  18173047.659    18173054.399
  18467418.957   -12642925.74249  -9840889.38349  18467419.8814   18467425.4824
  15753988.472   -32119434.83149 -25000602.25949  15753988.1284   15753992.6984
  18160195.307   -20814523.04549 -16192190.81749  18160195.2064   18160200.9984
  15718720.397   -46585591.55649 -36269343.46249  15718720.8564   15718726.0664
  16230286.315   -46206247.69149 -35245114.12049  16230286.0774   16230291.0284
 96  2 19 20 14 59.9810000  0  9 28  2 19 12 29 18 16 27 31
  18520468.610   -39169018.539 9 -30504797.041 9  18520467.714    18520473.316
  16970300.636   -12025577.12049  -9331030.06149  16970300.5884   16970306.4624
  14852085.468   -47833588.17749 -36970751.46849  14852085.6964   14852090.7334
  18144326.244    -6675639.831 9  -5165709.326 9  18144326.187    18144333.384
  18471831.395   -12619733.97149  -9822817.93349  18471833.5594   18471838.9954
  15752800.425   -32125676.36049 -25005465.80849  15752800.2254   15752804.7834
  18142819.452   -20905834.37649 -16263342.52049  18142818.9564   18142824.5354
  15692492.092   -46723421.70449 -36376743.55749  15692492.4104   15692497.5664
  16217592.233   -46272948.76549 -35297088.98449  16217593.4304   16217598.2914
 96  2 19 20 15 29.9810000  0  9 28  2 19 12 29 18 16 27 31
  18517913.960   -39182437.394 9 -30515253.330 9  18517914.325    18517919.773
  16942054.165   -12174016.62949  -9446697.18449  16942053.5354   16942059.1684
  14836186.554   -47917136.88849 -37035854.35849  14836186.9984   14836192.0504
  18115638.225    -6826395.055 9  -5283180.873 9  18115638.994    18115644.893
  18476274.853   -12596394.76949  -9804631.59549  18476274.3284   18476280.6694
  15751684.948   -32131537.82649 -25010033.19849  15751685.0584   15751689.5874
  18125551.726   -20996577.43349 -16334051.40249  18125550.9604   18125557.4634
  15666295.152   -46861087.48349 -36484015.57049  15666295.4194   15666300.5644
  16205023.011   -46339010.14149 -35348565.37649  16205022.2544   16205027.3024
 96  2 19 20 15 59.9810000  0  9 28  2 19 12 29 18 16 27 31
  18515442.720   -39195424.582 9 -30525373.252 9  18515442.722    18515448.588
  16913865.493   -12322145.98149  -9562122.62449  16913865.5354   16913870.8684
  14820331.924   -48000455.13549 -37100777.66249  14820331.9684   14820337.0064
  18086982.296    -6976979.977 9  -5400519.737 9  18086983.273    18086989.600
  18480737.204   -12572935.40549  -9786351.62149  18480738.2764   18480745.1034
  15750642.175   -32137017.57049 -25014303.14649  15750642.3864   15750646.8394
  18108389.908   -21086764.02349 -16404326.69249  18108388.9334   18108395.7514
  15640131.630   -46998579.30349 -36591152.03549  15640131.7654   15640137.0074
  16192573.513   -46404431.70649 -35399543.21449  16192573.2624   16192577.5464
 96  2 19 20 16 29.9810000  0  9 28  2 19 12 29 18 16 27 31
  18513055.460   -39207974.569 9 -30535152.508 9  18513054.810    18513060.691
  16885736.936   -12469960.60349  -9677302.82349  16885737.3094   16885742.8284
  14804525.578   -48083518.67449 -37165502.50149  14804525.6794   14804530.4324
  18058361.467    -7127386.997 9  -5517719.965 9  18058361.693    18058369.216
  18485225.549   -12549351.63749  -9767974.71549  18485225.3904   18485232.8214
  15749674.563   -32142102.08949 -25018265.13349  15749674.6314   15749679.2794
  18091332.574   -21176399.20749 -16474172.30549  18091333.1654   18091338.4484
  15614002.844   -47135885.62349 -36698143.95749  15614003.2044   15614008.2644
  16180245.590   -46469214.56349 -35450023.35549  16180244.8774   16180249.6814
 96  2 19 20 16 59.9810000  0  9 28  2 19 12 29 18 16 27 31
  18510749.917   -39220093.636 9 -30544595.975 9  18510749.082    18510754.217
  16857663.628   -12617489.52349  -9792260.38649  16857663.4914   16857669.2024
  14788770.089   -48166311.26449 -37230016.20749  14788770.6654   14788775.6644
  18029773.592    -7277620.375 9  -5634784.907 9  18029773.338    18029780.933
  18489737.296   -12525640.22949  -9749498.35349  18489737.5164   18489744.6194
  15748785.448   -32146772.15649 -25021904.16649  15748785.9144   15748790.7734
  18074381.004   -21265483.48249 -16543588.63849  18074380.0814   18074386.5704
  15587908.712   -47273010.93649 -36804994.83049  15587909.3204   15587914.3444
  16168037.985   -46533364.06549 -35500009.97049  16168037.8604   16168042.2904
 96  2 19 20 17 29.9810000  0  9 28  2 19 12 29 18 16 27 31
  18508524.348   -39231780.105 9 -30553702.352 9  18508525.049    18508530.560
  16829639.722   -12764754.39049  -9907012.19549  16829640.1434   16829645.1124
  14773067.545   -48248830.39349 -37294316.82849  14773067.9054   14773072.7864
  18001218.175    -7427676.759 9  -5751711.932 9  18001218.135    18001225.348
  18494277.160   -12501782.72249  -9730908.14849  18494278.1854   18494284.7454
  15747980.725   -32151007.55049 -25025204.49349  15747979.8344   15747984.7444
  18057532.718   -21354015.94849 -16612575.01149  18057533.1994   18057538.9044
  15561848.956   -47409956.36849 -36911705.54249  15561849.3124   15561854.1074
  16155949.000   -46596888.99849 -35549509.90949  16155949.1454   16155954.3634
 96  2 19 20 17 59.9810000  0  9 28  2 19 12 29 18 16 27 31
  18506383.128   -39243035.047 9 -30562472.470 9  18506383.227    18506388.953
  16801667.448   -12911752.63749 -10021556.25149  16801666.8744   16801673.1154
  14757419.300   -48331063.62849 -37358394.67449  14757419.6264   14757424.2504
  17972697.012    -7577555.207 9  -5868500.334 9  17972697.696    17972704.771
  18498848.087   -12477766.25349  -9712194.06849  18498848.0424   18498854.9024
  15747256.327   -32154809.85349 -25028167.34849  15747256.6404   15747261.5734
  18040793.038   -21441988.17549 -16681124.80949  18040792.6284   18040798.2024
  15535824.655   -47546716.62649 -37018271.96749  15535824.8614   15535829.8794
  16143979.463   -46659790.76049 -35598524.25649  16143979.4694   16143984.8994
 96  2 19 20 18 29.9810000  0  9 28  2 19 12 29 18 16 27 31
  18504322.835   -39253861.686 9 -30570908.846 9  18504322.830    18504328.636
  16773744.007   -13058488.97849 -10135896.22349  16773743.6914   16773749.9794
  14741826.885   -48413001.19049 -37422242.12349  14741827.1994   14741832.2704
  17944209.003    -7727256.881 9  -5985150.967 9  17944209.841    17944217.757
  18503452.562   -12453564.55049  -9693335.64849  18503454.6564   18503460.3664
  15746615.936   -32158172.97849 -25030787.98249  15746616.2844   15746621.3914
  18024159.249   -21529402.36149 -16749239.77949  18024158.1834   18024163.7584
  15509832.916   -47683302.75949 -37124702.70849  15509833.2374   15509838.3124
  16132129.134   -46722063.33849 -35647048.33249  16132129.4644   16132134.7684
 96  2 19 20 18 59.9810000  0  9 28  2 19 12 29 18 16 27 31
  18502344.880   -39264260.025 9 -30579011.473 9  18502344.316    18502349.893
  16745870.701   -13204966.43449 -10250034.46849  16745870.1954   16745875.9224
  14726290.564   -48494644.59449 -37485860.35849  14726290.9884   14726295.8344
  17915756.597    -7876780.115 9  -6101662.553 9  17915756.693    17915764.621
  18508093.749   -12429172.60149  -9674329.00049  18508096.0844   18508102.2594
  15746064.379   -32161076.22949 -25033050.27349  15746064.0444   15746068.8224
  18007628.984   -21616262.94349 -16816923.37249  18007629.2614   18007636.7034
  15483874.630   -47819715.39949 -37230998.26749  15483874.6994   15483879.5284
  16120401.119   -46783697.77549 -35695075.14649  16120401.1424   16120405.9664
 96  2 19 20 19 29.9810000  0  9 28  2 19 12 29 18 16 27 31
  18500444.939   -39274238.576 9 -30586786.994 9  18500445.429    18500451.288
  16718046.119   -13351182.53149 -10363969.06049  16718046.5154   16718051.6544
  14710806.862   -48576012.13149 -37549263.63449  14710807.4034   14710812.0954
  17887336.409    -8026131.265 9  -6218040.081 9  17887336.666    17887342.720
  18512769.206   -12404606.94149  -9655186.98449  18512770.1294   18512776.5954
  15745594.931   -32163546.26949 -25034975.00049  15745593.9704   15745598.9274
  17991199.918   -21702598.70549 -16884198.01649  17991199.5924   17991206.1914
  15457949.892   -47955950.08349 -37337155.16049  15457950.4194   15457955.4084
  16108790.927   -46844709.03649 -35742616.37549  16108790.7994   16108795.6734
 96  2 19 20 19 59.9810000  0  9 28  2 19 12 29 18 16 27 31
  18498626.163   -39283802.840 9 -30594239.685 9  18498625.548    18498630.836
  16690271.454   -13497141.14449 -10477703.00949  16690271.2804   16690276.2284
  14695377.749   -48657092.85449 -37612443.41349  14695377.9114   14695382.6254
  17858947.271    -8175313.620 9  -6334286.075 9  17858947.978    17858954.696
  18517476.072   -12379874.50049  -9635915.00749  18517476.3524   18517482.7854
  15745202.534   -32165603.13349 -25036577.76949  15745202.6284   15745207.8814
  17974864.755   -21788440.01949 -16951087.36349  17974864.5804   17974871.0794
  15432062.325   -48091990.37349 -37443160.57149  15432062.6534   15432067.5384
  16097301.302   -46905086.58849 -35789663.80349  16097301.0784   16097306.3774
 96  2 19 20 20 29.9810000  0  9 28  2 19 12 29 18 16 27 31
  18496884.106   -39292955.043 9 -30601371.302 9  18496883.816    18496889.468
  16662544.276   -13642848.90649 -10591241.49749  16662544.1994   16662549.8104
  14680003.687   -48737883.71849 -37675397.32949  14680004.0254   14680009.0034
  17830590.560    -8324327.880 9  -6450401.062 9  17830591.386    17830598.236
  18522213.500   -12354986.13549  -9616521.53149  18522212.5684   18522220.2044
  15744888.408   -32167250.70549 -25037861.60449  15744889.3264   15744894.2364
  17958622.538   -21873795.49549 -17017598.13749  17958622.3044   17958630.1154
  15406209.001   -48227852.46249 -37549027.13349  15406209.0754   15406214.0714
  16085932.747   -46964834.09649 -35836220.29249  16085932.2264   16085937.1424
 96  2 19 20 20 59.9800000  0  9 28  2 19 12 29 18 16 27 31
  18495219.564   -39301701.094 9 -30608186.440 9  18495219.429    18495225.134
  16634866.174   -13788298.43549 -10704578.75449  16634865.8334   16634871.2594
  14664681.536   -48818403.40649 -37738139.94549  14664681.8574   14664686.7224
  17802267.240    -8473173.049 9  -6566384.317 9  17802267.560    17802273.905
  18526971.024   -12329973.89949  -9597031.52749  18526971.6564   18526978.7674
  15744649.470   -32168510.50249 -25038843.28649  15744649.4064   15744654.4734
  17942474.502   -21958657.35949 -17083724.28049  17942474.3834   17942479.8434
  15380391.153   -48363524.64349 -37654745.71049  15380391.2874   15380396.3634
  16074679.681   -47023966.01349 -35882297.09849  16074679.1764   16074684.1164
 96  2 19 20 21 29.9800000  0  9 28  2 19 12 29 18 16 27 31
  18493632.230   -39310043.605 9 -30614687.138 9  18493632.102    18493637.600
  16607237.488   -13933489.30249 -10817714.46749  16607236.7504   16607242.4734
  14649407.164   -48898670.08649 -37800685.41149  14649407.3084   14649412.2554
  17773973.137    -8621859.059 9  -6682243.542 9  17773973.259    17773979.700
  18531754.538   -12304843.31849  -9577449.31449  18531754.8744   18531761.6244
  15744478.234   -32169412.01149 -25039545.77549  15744477.8294   15744482.7204
  17926424.509   -22042995.06449 -17149441.99549  17926425.1624   17926431.5394
  15354608.285   -48499014.71749 -37760322.38549  15354608.3834   15354613.3984
  16063542.215   -47082494.41849 -35927903.63949  16063542.2124   16063546.9054
 96  2 19 20 21 59.9800000  0  9 28  2 19 12 29 18 16 27 31
  18492121.549   -39317983.638 9 -30620874.220 9  18492121.195    18492126.916
  16579659.409   -14078413.27549 -10930642.21649  16579658.8904   16579664.3444
  14634180.567   -48978685.51249 -37863035.09449  14634180.9274   14634185.8654
  17745709.179    -8770380.673 9  -6797974.657 9  17745710.123    17745717.367
  18536560.083   -12279590.86949  -9557772.13949  18536560.6904   18536566.6574
  15744374.994   -32169950.40549 -25039965.31949  15744375.4074   15744380.1414
  17910484.516   -22126762.42149 -17214715.26449  17910484.2274   17910491.4774
  15328857.807   -48634333.02249 -37865765.20849  15328858.1894   15328863.2664
  16052521.911   -47140405.88249 -35973029.45449  16052521.4244   16052526.7484
 96  2 19 20 22 29.9800000  0  9 28  2 19 12 29 18 16 27 31
  18490686.472   -39325521.530 9 -30626747.945 9  18490686.649    18490692.313
  16552135.162   -14223052.95049 -11043348.42649  16552134.5384   16552140.2114
  14618998.286   -49058470.37349 -37925205.11949  14618998.4154   14619003.1814
  17717479.374    -8918735.876 9  -6913576.103 9  17717479.367    17717486.496
  18541387.786   -12254223.37549  -9538005.31749  18541388.0064   18541393.6064
  15744345.596   -32170111.60749 -25040090.95049  15744344.7614   15744349.5694
  17894659.200   -22209924.79949 -17279517.12049  17894659.9544   17894666.0994
  15303140.769   -48769477.90649 -37971072.90349  15303140.8234   15303146.0424
  16041618.750   -47197701.44249 -36017675.34049  16041618.5194   16041623.6304
 96  2 19 20 22 59.9800000  0  9 28  2 19 12 29 18 16 27 31
  18489328.169   -39332660.789 9 -30632311.049 9  18489327.731    18489333.763
  16524664.567   -14367408.93249 -11155833.57849  16524664.4004   16524669.9864
  14603857.897   -49138033.06049 -37987202.02049  14603858.1494   14603863.2054
  17689277.482    -9066926.162 9  -7029049.029 9  17689278.354    17689286.994
  18546236.680   -12228740.56449  -9518148.63349  18546237.2884   18546242.8974
  15744385.779   -32169897.01949 -25039923.75549  15744385.7774   15744390.7804
  17878950.903   -22292476.03449 -17343842.76949  17878949.6644   17878955.7124
  15277459.910   -48904431.81749 -38076231.78249  15277460.0664   15277465.3404
  16030831.650   -47254391.07349 -36061849.07549  16030831.0924   16030835.6514
 96  2 19 20 23 29.9800000  0  9 28  2 19 12 29 18 16 27 31
  18488045.520   -39339400.895 9 -30637563.130 9  18488045.581    18488051.156
  16497249.327   -14511478.92049 -11268095.88449  16497248.8954   16497254.5084
  14588765.179   -49217344.83549 -38049003.40549  14588765.5994   14588771.0454
  17661111.780    -9214948.689 9  -7144391.230 9  17661111.680    17661118.343
  18551109.017   -12203138.37349  -9498198.94149  18551109.4114   18551115.0084
  15744501.782   -32169289.32649 -25039450.24749  15744501.3124   15744506.0674
  17863355.601   -22374429.67849 -17407702.76349  17863354.3184   17863360.9754
  15251814.453   -49039199.05849 -38181245.20749  15251814.4894   15251819.5364
  16020159.913   -47310467.76649 -36105545.20349  16020159.6184   16020165.0484
 96  2 19 20 23 59.9800000  0  9 28  2 19 12 29 18 16 27 31
  18486839.167   -39345741.415 9 -30642503.849 9  18486838.965    18486844.532
  16469888.242   -14655261.53449 -11380134.25149  16469888.2344   16469893.5874
  14573724.412   -49296384.64549 -38110592.86949  14573724.8634   14573729.8534
  17632975.569    -9362801.569 9  -7259601.251 9  17632976.291    17632983.515
  18556004.619   -12177409.98349  -9478150.90249  18556004.9594   18556010.5764
  15744694.140   -32168272.78449 -25038658.15549  15744694.8364   15744699.5714
  17847863.861   -22455833.92349 -17471134.64449  17847863.8384   17847870.6484
  15226207.964   -49173759.13649 -38286097.20049  15226208.4984   15226213.8804
  16009607.128   -47365924.57049 -36148758.29649  16009606.6724   16009611.8774
 96  2 19 20 24 29.9800000  0  9 28  2 19 12 29 18 16 27 31
  18485708.177   -39351684.774 9 -30647135.087 9  18485708.033    18485713.614
  16442583.441   -14798749.52349 -11491943.04549  16442583.6264   16442588.8914
  14558737.459   -49375141.08249 -38171961.52549  14558737.8924   14558743.1494
  17604870.647    -9510485.235 9  -7374679.379 9  17604871.692    17604880.112
  18560926.143   -12151549.34349  -9457999.82149  18560926.1264   18560931.8134
  15744965.798   -32166848.52049 -25037548.35449  15744965.7474   15744970.7674
  17832469.743   -22536732.84249 -17534172.78449  17832469.0634   17832475.8764
  15200643.604   -49308102.58249 -38390780.38849  15200643.8774   15200648.8664
  15999167.823   -47420778.17949 -36191501.38249  15999168.2374   15999173.1914
 96  2 19 20 24 59.9800000  0  9 28  2 19 12 29 18 16 27 31
  18484653.702   -39357228.756 9 -30651455.122 9  18484652.906    18484658.582
  16415333.395   -14941948.35549 -11603526.51949  16415333.2414   16415338.9434
  14543807.742   -49453598.48849 -38233097.16649  14543808.1804   14543813.1174
  17576803.291    -9657995.032 9  -7489622.020 9  17576802.670    17576809.740
  18565875.837   -12125538.70449  -9437731.86049  18565875.0504   18565882.5264
  15745311.908   -32165031.32849 -25036132.37949  15745311.7104   15745316.5164
  17817166.358   -22617151.42949 -17596836.62049  17817165.5884   17817172.7624
  15175118.558   -49442238.33449 -38495301.73649  15175118.6994   15175123.8794
  15988846.147   -47475023.46149 -36233770.44849  15988846.1244   15988851.2584
 96  2 19 20 25 29.9800000  0  9 28  2 19 12 29 18 16 27 31
  18483673.734   -39362376.076 9 -30655466.069 9  18483673.655    18483679.477
  16388137.530   -15084862.09649 -11714887.84449  16388137.4594   16388143.2854
  14528934.307   -49531759.41449 -38294001.78549  14528934.4144   14528939.6024
  17548763.087    -9805331.894 9  -7604429.913 9  17548764.770    17548772.533
  18570853.956   -12099377.53049  -9417346.59549  18570854.8304   18570860.8374
  15745728.745   -32162836.48749 -25034422.13349  15745729.3954   15745734.5434
  17801952.078   -22697100.62849 -17659134.70949  17801952.0424   17801958.7074
  15149634.618   -49576157.00149 -38599653.92449  15149635.0334   15149639.9214
  15978642.034   -47528642.89249 -36275551.83949  15978642.4494   15978647.1594
 96  2 19 20 25 59.9800000  0  9 28  2 19 12 29 18 16 27 31
  18482769.669   -39367125.921 9 -30659167.288 9  18482769.682    18482775.464
  16360996.961   -15227489.91349 -11826026.37549  16360996.6624   16361002.6184
  14514113.974   -49609641.13849 -38354688.84049  14514114.0594   14514119.1694
  17520761.342    -9952492.753 9  -7719100.645 9  17520761.338    17520769.186
  18575862.456   -12073056.11949  -9396836.46749  18575862.4444   18575869.7774
  15746216.638   -32160277.23049 -25032427.92649  15746216.4324   15746221.4054
  17786830.990   -22776562.89649 -17721053.37449  17786831.2304   17786838.8674
  15124191.558   -49709862.39649 -38703839.93249  15124191.4294   15124196.4204
  15968558.619   -47581634.73349 -36316844.19049  15968558.6434   15968563.8274
 96  2 19 20 26 29.9800000  0  9 28  2 19 12 29 18 16 27 31
  18481941.249   -39371481.294 9 -30662561.135 9  18481941.110    18481946.625
  16333908.245   -15369837.59049 -11936946.61149  16333908.4664   16333914.1434
  14499345.286   -49687250.06449 -38415163.32349  14499345.7054   14499350.7604
  17492790.470   -10099478.835 9  -7833635.216 9  17492790.901    17492797.463
  18580898.606   -12046595.87049  -9376218.16549  18580898.3794   18580904.9604
  15746771.768   -32157361.11949 -25030155.65549  15746771.5804   15746776.4934
  17771809.519   -22855506.42449 -17782567.82149  17771808.6404   17771815.9684
  15098783.479   -49843382.49149 -38807881.54749  15098783.5934   15098788.2514
  15958593.425   -47634001.49349 -36357649.47549  15958593.7334   15958598.7784
 96  2 19 20 26 59.9800000  0  9 28  2 19 12 29 18 16 27 31
  18481186.497   -39375448.258 9 -30665652.319 9  18481186.188    18481191.965
  16306872.763   -15511913.20749 -12047654.85449  16306872.2874   16306877.9454
  14484628.585   -49764584.84749 -38475424.18149  14484629.3064   14484634.3274
  17464852.322   -10246293.908 9  -7948036.531 9  17464852.337    17464860.130
  18585953.423   -12020027.96149  -9355515.98549  18585954.5314   18585960.9924
  15747392.336   -32154095.76649 -25027611.24049  15747392.7114   15747397.4794
  17756891.463   -22933901.66249 -17843655.03649  17756890.5804   17756897.2764
  15073411.423   -49976714.98449 -38911776.98349  15073411.1914   15073415.9854
  15948748.908   -47685736.48849 -36397962.47649  15948748.5074   15948753.8444
 96  2 19 20 27 29.9800000  0  9 28  2 19 12 29 18 16 27 31
  18480505.570   -39379025.856 9 -30668440.095 9  18480505.393    18480510.717
  16279890.913   -15653701.85249 -12158139.47149  16279891.1194   16279896.8714
  14469966.670   -49841635.75249 -38535463.83349  14469966.9694   14469971.9614
  17436947.737   -10392934.988 9  -8062302.264 9  17436947.841    17436955.380
  18591025.892   -11993367.18049  -9334741.42349  18591027.1274   18591034.1744
  15748086.675   -32150453.84249 -25024773.40049  15748085.9164   15748091.0974
  17742080.112   -23011730.24849 -17904300.68449  17742080.4114   17742086.6774
  15048075.472   -50109851.45449 -39015519.66949  15048076.0894   15048080.8804
  15939022.259   -47736848.53749 -36437790.05849  15939021.7824   15939027.7634
 96  2 19 20 27 59.9800000  0  9 28  2 19 12 29 18 16 27 31
  18479898.565   -39382217.219 9 -30670926.902 9  18479898.069    18479903.286
  16252966.691   -15795194.91849 -12268393.76749  16252965.9514   16252971.6374
  14455359.201   -49918398.85249 -38595279.22649  14455359.5434   14455364.4804
  17409075.073   -10539403.184 9  -8176433.293 9  17409075.488    17409083.448
  18596116.834   -11966618.06249  -9313898.04549  18596118.1874   18596124.9724
  15748853.244   -32146422.67549 -25021632.25349  15748852.7504   15748857.6734
  17727378.830   -23088990.46949 -17964503.46649  17727378.7144   17727384.3924
  15022775.351   -50242808.53549 -39119122.57549  15022775.1524   15022780.3794
  15929412.378   -47787352.81049 -36477144.04749  15929411.7964   15929417.3194
 96  2 19 20 28 29.9800000  0  9 28  2 19 12 29 18 16 27 31
  18479363.298   -39385029.488 9 -30673118.310 9  18479362.991    18479368.040
  16226094.397   -15936407.30349 -12378429.36349  16226093.9474   16226099.1834
  14440808.651   -49994864.03549 -38654862.47549  14440808.7864   14440813.5474
  17381234.319   -10685703.713 9  -8290433.688 9  17381235.773    17381242.837
  18601222.518   -11939785.89449  -9292989.94849  18601223.9154   18601231.8194
  15749693.890   -32142002.37649 -25018187.89749  15749693.7874   15749699.0374
  17712783.809   -23165687.00349 -18024267.01249  17712784.3274   17712788.9734
  14997511.511   -50375570.42249 -39222573.38449  14997511.5624   14997516.5064
  15919916.480   -47837252.89049 -36516027.23449  15919916.0354   15919921.2154
 96  2 19 20 28 59.9800000  0  9 28  2 19 12 29 18 16 27 31
  18478900.380   -39387463.936 9 -30675015.308 9  18478899.840    18478905.079
  16199275.899   -16077340.05849 -12488247.05949  16199275.5304   16199280.7594
  14426312.723   -50071038.50349 -38714219.19349  14426313.3364   14426318.2124
  17353427.276   -10831835.574 9  -8404302.649 9  17353427.960    17353435.427
  18606349.818   -11912849.12849  -9272000.35749  18606349.7914   18606357.4344
  15750609.708   -32137191.08149 -25014438.86349  15750609.9214   15750614.5854
  17698293.618   -23241832.33149 -18083601.04349  17698293.0094   17698300.5914
  14972288.505   -50508117.09549 -39325856.49449  14972288.6804   14972293.7024
  15910536.020   -47886546.08749 -36554437.52249  15910535.8184   15910540.9324
 96  2 19 20 29 29.9800000  0  8 28  2 19 12 18 16 27 31
  18478508.437   -39389524.160 9 -30676620.711 9  18478507.965    18478513.261
  16172507.832   -16218005.11749 -12597856.16149  16172507.5874   16172513.2884
  14411871.336   -50146929.86749 -38773355.31349  14411871.5994   14411876.6244
  17325649.648   -10977800.223 9  -8518041.309 9  17325651.597    17325659.090
  15751598.154   -32131999.71449 -25010393.67249  15751598.0774   15751602.7864
  17683903.726   -23317449.40949 -18142523.43549  17683903.8714   17683911.3144
  14947105.314   -50640456.59849 -39428978.17549  14947105.3764   14947110.4944
  15901270.985   -47935235.58349 -36592377.39249  15901270.6944   15901276.1764
 96  2 19 20 29 59.9800000  0  8 28  2 19 12 18 16 27 31
  18478187.002   -39391215.585 9 -30677938.730 9  18478186.032    18478191.444
  16145788.868   -16358414.92149 -12707266.37049  16145788.3134   16145793.6774
  14397483.132   -50222539.88449 -38832272.20649  14397483.2014   14397488.1974
  17297906.785   -11123601.091 9  -8631652.357 9  17297906.322    17297914.208
  15752653.246   -32126451.19349 -25006070.17749  15752653.5394   15752658.3034
  17669615.564   -23392536.63549 -18201032.96449  17669615.3774   17669622.1674
  14921961.503   -50772587.33749 -39531937.18349  14921961.5384   14921966.6914
  15892122.281   -47983311.96749 -36629839.51749  15892122.0594   15892127.4994
 96  2 19 20 30 29.9790000  0  8 28  2 19 12 18 16 27 31
  18477934.656   -39392540.596 9 -30678971.233 9  18477934.031    18477939.432
  16119118.778   -16498563.66549 -12816473.15049  16119118.9134   16119124.3914
  14383149.856   -50297860.70949 -38890963.75749  14383150.4134   14383155.3684
  17270194.125   -11269233.544 9  -8745132.149 9  17270193.778    17270200.601
  15753775.903   -32120554.69949 -25001475.53649  15753775.8844   15753780.5604
  17655428.661   -23467090.75349 -18259127.09349  17655428.3824   17655434.4124
  14896859.678   -50904499.88049 -39634726.17449  14896859.5934   14896864.6674
  15883091.994   -48030768.55749 -36666818.68349  15883091.3244   15883097.0084
 96  2 19 20 30 59.9790000  0  8 28  2 19 12 18 16 27 31
  18477750.191   -39393508.484 9 -30679725.455 9  18477749.679    18477754.975
  16092500.740   -16638446.37249 -12925472.63549  16092500.0814   16092505.8434
  14368867.223   -50372915.85149 -38949448.28149  14368867.6024   14368872.6064
  17242509.373   -11414714.350 9  -8858493.799 9  17242510.163    17242516.726
  15754962.590   -32114322.25849 -24996619.11649  15754961.8964   15754966.7934
  17641338.160   -23541135.83849 -18316824.57449  17641338.5964   17641343.8844
  14871792.407   -51036227.27049 -39737370.88949  14871792.7154   14871797.7514
  15874175.594   -48077620.38449 -36703326.60149  15874175.6854   15874180.6674
 96  2 19 20 31 29.9790000  0  8 28  2 19 12 18 16 27 31
  18477632.792   -39394122.404 9 -30680203.859 9  18477632.691    18477638.000
  16065935.441   -16778048.20349 -13034253.25549  16065934.6704   16065940.3444
  14354637.518   -50447693.86449 -39007716.87049  14354637.9424   14354642.9284
  17214853.934   -11560039.907 9  -8971734.459 9  17214854.449    17214862.907
  15756212.051   -32107751.77249 -24991499.28449  15756212.2704   15756217.0904
  17627345.187   -23614669.03949 -18374123.17949  17627345.1544   17627351.1954
  14846760.477   -51167771.08449 -39839872.56549  14846760.6554   14846765.5184
  15865374.319   -48123874.63049 -36739368.87749  15865373.6394   15865378.9194
 96  2 19 20 31 59.9790000  0  8 28  2 19 12 18 16 27 31
  18477583.589   -39394382.642 9 -30680406.670 9  18477583.269    18477588.608
  16039426.644   -16917350.60149 -13142800.55249  16039426.2974   16039432.0184
  14340459.909   -50522200.03449 -39065773.63149  14340460.0464   14340464.7294
  17187229.416   -11705208.414 9  -9084852.735 9  17187230.051    17187238.123
  15757529.128   -32100833.01349 -24986108.07649  15757529.0224   15757533.6474
  17613451.303   -23687678.53649 -18431013.71049  17613452.0454   17613458.6304
  14821766.317   -51299117.65749 -39942220.54749  14821766.1614   14821771.2014
  15856686.362   -48169527.49749 -36774942.54749  15856686.5504   15856691.6524
 96  2 19 20 32 29.9790000  0  8 28  2 19 12 18 16 27 31
  18477601.612   -39394290.800 9 -30680335.133 9  18477600.960    18477606.097
  16012976.145   -17056349.00749 -13251110.97449  16012975.5454   16012981.4734
  14326330.565   -50596448.70449 -39123629.74049  14326330.8154   14326336.0014
  17159636.728   -11850219.297 9  -9197848.207 9  17159635.378    17159643.178
  15758911.283   -32093565.03449 -24980444.73549  15758912.1144   15758916.6474
  17599657.934   -23760171.70049 -18487501.91149  17599657.5954   17599662.7684
  14796810.194   -51430261.10249 -40044410.24449  14796810.4954   14796815.6274
  15848112.029   -48214584.78349 -36810052.12249  15848112.3004   15848117.7844
 96  2 19 20 32 59.9790000  0  8 28  2 19 12 18 16 27 31
  18477685.793   -39393848.161 9 -30679990.253 9  18477685.550    18477690.441
  15986582.826   -17195045.27749 -13359185.97149  15986582.6984   15986588.1824
  14312249.112   -50670444.75949 -39181289.01449  14312249.6704   14312254.9454
  17132070.748   -11995071.685 9  -9310720.163 9  17132070.960    17132078.107
  15760362.101   -32085941.45949 -24974504.31949  15760362.9254   15760367.1354
  17585959.305   -23832153.21649 -18543591.42049  17585959.6744   17585965.2294
  14771894.025   -51561198.03549 -40146439.02449  14771894.1804   14771898.9534
  15839651.879   -48259044.74849 -36844696.26149  15839652.0484   15839656.9674
 96  2 19 20 33 29.9790000  0  8 28  2 19 12 18 16 27 31
  18477835.971   -39393059.403 9 -30679375.670 9  18477835.552    18477840.630
  15960243.327   -17333461.81249 -13467042.99249  15960242.8324   15960248.6384
  14298218.108   -50744182.65049 -39238747.12449  14298218.2034   14298223.2354
  17104535.138   -12139768.086 9  -9423470.581 9  17104536.050    17104544.516
  15761880.418   -32077966.35149 -24968289.97649  15761880.5114   15761885.1264
  17572361.382   -23903614.18549 -18599275.31549  17572360.8474   17572366.2814
  14747020.841   -51691906.09449 -40248289.46149  14747021.1744   14747026.2034
  15831305.501   -48302907.66849 -36878875.17149  15831305.3984   15831310.5624
 96  2 19 20 33 59.9790000  0  8 28  2 19 12 18 16 27 31
  18478051.000   -39391926.498 9 -30678492.922 9  18478051.144    18478056.227
  15933954.055   -17471613.49549 -13574693.63449  15933953.0694   15933959.1064
  14284235.248   -50817662.34849 -39296004.04149  14284235.3434   14284240.2534
  17077031.510   -12284308.376 9  -9536099.342 9  17077031.205    17077038.784
  15763461.706   -32069653.59849 -24961812.53049  15763462.3424   15763466.9144
  17558861.641   -23974557.47749 -18654555.80849  17558861.2924   17558866.3744
  14722193.128   -51822378.70449 -40349956.42849  14722193.1484   14722197.8414
  15823072.630   -48346173.10149 -36912588.51349  15823071.8954   15823077.3824
 96  2 19 20 34 29.9790000  0  8 28  2 19 12 18 16 27 31
  18478331.825   -39390451.495 9 -30677343.610 9  18478331.615    18478336.980
  15907713.316   -17609507.74649 -13682143.67849  15907713.0114   15907718.7104
  14270303.425   -50890871.96049 -39353050.50549  14270304.1664   14270309.1544
  17049556.141   -12428692.214 9  -9648606.205 9  17049556.211    17049563.337
  15765107.234   -32061007.30849 -24955075.19249  15765107.7844   15765112.3604
  17545457.817   -24044991.36749 -18709439.37349  17545457.1004   17545464.1254
  14697407.361   -51952628.07949 -40451449.44149  14697407.4564   14697412.3334
  15814951.487   -48388850.45249 -36945843.60149  15814950.7034   15814956.1784
 96  2 19 20 34 59.9790000  0  8 28  2 19 12 18 16 27 31
  18478675.724   -39388643.068 9 -30675934.487 9  18478675.727    18478681.016
  15881521.610   -17747145.92949 -13789394.18549  15881521.1674   15881527.1784
  14256425.449   -50963803.22649 -39409880.06949  14256425.5014   14256430.6154
  17022108.552   -12572926.231 9  -9760996.305 9  17022108.808    17022116.301
  15766814.765   -32052037.43249 -24948085.69949  15766814.3514   15766819.2414
  17532150.823   -24114919.71249 -18763929.00149  17532151.0374   17532157.2684
  14672661.853   -52082666.47149 -40552778.04949  14672661.8514   14672666.6284
  15806938.672   -48430954.55649 -36978652.00349  15806938.6124   15806943.8504
 96  2 19 20 35 29.9790000  0  8 28  2 19 12 18 16 27 31
  18479084.762   -39386496.723 9 -30674262.051 9  18479084.427    18479089.568
  15855379.450   -17884522.45249 -13896440.81349  15855379.0674   15855385.0964
  14242600.897   -51036451.55349 -39466489.16749  14242601.1244   14242606.3034
  16994692.016   -12717003.939 9  -9873264.596 9  16994691.871    16994699.340
  15768581.362   -32042753.97149 -24940851.86749  15768581.1844   15768586.0074
  17518942.431   -24184332.40949 -18818016.84749  17518941.5554   17518947.0744
  14647957.868   -52212486.37649 -40653936.40649  14647957.9334   14647963.0874
  15799036.378   -48472483.23149 -37011012.02449  15799036.0964   15799041.6744
 96  2 19 20 35 59.9790000  0  8 28  2 19 12 18 16 27 31
  18479556.490   -39384018.659 9 -30672331.135 9  18479555.771    18479560.752
  15829290.804   -18021619.59149 -14003269.73549  15829290.4354   15829296.2094
  14228829.149   -51108822.62649 -39522882.22249  14228829.2264   14228834.3974
  16967303.780   -12860929.397 9  -9985414.260 9  16967304.200    16967311.704
  15770406.707   -32033163.44949 -24933378.76249  15770406.2764   15770411.1274
  17505828.845   -24253239.60449 -18871710.78049  17505828.8904   17505834.9374
  14623290.177   -52342115.65349 -40754946.21949  14623290.2464   14623295.3414
  15791242.870   -48513441.80949 -37042927.81449  15791241.9894   15791247.0464
 96  2 19 20 36 29.9790000  0  7  2 19 12 18 16 27 31
  15803258.085   -18158423.76649 -14109870.37449  15803257.3604   15803263.5644
  14215111.008   -51180912.09449 -39579055.84049  14215111.3594   14215116.1774
  16939944.271   -13004703.783 9 -10097446.218 9  16939944.798    16939952.154
  15772290.097   -32023258.62049 -24925660.74249  15772291.1824   15772296.0024
  17492813.060   -24321646.66149 -18925014.99549  17492810.9124   17492818.0594
  14598658.610   -52471555.72849 -40855808.60149  14598658.7234   14598663.6254
  15783556.766   -48553826.23149 -37074396.19549  15783557.1294   15783562.1784
 96  2 19 20 36 59.9790000  0  7  2 19 12 18 16 27 31
  15777279.767   -18294940.58249 -14216247.10749  15777279.2014   15777285.1684
  14201445.991   -51252721.94849 -39635011.58049  14201446.2744   14201451.3474
  16912614.514   -13148324.877 9 -10209358.707 9  16912614.624    16912621.948
  15774235.609   -32013037.61949 -24917696.35649  15774235.8274   15774241.0554
  17479891.088   -24389548.14249 -18977925.26949  17479890.6054   17479896.8134
  14574064.755   -52600795.24449 -40956514.70749  14574065.1714   14574070.1344
  15775984.606   -48593618.67449 -37105403.30149  15775984.4504   15775990.1604
 96  2 19 20 37 29.9790000  0  7  2 19 12 18 16 27 31
  15751352.850   -18431181.56549 -14322408.89549  15751353.2564   15751359.3564
  14187835.491   -51324247.69449 -39690745.93249  14187835.5744   14187840.5604
  16885312.433   -13291794.219 9 -10321152.964 9  16885312.894    16885320.664
  15776243.248   -32002491.09449 -24909478.31949  15776242.6384   15776247.8004
  17467064.939   -24456951.51049 -19030447.39249  17467064.6144   17467070.3514
  14549511.065   -52729825.12849 -41057057.45849  14549511.4304   14549516.5684
  15768527.443   -48632812.43249 -37135943.89849  15768526.1494   15768531.2404
 96  2 19 20 37 59.9790000  0  7  2 19 12 18 16 27 31
  15725480.837   -18567141.95049 -14428352.03649  15725481.0804   15725487.3664
  14174282.285   -51395468.14549 -39746242.38749  14174282.6524   14174287.6784
  16858041.679   -13435106.729 9 -10432825.019 9  16858042.238    16858049.032
  15778315.771   -31991598.46049 -24900990.58649  15778315.7054   15778320.6444
  17454334.258   -24523849.48549 -19082575.70149  17454334.2614   17454341.2164
  14525001.586   -52858627.28849 -41157422.76049  14525001.2184   14525006.2374
  15761182.684   -48671404.00349 -37166015.25349  15761182.6204   15761187.3474
 96  2 19 20 38 29.9790000  0  7  2 19 12 18 16 27 31
  15699657.575   -18702843.77049 -14534093.69349  15699657.3564   15699664.0494
  14160786.914   -51466387.81849 -39801504.47049  14160787.1674   14160792.2524
  16830798.062   -13578267.837 9 -10544379.086 9  16830798.716    16830806.169
  15780454.205   -31980360.99549 -24892234.15349  15780454.4614   15780459.4134
  17441700.141   -24590246.03349 -19134313.31249  17441699.9614   17441704.7474
  14500537.380   -52987184.43049 -41257597.14249  14500537.4854   14500542.6824
  15753952.783   -48709398.45749 -37195621.32149  15753952.2584   15753957.4304
 96  2 19 20 38 59.9790000  0  7  2 19 12 18 16 27 31
  15673883.267   -18838289.32349 -14639635.66349  15673883.2314   15673889.6534
  14147348.123   -51537006.50349 -39856532.00949  14147348.6174   14147353.5714
  16803585.686   -13721272.046 9 -10655810.899 9  16803585.982    16803593.683
  15782657.883   -31968777.24849 -24883207.88949  15782658.6004   15782663.5024
  17429163.854   -24656125.46449 -19185647.94449  17429163.2174   17429168.8334
  14476120.417   -53115494.35249 -41357578.88049  14476120.8674   14476126.1304
  15746832.985   -48746812.12349 -37224774.82249  15746832.8474   15746837.7994
 96  2 19 20 39 29.9790000  0  7  2 19 12 18 16 27 31
  15648158.466   -18973475.57249 -14744975.57649  15648157.8584   15648164.3374
  14133967.544   -51607322.88449 -39911323.98849  14133968.0174   14133972.9754
  16776401.261   -13864123.398 9 -10767123.600 9  16776402.383    16776410.009
  15784927.309   -31956854.71149 -24873917.62849  15784927.3634   15784932.1334
  17416725.616   -24721492.32849 -19236583.18149  17416724.0114   17416730.4714
  14451752.514   -53243549.89949 -41457362.40049  14451752.8394   14451758.1074
  15739819.452   -48783674.33949 -37253498.61949  15739818.5964   15739823.2284
 96  2 19 20 39 59.9780000  0  7  2 19 12 18 16 27 31
  15622483.251   -19108397.52849 -14850109.55149  15622482.8604   15622489.5724
  14120642.296   -51677345.81049 -39965887.30249  14120643.0564   14120647.9984
  16749249.150   -14006812.967 9 -10878310.225 9  16749249.179    16749257.223
  15787258.487   -31944607.48949 -24864374.36949  15787258.1904   15787262.6684
  17404384.373   -24786339.75449 -19287113.66849  17404385.0904   17404389.6494
  14427432.846   -53371351.66849 -41556948.17149  14427433.0314   14427438.2444
  15732907.773   -48819991.03649 -37281797.34349  15732907.8954   15732912.7544
 96  2 19 20 40 29.9780000  0  7  2 19 12 18 16 27 31
  15596857.909   -19243060.80649 -14955041.96349  15596857.8424   15596863.7334
  14107371.556   -51747087.63749 -40020231.57549  14107371.7154   14107376.7114
  16722126.081   -14149349.296 9 -10989377.455 9  16722125.292    16722133.122
  15789649.198   -31932045.90249 -24854586.15749  15789648.3794   15789653.1454
  17392140.976   -24850679.71249 -19337248.72549  17392140.9784   17392147.3244
  14403157.000   -53498922.34549 -41656353.88149  14403157.1464   14403162.0924
  15726098.896   -48855772.68149 -37309679.14249  15726098.6424   15726103.7554
 96  2 19 20 40 59.9780000  0  7  2 19 12 18 16 27 31
  15571281.826   -19377460.35949 -15059768.87249  15571281.9104   15571288.4464
  14094154.260   -51816542.98449 -40074352.62149  14094154.5254   14094159.7314
  16695030.527   -14291728.661 9 -11100322.351 9  16695031.567    16695039.439
  15792097.305   -31919177.45949 -24844558.83049  15792097.1914   15792101.6474
  17379993.429   -24914515.47949 -19386990.91849  17379993.3564   17379998.8194
  14378923.359   -53626269.53949 -41755585.44449  14378923.7144   14378928.7414
  15719392.381   -48891019.67049 -37337144.32949  15719391.6454   15719396.6124
 96  2 19 20 41 29.9780000  0  7  2 19 12 18 16 27 31
  15545759.711   -19511581.68049 -15164278.97649  15545759.6694   15545765.9694
  14080992.500   -51885707.50049 -40128247.04549  14080993.1714   14080997.9194
  16667968.759   -14433945.436 9 -11211140.567 9  16667968.366    16667976.376
  15794604.749   -31905999.94249 -24834290.66549  15794604.8154   15794609.8504
  17367939.786   -24977855.46849 -19436346.78149  17367939.3434   17367946.0514
  14354735.284   -53753380.46149 -41854632.90749  14354735.2804   14354740.4294
  15712791.347   -48925700.44449 -37364168.30949  15712792.0234   15712796.5764
